Date StartTime U_cm/s V_cm/s W_cm/s Ustd_cm/s Vstd_cm/s Wstd_cm/s Uvar_(cm/s)^2 Vvar_(cm/s)^2 Wvar_(cm/s)^2 KE_(m/s)^2 TurbulentKE_(m/s)^2 HorizWindSpeed_cm/s FrictionSpeec_cm/s DragCoef SpeedOfSound_m/s SonicTemperature_C Pressure_mb 
01/27/2014  00:00:00     -105.968      -15.778       -6.370       42.887       34.208       26.092     1839.280     1170.206      680.808        0.760        0.185      107.136       25.974        0.059      332.721        1.568      863.582
01/27/2014  00:01:00     -123.187      -21.243      -11.430       27.507       26.188       19.504      756.662      685.816      380.407        0.879        0.091      125.005       15.604        0.016      332.623        1.407      863.594
01/27/2014  00:02:00     -104.005      -27.639      -13.322       32.716       32.065       19.075     1070.355     1028.167      363.871        0.711        0.123      107.615       20.003        0.035      332.511        1.220      863.605
01/27/2014  00:03:00      -82.461      -18.980       -6.343       29.794       27.180       16.884      887.699      738.739      285.080        0.456        0.096       84.617       13.523        0.026      332.488        1.182      863.613
01/27/2014  00:04:00      -68.068      -30.606        0.529       39.288       30.917       19.933     1543.550      955.831      397.342        0.423        0.145       74.633       17.603        0.056      332.459        1.136      863.608
01/27/2014  00:05:00      -75.674      -21.643        2.241       41.658       38.899       22.347     1735.405     1513.114      499.385        0.497        0.187       78.708       24.827        0.099      332.353        0.959      863.603
01/27/2014  00:06:00      -44.557        2.772        5.981       47.029       34.016       18.185     2211.751     1157.092      330.698        0.286        0.185       44.643       14.720        0.109      332.326        0.913      863.598
01/27/2014  00:07:00      -39.889        0.703        1.104       32.731       22.616       18.260     1071.300      511.479      333.439        0.175        0.096       39.895       11.006        0.076      332.359        0.970      863.596
01/27/2014  00:08:00      -40.598      -23.890       -4.426       22.491       15.552       11.862      505.831      241.862      140.696        0.156        0.044       47.105        8.292        0.031      332.404        1.044      863.600
01/27/2014  00:09:00      -80.280      -24.083       -7.581       32.898       22.952       21.427     1082.273      526.807      459.127        0.457        0.103       83.815       16.507        0.039      332.420        1.071      863.597
01/27/2014  00:10:00      -95.712      -24.106      -16.038       19.426       18.522       13.862      377.380      343.079      192.162        0.546        0.046       98.701       10.690        0.012      332.405        1.046      863.595
01/27/2014  00:11:00      -88.513      -45.804      -15.212       17.778       20.968       12.912      316.056      439.657      166.727        0.554        0.046       99.662        8.732        0.008      332.450        1.121      863.596
01/27/2014  00:12:00      -98.952      -47.611       -7.678       23.814       20.756       16.581      567.126      430.792      274.934        0.669        0.064      109.810       13.875        0.016      332.546        1.278      863.600
01/27/2014  00:13:00      -81.637      -42.059       -5.366       20.722       16.506       12.142      429.403      272.446      147.420        0.466        0.042       91.834       12.981        0.020      332.603        1.372      863.606
01/27/2014  00:14:00      -70.486      -34.570       -2.533       17.877       20.019       11.541      319.586      400.778      133.185        0.351        0.043       78.507        8.436        0.012      332.738        1.596      863.596
01/27/2014  00:15:00      -55.771      -28.049       -6.777       16.621       14.651        6.590      276.242      214.659       43.429        0.224        0.027       62.427        5.521        0.008      332.838        1.763      863.585
01/27/2014  00:16:00      -88.731      -24.741       -6.691       22.550       12.493        7.825      508.521      156.063       61.237        0.463        0.036       92.115        6.349        0.005      332.691        1.519      863.578
01/27/2014  00:17:00     -108.358      -53.486       -6.596       12.551       11.250        8.844      157.535      126.571       78.221        0.750        0.018      120.840        5.432        0.002      332.461        1.138      863.579
01/27/2014  00:18:00     -131.258      -44.230       -7.501       21.801       19.398       15.084      475.280      376.291      227.536        1.016        0.054      138.509       10.952        0.006      332.478        1.167      863.585
01/27/2014  00:19:00      -85.359      -19.151        4.117       29.562       24.507       19.755      873.925      600.605      390.260        0.477        0.093       87.480       17.714        0.041      332.357        0.967      863.607
01/27/2014  00:20:00     -122.817      -55.810      -11.325       15.700       19.268       12.300      246.483      371.265      151.282        0.955        0.038      134.903        7.161        0.003      332.471        1.156      863.625
01/27/2014  00:21:00     -130.062      -53.942      -11.671       13.542       17.307       10.393      183.389      299.539      108.016        1.028        0.030      140.805        2.678        0.000      332.367        0.984      863.649
01/27/2014  00:22:00     -116.469      -40.638       -6.088       27.230       17.966       18.510      741.475      322.791      342.602        0.833        0.070      123.355       13.314        0.012      332.352        0.961      863.668
01/27/2014  00:23:00      -97.403        0.835      -14.328       11.673       11.176       12.068      136.252      124.894      145.625        0.505        0.020       97.407        5.786        0.004      332.349        0.954      863.680
01/27/2014  00:24:00      -79.190      -28.590       -5.575       23.900       19.376       10.178      571.225      375.416      103.597        0.408        0.053       84.193       11.596        0.019      332.405        1.045      863.698
01/27/2014  00:25:00      -69.762      -32.685        2.933       28.126       24.415       16.651      791.082      596.103      277.239        0.380        0.083       77.040       11.349        0.022      332.459        1.136      863.732
01/27/2014  00:26:00      -60.572      -41.900        0.598       32.198       20.125       20.185     1036.721      405.014      407.437        0.364        0.092       73.652       15.214        0.043      332.379        1.002      863.750
01/27/2014  00:27:00      -76.681      -46.482        4.399       29.179       18.698       18.180      851.438      349.597      330.498        0.480        0.077       89.669       18.994        0.045      332.358        0.968      863.750
01/27/2014  00:28:00      -49.937      -42.418        3.939       26.706       22.587       16.090      713.206      510.184      258.883        0.290        0.074       65.521       16.075        0.060      332.517        1.231      863.757
01/27/2014  00:29:00      -90.422      -49.725       -1.715       26.247       20.883       14.745      688.895      436.104      217.420        0.600        0.067      103.193       12.629        0.015      332.593        1.356      863.763
01/27/2014  00:30:00     -111.408      -44.488       -6.477       21.081       19.489       11.679      444.389      379.835      136.391        0.770        0.048      119.962        8.289        0.005      332.598        1.364      863.771
01/27/2014  00:31:00     -105.861      -40.883       -0.404       26.540       25.348       13.037      704.383      642.514      169.962        0.720        0.076      113.481       11.191        0.010      332.590        1.350      863.787
01/27/2014  00:32:00     -123.742      -17.466       -7.707       29.873       22.830       16.344      892.407      521.218      267.142        0.868        0.084      124.968       15.550        0.015      332.577        1.331      863.817
01/27/2014  00:33:00     -136.610       21.827      -11.484       10.035        9.165        5.916      100.702       83.993       35.002        0.975        0.011      138.342        3.669        0.001      332.607        1.378      863.827
01/27/2014  00:34:00      -93.387       18.757      -10.737       22.169       16.200       11.345      491.460      262.448      128.714        0.504        0.044       95.252       10.634        0.012      332.659        1.466      863.837
01/27/2014  00:35:00      -40.328       -5.636       -2.932       28.057       18.676       17.683      787.211      348.809      312.693        0.156        0.072       40.720       17.090        0.176      332.690        1.517      863.835
01/27/2014  00:36:00      -62.785       -2.685       -9.331       15.897       16.488       11.913      252.722      271.855      141.929        0.235        0.033       62.842        8.994        0.020      332.676        1.493      863.827
01/27/2014  00:37:00      -65.460        4.487       -8.376        9.186       11.204        9.101       84.392      125.529       82.828        0.233        0.015       65.613        5.131        0.006      332.520        1.236      863.814
01/27/2014  00:38:00      -54.958       23.697      -12.362       13.566       14.207        9.450      184.027      201.844       89.297        0.210        0.024       59.849        8.889        0.022      332.777        1.660      863.808
01/27/2014  00:39:00      -52.524        3.573       -5.585       25.836       11.054       12.345      667.516      122.181      152.399        0.187        0.047       52.646        8.413        0.026      332.704        1.540      863.809
01/27/2014  00:40:00      -67.946      -23.444      -12.078       11.301       12.736        8.517      127.708      162.213       72.534        0.284        0.018       71.877        8.026        0.012      332.506        1.212      863.823
01/27/2014  00:41:00      -49.271      -14.881       -6.971        9.330       10.306        7.733       87.045      106.205       59.792        0.148        0.013       51.469        6.034        0.014      332.488        1.183      863.837
01/27/2014  00:42:00      -32.858       14.364       -5.070       16.490       22.414       14.042      271.923      502.388      197.167        0.114        0.049       35.860        8.424        0.055      332.673        1.488      863.862
01/27/2014  00:43:00      -45.980       62.089      -10.364       20.204       32.354       14.756      408.220     1046.752      217.742        0.387        0.084       77.260       14.630        0.036      332.876        1.825      863.881
01/27/2014  00:44:00       -8.078       96.691       -9.084       26.236       24.361       14.050      688.348      593.475      197.396        0.549        0.074       97.028       12.042        0.015      333.308        2.537      863.892
01/27/2014  00:45:00        5.665      109.794      -18.213       17.247       30.470       16.801      297.466      928.391      282.272        0.696        0.075      109.940       13.779        0.016      333.315        2.549      863.890
01/27/2014  00:46:00       16.736       92.151       -9.497       19.486       27.915       17.446      379.705      779.261      304.372        0.516        0.073       93.658       14.244        0.023      333.131        2.244      863.870
01/27/2014  00:47:00       11.612      105.276      -13.531       14.283       22.513        8.593      204.009      506.827       73.840        0.609        0.039      105.914        5.994        0.003      333.236        2.418      863.853
01/27/2014  00:48:00       13.608       53.479       -3.328       14.063       28.313       15.882      197.779      801.632      252.245        0.215        0.063       55.183       16.626        0.091      333.082        2.163      863.837
01/27/2014  00:49:00       15.234       48.598        3.033       12.317       27.061       13.584      151.706      732.294      184.514        0.184        0.053       50.929       15.857        0.097      332.980        1.996      863.822
01/27/2014  00:50:00       14.623       47.393       -3.610       12.118       15.397       13.318      146.851      237.061      177.365        0.152        0.028       49.598       11.254        0.051      332.860        1.799      863.818
01/27/2014  00:51:00       20.148       72.821       -8.616       12.601       19.482       11.237      158.777      379.549      126.269        0.322        0.033       75.557       11.308        0.022      332.844        1.771      863.810
01/27/2014  00:52:00       34.188       10.470        2.331       15.851       19.890       12.335      251.244      395.619      152.156        0.104        0.040       35.755        7.874        0.048      332.725        1.577      863.809
01/27/2014  00:53:00       30.697       -3.436        8.242       29.186       15.815       16.552      851.815      250.112      273.968        0.120        0.069       30.888       19.198        0.386      332.697        1.528      863.792
01/27/2014  00:54:00        1.353       10.861       32.798       12.150       17.276        8.579      147.619      298.455       73.592        0.086        0.026       10.945        7.622        0.485      332.567        1.313      863.765
01/27/2014  00:55:00        7.505       24.269       33.707       14.076       15.216        8.754      198.122      231.521       76.638        0.114        0.025       25.402        6.193        0.059      332.523        1.240      863.739
01/27/2014  00:56:00        6.105       34.546       37.568       10.418       11.018        7.624      108.526      121.390       58.130        0.146        0.014       35.082        5.751        0.027      332.626        1.412      863.715
01/27/2014  00:57:00       31.471       21.937       25.171       18.715       15.360       15.369      350.243      235.945      236.214        0.146        0.041       38.362       12.390        0.104      332.677        1.495      863.687
01/27/2014  00:58:00       57.890       27.457       22.358       18.326       16.232       14.808      335.845      263.463      219.271        0.271        0.041       64.071       11.360        0.031      332.724        1.573      863.658
01/27/2014  00:59:00       39.564       14.912       20.384       20.135       15.144       15.495      405.403      229.342      240.087        0.154        0.044       42.281       11.779        0.078      332.736        1.594      863.635
01/27/2014  01:00:00       18.244       13.480       22.467       16.953       12.347       12.434      287.410      152.460      154.609        0.081        0.030       22.684        9.107        0.161      332.629        1.415      863.625
01/27/2014  01:01:00       27.725       25.948       18.934       24.348       19.985       13.821      592.831      399.381      191.008        0.149        0.059       37.974        8.368        0.049      332.614        1.391      863.624
01/27/2014  01:02:00       40.879       16.632        8.655       19.337       13.011       12.821      373.906      169.298      164.367        0.136        0.035       44.133       10.150        0.053      332.584        1.341      863.627
01/27/2014  01:03:00       27.384       22.723       13.877       16.967       12.255       12.956      287.879      150.174      167.854        0.103        0.030       35.584        7.239        0.041      332.579        1.333      863.627
01/27/2014  01:04:00       23.603       12.078       19.697       17.253       14.418       16.793      297.658      207.870      282.013        0.094        0.039       26.514        8.650        0.106      332.594        1.358      863.623
01/27/2014  01:05:00       43.709       24.718       24.538       27.727       18.256       20.705      768.803      333.270      428.693        0.233        0.077       50.214       17.642        0.123      332.587        1.347      863.618
01/27/2014  01:06:00       46.205       33.244       17.749       12.890       12.771       18.926      166.160      163.091      358.204        0.212        0.034       56.922        9.990        0.031      332.574        1.324      863.619
01/27/2014  01:07:00       47.432       25.535       12.448       17.123       10.969       13.059      293.187      120.330      170.534        0.182        0.029       53.869       10.175        0.036      332.519        1.234      863.612
01/27/2014  01:08:00       39.505       29.048        6.296       17.353       10.795       11.034      301.112      116.521      121.738        0.149        0.027       49.035        9.972        0.041      332.421        1.072      863.613
01/27/2014  01:09:00       69.839       39.657        5.368       17.366       13.896       10.939      301.579      193.107      119.667        0.355        0.031       80.313        9.201        0.013      332.404        1.045      863.609
01/27/2014  01:10:00       46.079       26.492        6.396       20.317       16.006       14.426      412.771      256.207      208.106        0.187        0.044       53.152       11.355        0.046      332.324        0.912      863.613
01/27/2014  01:11:00       28.289       24.777        0.084       19.598       17.830       10.468      384.096      317.907      109.581        0.111        0.041       37.606        8.227        0.048      332.275        0.833      863.620
01/27/2014  01:12:00       12.826       10.305        4.845       19.252        7.209       10.479      370.635       51.964      109.814        0.041        0.027       16.453        5.555        0.114      332.270        0.824      863.633
01/27/2014  01:13:00        7.320       19.072        0.844       10.273        7.569        8.348      105.530       57.293       69.694        0.033        0.012       20.428        5.235        0.066      332.241        0.774      863.644
01/27/2014  01:14:00       -0.942       17.409       -6.209       11.109       12.030        5.406      123.421      144.732       29.224        0.032        0.015       17.435        6.097        0.122      332.271        0.824      863.646
01/27/2014  01:15:00      -15.582       12.136        1.884       17.951       14.495        7.813      322.253      210.102       61.049        0.049        0.030       19.750        8.025        0.165      332.280        0.841      863.639
01/27/2014  01:16:00      -20.575       15.531       -1.669       10.638       14.798        6.525      113.169      218.979       42.571        0.052        0.019       25.778        4.077        0.025      332.342        0.942      863.622
01/27/2014  01:17:00      -34.817       -2.615       -4.324       16.756        9.291        8.303      280.765       86.316       68.947        0.084        0.022       34.915        8.150        0.054      332.238        0.771      863.625
01/27/2014  01:18:00      -43.133      -12.263       -9.119        7.818        7.108        5.430       61.118       50.520       29.486        0.112        0.007       44.843        2.424        0.003      332.130        0.591      863.628
01/27/2014  01:19:00      -46.892      -10.032      -10.264       15.343        8.225        7.643      235.406       67.649       58.408        0.138        0.018       47.953        2.758        0.003      332.220        0.743      863.630
01/27/2014  01:20:00      -49.316      -17.183       -5.772        8.732       13.301        9.534       76.253      176.916       90.892        0.155        0.017       52.224        3.398        0.004      332.153        0.631      863.641
01/27/2014  01:21:00      -57.848      -15.670       -9.079       10.189       13.792       11.516      103.816      190.233      132.609        0.205        0.021       59.933        7.261        0.015      332.057        0.473      863.653
01/27/2014  01:22:00      -61.445      -19.774      -14.029        8.764       11.030        8.626       76.806      121.662       74.409        0.232        0.014       64.548        4.866        0.006      331.965        0.321      863.666
01/27/2014  01:23:00      -70.009       -1.057      -10.393       16.084       13.986       11.540      258.711      195.603      133.174        0.280        0.029       70.017        9.713        0.019      332.065        0.486      863.671
01/27/2014  01:24:00      -53.581       -0.421      -13.908       16.382        9.427       11.044      268.359       88.861      121.972        0.177        0.024       53.582        9.854        0.034      332.131        0.594      863.676
01/27/2014  01:25:00      -64.554      -13.813      -10.306       18.150       20.394       12.633      329.412      415.904      159.588        0.268        0.045       66.015        9.812        0.022      332.200        0.708      863.685
01/27/2014  01:26:00     -101.394      -42.595      -11.344       15.657       13.286       13.166      245.147      176.521      173.354        0.641        0.030      109.978        8.620        0.006      332.046        0.454      863.697
01/27/2014  01:27:00     -104.762      -56.143       -7.355       21.826       20.990       16.459      476.386      440.585      270.905        0.768        0.059      118.858        8.909        0.006      331.970        0.328      863.723
01/27/2014  01:28:00     -130.656      -15.814      -11.256       27.202       16.368       13.562      739.937      267.902      183.919        0.932        0.060      131.609       11.336        0.007      331.924        0.252      863.743
01/27/2014  01:29:00     -132.320      -10.652      -11.998       20.882       13.985       11.988      436.075      195.576      143.718        0.927        0.039      132.748        8.448        0.004      331.940        0.279      863.750
01/27/2014  01:30:00     -111.542      -19.925       -2.422       28.334       20.502       17.829      802.824      420.338      317.888        0.719        0.077      113.308       15.752        0.019      332.050        0.460      863.755
01/27/2014  01:31:00     -101.237      -35.463       -3.642       16.747       13.832       13.246      280.456      191.326      175.452        0.608        0.032      107.268        7.310        0.005      332.104        0.549      863.752
01/27/2014  01:32:00      -57.569      -14.717        1.464       22.096       17.997       11.760      488.246      323.900      138.305        0.224        0.048       59.421       11.148        0.035      332.073        0.499      863.753
01/27/2014  01:33:00      -72.478      -16.049       -1.459       31.401       18.982       13.684      986.035      360.320      187.249        0.352        0.077       74.234       11.280        0.023      332.159        0.641      863.758
01/27/2014  01:34:00     -118.571      -46.625       -3.926       28.755       15.813       12.706      826.870      250.065      161.438        0.874        0.062      127.409       10.296        0.007      332.164        0.650      863.774
01/27/2014  01:35:00     -120.960      -24.942      -16.832       30.280       16.162       11.880      916.904      261.200      141.146        0.843        0.066      123.505       12.863        0.011      332.129        0.591      863.789
01/27/2014  01:36:00      -77.672        2.856       -1.074       29.805       20.506       15.476      888.321      420.500      239.503        0.380        0.077       77.724       17.820        0.053      332.038        0.439      863.792
01/27/2014  01:37:00      -60.682        2.443       -6.976       14.724       17.914       11.324      216.785      320.926      128.244        0.220        0.033       60.731        9.184        0.023      332.100        0.543      863.783
01/27/2014  01:38:00      -85.632       31.021      -18.124       14.750       16.093       10.017      217.575      258.998      100.344        0.460        0.029       91.078        6.298        0.005      332.386        1.016      863.782
01/27/2014  01:39:00      -67.340        5.453      -10.196        8.236       14.271       10.609       67.834      203.672      112.544        0.253        0.019       67.560        5.606        0.007      332.263        0.811      863.781
01/27/2014  01:40:00      -76.697        5.276      -14.884       13.872       12.098        9.538      192.437      146.351       90.972        0.328        0.021       76.879        6.058        0.006      332.365        0.981      863.787
01/27/2014  01:41:00      -89.972       -2.919      -20.852       18.735       13.979       14.982      350.997      195.402      224.446        0.465        0.039       90.020        9.942        0.012      332.180        0.675      863.795
01/27/2014  01:42:00      -78.630      -29.352      -12.655       36.391       33.571       23.012     1324.288     1127.031      529.549        0.509        0.149       83.930       24.896        0.088      332.119        0.574      863.794
01/27/2014  01:43:00      -26.141       -7.677       -3.807       34.163       27.376       20.227     1167.092      749.467      409.148        0.154        0.116       27.245       14.495        0.283      332.174        0.664      863.784
01/27/2014  01:44:00      -74.795      -14.718      -10.053       39.473       31.497       16.417     1558.110      992.092      269.514        0.437        0.141       76.229       13.567        0.032      332.130        0.592      863.776
01/27/2014  01:45:00      -36.787        0.022       -7.939       26.484       19.064       15.630      701.402      363.435      244.308        0.136        0.065       36.787       14.934        0.165      332.125        0.585      863.771
01/27/2014  01:46:00      -68.440       14.748      -13.585       20.732       19.991       16.564      429.827      399.635      274.350        0.309        0.055       70.011        8.534        0.015      332.147        0.620      863.779
01/27/2014  01:47:00      -64.890       -7.275       -6.827       18.730       16.282       12.421      350.795      265.112      154.288        0.254        0.039       65.296        6.290        0.009      332.133        0.599      863.790
01/27/2014  01:48:00      -64.334       -4.156      -13.570       18.149       20.434       11.072      329.403      417.558      122.600        0.260        0.043       64.468        8.046        0.016      332.086        0.519      863.794
01/27/2014  01:49:00      -62.960       40.894       -7.585       25.773       42.033       20.766      664.236     1766.744      431.217        0.428        0.143       75.075       13.328        0.032      332.428        1.084      863.793
01/27/2014  01:50:00      -63.994       40.877      -11.908       27.696       27.780       18.023      767.069      771.717      324.830        0.389        0.093       75.936       14.268        0.035      332.425        1.079      863.797
01/27/2014  01:51:00      -57.103        2.241       -8.775       21.805       30.909       14.457      475.444      955.377      209.013        0.249        0.082       57.147       10.824        0.036      332.370        0.988      863.795
01/27/2014  01:52:00      -21.547      -31.372       -4.553       17.765       18.658        9.420      315.605      348.111       88.728        0.111        0.038       38.058        7.835        0.042      332.154        0.632      863.785
01/27/2014  01:53:00      -22.939       -2.480       -2.107       17.524       15.149       11.387      307.092      229.490      129.671        0.060        0.033       23.072        6.800        0.087      332.204        0.714      863.765
01/27/2014  01:54:00      -35.559       44.483       -5.285       24.797       24.425       14.302      614.896      596.568      204.557        0.234        0.071       56.949       10.505        0.034      332.590        1.350      863.746
01/27/2014  01:55:00      -25.462        1.704       -0.064       21.181       27.010       14.774      448.621      729.527      218.262        0.102        0.070       25.519       16.899        0.439      332.606        1.376      863.744
01/27/2014  01:56:00      -22.679      -13.870       -1.567       19.245       22.717       13.341      370.365      516.045      177.990        0.089        0.053       26.584       11.872        0.199      332.456        1.130      863.750
01/27/2014  01:57:00      -11.054      -10.792       -5.570       12.950       10.135        9.697      167.711      102.728       94.023        0.032        0.018       15.448        5.655        0.134      332.181        0.677      863.756
01/27/2014  01:58:00      -47.199      -37.191      -11.247       24.565       17.243       15.024      603.424      297.327      225.711        0.243        0.056       60.091        8.848        0.022      332.076        0.504      863.755
01/27/2014  01:59:00      -57.061      -34.110      -17.321       16.594       11.856        8.087      275.350      140.570       65.398        0.260        0.024       66.479        5.506        0.007      332.176        0.670      863.748
01/27/2014  02:00:00      -80.691      -10.283      -13.915       16.714       15.047       13.873      279.371      226.405      192.452        0.375        0.035       81.344        9.271        0.013      332.114        0.566      863.741
01/27/2014  02:01:00      -85.734      -17.943      -18.333        9.033       11.686        7.953       81.593      136.560       63.253        0.414        0.014       87.591        4.418        0.003      332.076        0.504      863.741
01/27/2014  02:02:00      -81.003      -29.279      -19.069       10.680       15.901       10.108      114.056      252.854      102.175        0.413        0.023       86.132        7.448        0.007      332.096        0.536      863.751
01/27/2014  02:03:00      -73.506      -47.829      -13.883       20.986       27.070       20.712      440.400      732.792      428.990        0.474        0.080       87.697       17.652        0.041      331.995        0.371      863.767
01/27/2014  02:04:00      -81.173      -76.502      -18.301       29.070       23.485       18.894      845.069      551.533      356.984        0.726        0.088      111.542        7.626        0.005      331.884        0.185      863.788
01/27/2014  02:05:00      -90.656      -67.415      -18.371       26.992       28.874       14.545      728.592      833.705      211.564        0.744        0.089      112.975       10.660        0.009      331.888        0.194      863.793
01/27/2014  02:06:00     -125.992      -21.193      -17.705       23.344       17.263       13.795      544.929      297.995      190.291        0.883        0.052      127.762       10.888        0.007      331.946        0.287      863.787
01/27/2014  02:07:00     -121.455      -32.034      -19.049       21.847       17.473       11.178      477.295      305.301      124.956        0.852        0.045      125.608        6.668        0.003      331.961        0.313      863.767
01/27/2014  02:08:00      -82.685      -35.082       -3.866       25.653       32.387       21.212      658.096     1048.930      449.932        0.512        0.108       89.820       17.512        0.038      332.028        0.424      863.742
01/27/2014  02:09:00      -99.494      -22.814       -3.676       47.876       38.952       26.262     2292.064     1517.233      689.680        0.747        0.225      102.076       19.920        0.038      332.056        0.471      863.725
01/27/2014  02:10:00     -149.309      -17.923      -10.533       58.471       44.412       25.643     3418.838     1972.393      657.562        1.439        0.302      150.381       17.906        0.014      332.068        0.489      863.714
01/27/2014  02:11:00     -125.525      -28.388        2.276       44.405       40.623       25.105     1971.823     1650.257      630.261        1.041        0.213      128.695       23.923        0.035      331.951        0.297      863.716
01/27/2014  02:12:00      -86.054      -50.136       -2.295       40.327       31.696       18.626     1626.263     1004.647      346.930        0.645        0.149       99.594       16.953        0.029      331.923        0.251      863.711
01/27/2014  02:13:00      -79.331      -30.796       -7.282       38.152       24.845       15.995     1455.557      617.263      255.843        0.481        0.116       85.098       19.000        0.050      331.925        0.254      863.713
01/27/2014  02:14:00     -119.399      -16.117       -4.835       51.869       36.316       23.475     2690.368     1318.833      551.068        0.955        0.228      120.482       25.873        0.046      331.936        0.272      863.719
01/27/2014  02:15:00     -109.490        0.041       -1.294       68.062       37.922       27.677     4632.479     1438.084      766.022        0.941        0.342      109.490       27.100        0.061      332.030        0.428      863.743
01/27/2014  02:16:00      -45.120      -12.859        3.474       56.925       35.085       22.556     3240.473     1230.990      508.777        0.360        0.249       46.917       23.241        0.245      332.122        0.580      863.765
01/27/2014  02:17:00      -70.615      -13.951      -11.825       30.550       37.557       16.193      933.329     1410.561      262.216        0.396        0.130       71.980       13.023        0.033      332.124        0.583      863.790
01/27/2014  02:18:00      -86.687      -33.691      -13.853       34.691       28.221       18.389     1203.443      796.424      338.158        0.559        0.117       93.004        6.589        0.005      332.181        0.677      863.780
01/27/2014  02:19:00      -85.570      -37.629       -0.910       43.212       27.746       20.336     1867.260      769.818      413.548        0.589        0.153       93.478       14.572        0.024      332.086        0.521      863.780
01/27/2014  02:20:00     -120.962      -31.733       -9.061       36.362       31.817       19.984     1322.201     1012.340      399.372        0.923        0.137      125.055       15.247        0.015      332.045        0.452      863.782
01/27/2014  02:21:00     -110.415      -69.364      -12.088       44.119       35.545       25.510     1946.446     1263.453      650.771        1.050        0.193      130.395       16.208        0.015      332.016        0.404      863.792
01/27/2014  02:22:00      -83.070      -38.669       -5.696       68.034       35.062       25.720     4628.588     1229.372      661.509        0.747        0.326       91.629       31.264        0.116      332.035        0.437      863.801
01/27/2014  02:23:00      -89.492      -15.758       -7.743       23.879       27.936       17.778      570.211      780.424      316.041        0.499        0.083       90.869       16.182        0.032      331.913        0.235      863.802
01/27/2014  02:24:00      -92.004      -25.029      -15.957       17.795       18.981       14.737      316.673      360.280      217.181        0.512        0.045       95.347        8.692        0.008      332.012        0.397      863.800
01/27/2014  02:25:00      -95.242      -31.225       -8.111       30.026       21.852       18.010      901.582      477.512      324.359        0.591        0.085      100.230       17.009        0.029      332.023        0.417      863.782
01/27/2014  02:26:00      -79.597      -43.372      -10.696       28.471       24.907       19.532      810.587      620.361      381.514        0.507        0.091       90.647       19.811        0.048      332.079        0.509      863.765
01/27/2014  02:27:00     -111.457      -68.217      -23.732       18.301       18.689       14.071      334.941      349.262      197.988        0.926        0.044      130.676        5.623        0.002      332.083        0.515      863.776
01/27/2014  02:28:00     -127.430      -55.912      -11.267       24.093       26.569       15.621      580.493      705.936      244.011        1.051        0.077      139.157       14.955        0.012      332.024        0.416      863.795
01/27/2014  02:29:00     -122.363      -41.020      -15.554       14.930       15.503       12.062      222.901      240.336      145.484        0.875        0.030      129.056        8.188        0.004      332.024        0.417      863.818
01/27/2014  02:30:00     -135.693      -51.718      -11.282       19.510       19.960       15.487      380.652      398.404      239.843        1.112        0.051      145.215        9.176        0.004      331.995        0.369      863.832
01/27/2014  02:31:00     -136.515      -56.881       -6.248       45.492       24.472       20.427     2069.548      598.893      417.267        1.250        0.154      147.891       20.579        0.019      331.943        0.283      863.857
01/27/2014  02:32:00      -95.007      -25.592       -3.240       31.575       24.808       16.306      996.956      615.429      265.894        0.578        0.094       98.393       17.220        0.031      331.912        0.232      863.870
01/27/2014  02:33:00     -124.248      -33.886      -12.122       19.253       20.468       12.192      370.680      418.939      148.636        0.884        0.047      128.786        5.519        0.002      331.880        0.179      863.875
01/27/2014  02:34:00     -121.000      -26.129       -2.960       31.042       23.533       16.875      963.598      553.791      284.773        0.857        0.090      123.789       17.181        0.019      331.883        0.185      863.880
01/27/2014  02:35:00      -97.026      -32.893       -0.070       32.580       25.325       17.589     1061.459      641.339      309.385        0.625        0.101      102.450       17.045        0.028      331.890        0.196      863.885
01/27/2014  02:36:00     -101.071      -21.470       -5.397       22.516       16.649       15.051      506.964      277.192      226.547        0.586        0.051      103.326       14.322        0.019      331.848        0.128      863.888
01/27/2014  02:37:00      -84.212        0.305       -6.140       33.929       22.627       18.489     1151.143      511.977      341.850        0.457        0.100       84.212       19.854        0.056      331.856        0.141      863.877
01/27/2014  02:38:00     -142.371       18.459       -3.355       36.108       27.123       21.608     1303.782      735.679      466.920        1.156        0.125      143.563       17.756        0.015      332.172        0.662      863.850
01/27/2014  02:39:00      -63.059       -4.611       -2.393       66.017       38.492       23.699     4358.287     1481.672      561.652        0.520        0.320       63.227       16.622        0.069      332.164        0.648      863.821
01/27/2014  02:40:00      -59.033        6.107        0.443       36.815       26.887       22.098     1355.322      722.885      488.341        0.304        0.128       59.348       18.123        0.093      332.123        0.582      863.797
01/27/2014  02:41:00      -54.492      -30.677       -9.024       28.256       29.061       16.353      798.397      844.570      267.416        0.295        0.096       62.534        7.167        0.013      332.079        0.508      863.772
01/27/2014  02:42:00      -68.112      -26.602      -13.974       17.811       12.515       19.702      317.233      156.631      388.176        0.320        0.043       73.123        7.911        0.012      332.074        0.501      863.748
01/27/2014  02:43:00      -47.316      -25.799       -9.274       23.164       18.737       16.979      536.563      351.087      288.287        0.208        0.059       53.892       14.224        0.070      332.037        0.439      863.714
01/27/2014  02:44:00      -71.014      -36.267      -10.888       19.340       17.760       14.930      374.040      315.401      222.914        0.369        0.046       79.739       12.022        0.023      331.997        0.372      863.665
01/27/2014  02:45:00      -79.560      -28.411      -11.378       23.180       17.418       17.964      537.316      303.399      322.698        0.421        0.058       84.481       14.905        0.031      331.920        0.246      863.621
01/27/2014  02:46:00      -90.560      -30.325      -14.317       15.075       14.031       10.594      227.262      196.874      112.240        0.493        0.027       95.502        6.756        0.005      331.871        0.166      863.573
01/27/2014  02:47:00      -74.438      -29.106      -10.580       14.805       15.626       12.988      219.189      244.172      168.682        0.357        0.032       79.926        5.500        0.005      331.859        0.145      863.536
01/27/2014  02:48:00     -106.598      -46.545      -11.950       14.262       11.284        8.682      203.393      127.331       75.371        0.704        0.020      116.317        6.491        0.003      331.787        0.026      863.517
01/27/2014  02:49:00      -96.522      -33.919      -13.346        8.832        8.750        8.361       78.001       76.556       69.913        0.543        0.011      102.309        3.662        0.001      331.857        0.142      863.500
01/27/2014  02:50:00      -88.642      -36.277      -11.565        9.322        8.015        7.840       86.907       64.241       61.465        0.476        0.011       95.778        3.710        0.002      331.947        0.290      863.490
01/27/2014  02:51:00     -107.060      -26.824       -7.041       14.720       14.905       11.769      216.666      222.173      138.510        0.640        0.029      110.369       10.158        0.008      331.954        0.301      863.488
01/27/2014  02:52:00     -115.829      -26.583      -19.409       13.410       15.479        9.955      179.838      239.614       99.097        0.751        0.026      118.840        5.401        0.002      331.929        0.262      863.483
01/27/2014  02:53:00      -77.074      -18.572       -6.465       27.504       15.595       15.243      756.461      243.214      232.340        0.378        0.062       79.280       11.345        0.020      331.897        0.209      863.477
01/27/2014  02:54:00      -74.984      -37.469       -6.113       22.581       18.403       20.806      509.918      338.678      432.872        0.417        0.064       83.825       16.511        0.039      331.879        0.179      863.477
01/27/2014  02:55:00      -93.504      -48.451      -16.801       21.525       17.062       13.512      463.320      291.121      182.571        0.615        0.047      105.311       11.907        0.013      331.819        0.079      863.482
01/27/2014  02:56:00     -128.051      -38.996      -13.996       10.849        9.582        8.826      117.704       91.810       77.891        0.920        0.014      133.857        2.093        0.000      331.835        0.105      863.497
01/27/2014  02:57:00     -116.277      -26.904      -13.748       17.086       13.471       13.374      291.923      181.456      178.871        0.754        0.033      119.349       10.730        0.008      331.847        0.127      863.509
01/27/2014  02:58:00     -120.754      -15.524      -19.636       14.906       15.724       11.857      222.180      247.241      140.594        0.791        0.031      121.747        7.419        0.004      331.928        0.259      863.523
01/27/2014  02:59:00     -109.771      -13.493      -10.300       15.465       13.779       12.103      239.180      189.860      146.479        0.646        0.029      110.597        9.858        0.008      331.919        0.244      863.536
01/27/2014  03:00:00     -100.182       -7.711       -9.455       27.104       15.772       15.081      734.650      248.743      227.436        0.570        0.061      100.478        9.128        0.008      331.890        0.197      863.548
01/27/2014  03:01:00      -80.771       -3.656      -10.535       24.203       18.795       14.142      585.787      353.238      199.983        0.389        0.057       80.853       13.845        0.029      331.735       -0.057      863.557
01/27/2014  03:02:00      -79.987       -8.386      -17.067       12.879       11.168        8.536      165.862      124.716       72.866        0.356        0.018       80.425        6.663        0.007      331.738       -0.050      863.560
01/27/2014  03:03:00      -55.721      -16.948       -8.730       19.224       16.750        9.131      369.547      280.555       83.381        0.210        0.037       58.241        5.903        0.010      331.870        0.163      863.550
01/27/2014  03:04:00      -69.515      -11.515      -10.402       20.035       16.574       13.143      401.416      274.689      172.727        0.296        0.042       70.463        9.106        0.017      331.871        0.166      863.544
01/27/2014  03:05:00      -67.503       -0.075       -4.964       14.563       17.655        9.361      212.074      311.686       87.621        0.260        0.031       67.503        6.767        0.010      331.855        0.139      863.526
01/27/2014  03:06:00      -58.808        3.114      -14.160       18.243       18.330       11.000      332.811      336.000      121.010        0.223        0.039       58.890       12.277        0.043      332.100        0.544      863.521
01/27/2014  03:07:00      -44.804      -26.644       -8.360       26.992       14.237       11.697      728.555      202.682      136.824        0.193        0.053       52.128        7.608        0.021      331.893        0.203      863.524
01/27/2014  03:08:00     -117.731      -35.862      -15.505       18.145       15.607        9.088      329.230      243.565       82.596        0.802        0.033      123.072        5.721        0.002      331.655       -0.190      863.525
01/27/2014  03:09:00     -102.792       -6.802      -14.574       18.138       21.184       13.895      328.981      448.762      193.063        0.590        0.049      103.017        8.538        0.007      331.592       -0.293      863.515
01/27/2014  03:10:00      -58.867       -5.583      -12.287       19.797       16.962       15.348      391.930      287.705      235.548        0.228        0.046       59.131       15.249        0.067      331.646       -0.204      863.490
01/27/2014  03:11:00      -54.639      -27.694      -10.716       13.489       10.659        9.380      181.945      113.604       87.983        0.213        0.019       61.257        7.336        0.014      331.745       -0.044      863.459
01/27/2014  03:12:00      -61.672      -24.097      -10.833       16.784       15.593       12.279      281.706      243.151      150.783        0.259        0.034       66.212        6.717        0.010      331.727       -0.071      863.450
01/27/2014  03:13:00      -78.134      -14.803      -16.014       23.349       13.323        8.681      545.171      177.499       75.365        0.369        0.040       79.523        5.738        0.005      331.615       -0.255      863.459
01/27/2014  03:14:00     -124.196      -12.200      -18.945       18.245       17.852       13.030      332.887      318.698      169.770        0.838        0.041      124.794        9.315        0.006      331.542       -0.377      863.477
01/27/2014  03:15:00      -92.962      -16.029       -9.438       32.736       27.523       16.274     1071.636      757.528      264.845        0.554        0.105       94.334       16.668        0.031      331.530       -0.396      863.496
01/27/2014  03:16:00      -47.266       15.929       -6.830       23.430       22.963       16.349      548.959      527.279      267.295        0.194        0.067       49.878        6.359        0.016      331.642       -0.210      863.511
01/27/2014  03:17:00      -36.170       -4.789       -7.636        9.342       10.108        6.337       87.271      102.179       40.156        0.081        0.011       36.486        5.885        0.026      331.875        0.172      863.515
01/27/2014  03:18:00      -36.455        0.570       -7.328       12.572        8.075        7.424      158.068       65.205       55.119        0.083        0.014       36.459        5.875        0.026      331.850        0.131      863.525
01/27/2014  03:19:00      -10.028       20.884       -4.135       18.236       11.023        8.672      332.558      121.509       75.210        0.054        0.026       23.167        8.703        0.141      332.050        0.459      863.530
01/27/2014  03:20:00       -4.429       -0.859       -3.102        9.421       11.525        3.859       88.752      132.819       14.893        0.013        0.012        4.511        3.697        0.672      332.307        0.883      863.549
01/27/2014  03:21:00      -60.138      -26.456      -12.261       26.811       11.068        8.537      718.846      122.502       72.876        0.269        0.046       65.700        6.314        0.009      331.814        0.071      863.580
01/27/2014  03:22:00      -91.240       -8.180       -9.632       15.498       18.356       11.619      240.191      336.941      134.998        0.460        0.036       91.606        7.669        0.007      331.632       -0.228      863.607
01/27/2014  03:23:00     -104.702      -26.882      -17.210       26.430       28.572       17.205      698.529      816.344      296.001        0.690        0.091      108.098       11.952        0.012      331.495       -0.452      863.637
01/27/2014  03:24:00     -100.697      -16.072       -8.265       35.334       41.064       18.620     1248.471     1686.244      346.721        0.687        0.164      101.972       11.752        0.013      331.565       -0.338      863.658
01/27/2014  03:25:00      -78.490      -36.227        0.826       38.411       38.451       21.883     1475.416     1478.459      478.884        0.545        0.172       86.447       21.419        0.061      331.562       -0.343      863.679
01/27/2014  03:26:00     -116.877      -53.507      -16.035       35.681       32.834       20.667     1273.121     1078.069      427.142        0.978        0.139      128.543       10.076        0.006      331.450       -0.528      863.692
01/27/2014  03:27:00      -95.077      -34.243      -12.484       29.528       20.323       15.078      871.926      413.006      227.342        0.594        0.076      101.056       15.140        0.022      331.586       -0.304      863.693
01/27/2014  03:28:00     -117.677      -44.037       -3.050       18.487       16.417       13.328      341.752      269.529      177.632        0.829        0.039      125.647       11.643        0.009      331.574       -0.323      863.693
01/27/2014  03:29:00      -88.599      -57.024       -9.255       13.406       15.109       10.198      179.729      228.292      103.991        0.585        0.026      105.364        6.682        0.004      331.689       -0.133      863.686
01/27/2014  03:30:00     -104.721      -55.335       -2.727       21.706       19.354       12.404      471.137      374.567      153.861        0.752        0.050      118.442       10.586        0.008      331.790        0.032      863.664
01/27/2014  03:31:00      -83.336      -23.853        0.658       24.507       15.681       13.166      600.574      245.903      173.348        0.427        0.051       86.682        8.873        0.010      331.730       -0.068      863.664
01/27/2014  03:32:00      -70.847      -33.877       -8.733       17.988       15.505       13.182      323.569      240.409      173.776        0.349        0.037       78.530        8.609        0.012      331.771        0.001      863.662
01/27/2014  03:33:00      -21.436      -38.379        6.399       19.470       14.605       16.629      379.072      213.302      276.524        0.142        0.043       43.960        6.878        0.024      331.805        0.058      863.662
01/27/2014  03:34:00      -51.428      -32.117       -2.399       24.845       16.243       14.878      617.257      263.820      221.349        0.239        0.055       60.632        9.602        0.025      331.688       -0.136      863.673
01/27/2014  03:35:00      -80.089      -53.559        0.663       28.247       21.561       17.406      797.914      464.862      302.955        0.542        0.078       96.347       15.107        0.025      331.657       -0.187      863.685
01/27/2014  03:36:00      -96.088      -34.302       -8.058       15.266       12.373        8.956      233.060      153.091       80.209        0.547        0.023      102.027        8.209        0.006      331.627       -0.236      863.704
01/27/2014  03:37:00     -103.834      -33.298       -9.574       16.969       18.309       13.143      287.959      335.206      172.748        0.639        0.040      109.043       10.290        0.009      331.625       -0.239      863.734
01/27/2014  03:38:00     -116.332      -30.222       -0.810       25.311       17.266       15.032      640.645      298.114      225.974        0.781        0.058      120.194       14.354        0.014      331.599       -0.281      863.771
01/27/2014  03:39:00      -98.350      -32.514       -4.650       34.326       20.483       13.160     1178.265      419.554      173.194        0.626        0.089      103.585       15.461        0.022      331.617       -0.252      863.803
01/27/2014  03:40:00      -58.633      -19.088        4.962       29.215       17.975       15.323      853.492      323.112      234.796        0.262        0.071       61.662       11.326        0.034      331.642       -0.210      863.811
01/27/2014  03:41:00      -81.935       -9.935       -0.786       21.886       14.856       13.867      479.007      220.686      192.289        0.385        0.045       82.535       11.995        0.021      331.567       -0.334      863.814
01/27/2014  03:42:00      -77.254      -14.288       -2.143       17.287       11.071        9.460      298.850      122.565       89.500        0.334        0.026       78.564        6.956        0.008      331.655       -0.189      863.804
01/27/2014  03:43:00      -67.069      -17.002       -3.334       18.536       10.041        8.652      343.597      100.821       74.860        0.266        0.026       69.191        7.768        0.013      331.705       -0.107      863.783
01/27/2014  03:44:00      -88.871      -19.983       -6.703       18.499       13.562        7.897      342.196      183.932       62.360        0.447        0.029       91.090        4.406        0.002      331.698       -0.118      863.776
01/27/2014  03:45:00     -100.984      -51.297       -1.658       13.009       11.339        8.804      169.246      128.567       77.519        0.660        0.019      113.266        4.786        0.002      331.687       -0.135      863.779
01/27/2014  03:46:00      -81.014      -27.837       -2.572       13.861       11.892        9.012      192.126      141.428       81.209        0.388        0.021       85.663        5.279        0.004      331.724       -0.076      863.776
01/27/2014  03:47:00      -74.739       -2.797       -8.043       23.014       13.490       11.604      529.627      181.980      134.645        0.325        0.042       74.791       11.954        0.026      331.732       -0.062      863.779
01/27/2014  03:48:00     -134.665        0.245      -16.398       20.247       16.127       13.200      409.957      260.093      174.240        0.962        0.042      134.665       10.735        0.006      331.653       -0.191      863.795
01/27/2014  03:49:00      -79.277       -5.552       -6.852       26.620       19.143       16.929      708.651      366.457      286.599        0.386        0.068       79.471       16.126        0.041      331.603       -0.276      863.813
01/27/2014  03:50:00      -86.159       -3.102      -10.551       12.129        7.910        9.141      147.122       62.562       83.558        0.392        0.015       86.215        4.041        0.002      331.728       -0.069      863.810
01/27/2014  03:51:00      -78.168        1.176       -9.164        5.450        6.944        4.372       29.705       48.224       19.111        0.315        0.005       78.176        2.003        0.001      331.813        0.070      863.813
01/27/2014  03:52:00      -89.368        3.111      -12.029       10.988       13.642        8.506      120.739      186.110       72.354        0.426        0.019       89.423        3.863        0.002      331.700       -0.115      863.808
01/27/2014  03:53:00      -84.835      -14.282      -13.308       23.540       12.702       15.813      554.124      161.347      250.065        0.427        0.048       86.029       16.474        0.037      331.530       -0.397      863.797
01/27/2014  03:54:00      -68.556       -9.986       -6.364       31.456       23.339       16.006      989.452      544.711      256.183        0.331        0.090       69.279       17.217        0.062      331.424       -0.570      863.778
01/27/2014  03:55:00      -52.322       -1.729       -1.310       30.382       23.264       15.143      923.036      541.198      229.304        0.222        0.085       52.351       13.524        0.067      331.348       -0.693      863.762
01/27/2014  03:56:00      -71.905        5.800      -12.003       20.006       13.368       14.192      400.250      178.691      201.423        0.306        0.039       72.138       11.944        0.027      331.385       -0.632      863.747
01/27/2014  03:57:00      -91.906        4.488      -19.524       20.346        8.260       10.592      413.965       68.227      112.180        0.472        0.030       92.016        6.889        0.006      331.439       -0.546      863.743
01/27/2014  03:58:00      -58.276       -8.331      -10.132        9.403       11.263        9.576       88.425      126.865       91.700        0.194        0.015       58.869        5.272        0.008      331.491       -0.461      863.761
01/27/2014  03:59:00      -48.422       -3.043      -15.302       14.562       13.778       12.056      212.042      189.840      145.336        0.157        0.027       48.518        6.001        0.015      331.519       -0.414      863.793
01/27/2014  04:00:00      -52.845      -12.235      -10.203        8.927       11.421        9.361       79.687      130.448       87.622        0.167        0.015       54.242        7.114        0.017      331.515       -0.419      863.822
01/27/2014  04:01:00      -71.052      -21.498       -8.895       13.539       15.919       10.466      183.297      253.416      109.543        0.307        0.027       74.233        4.513        0.004      331.467       -0.498      863.838
01/27/2014  04:02:00      -74.210      -27.807      -13.240       14.192       17.538       11.027      201.426      307.585      121.594        0.354        0.032       79.249        9.158        0.013      331.464       -0.504      863.842
01/27/2014  04:03:00      -79.430      -44.265      -14.429       12.077       10.072       10.069      145.860      101.450      101.375        0.441        0.017       90.932        5.972        0.004      331.596       -0.286      863.844
01/27/2014  04:04:00      -79.974      -21.364      -16.685       13.153       14.911       11.198      172.994      222.325      125.396        0.383        0.026       82.778        5.256        0.004      331.376       -0.649      863.846
01/27/2014  04:05:00      -63.680      -26.677      -15.384       16.549       14.279       18.446      273.853      203.902      340.272        0.291        0.041       69.043        8.538        0.015      331.323       -0.736      863.863
01/27/2014  04:06:00      -26.303      -25.442       -7.686       28.338       20.976       18.864      803.043      439.990      355.844        0.150        0.080       36.594       17.537        0.230      331.431       -0.560      863.879
01/27/2014  04:07:00        2.547      -34.171       12.868       15.978       21.253       19.264      255.286      451.697      371.117        0.121        0.054       34.266        9.549        0.078      331.380       -0.641      863.900
01/27/2014  04:08:00       16.232      -31.472       -6.972       17.575       22.303       10.471      308.890      497.424      109.632        0.111        0.046       35.411        7.789        0.048      331.541       -0.378      863.911
01/27/2014  04:09:00       -8.478      -14.311       -1.732       10.215       21.539        6.392      104.341      463.930       40.862        0.044        0.030       16.634        6.862        0.170      331.585       -0.304      863.912
01/27/2014  04:10:00      -26.499      -17.989       -8.832       15.357       15.854        9.532      235.827      251.351       90.864        0.084        0.029       32.028        8.239        0.066      331.523       -0.407      863.912
01/27/2014  04:11:00      -30.193      -29.559       -8.316       14.938       13.500        8.510      223.143      182.247       72.419        0.117        0.024       42.253        6.238        0.022      331.418       -0.581      863.916
01/27/2014  04:12:00      -36.661      -20.103       -5.820       14.971        9.911        8.176      224.143       98.221       66.852        0.109        0.019       41.811        6.087        0.021      331.485       -0.470      863.928
01/27/2014  04:13:00      -39.611       -2.440      -13.692       19.695       10.794       12.727      387.911      116.501      161.988        0.121        0.033       39.686       10.336        0.068      331.613       -0.258      863.940
01/27/2014  04:14:00       -9.704       -9.652       -3.835       11.545        6.309       11.089      133.293       39.804      122.967        0.025        0.015       13.687        9.239        0.456      331.849        0.129      863.956
01/27/2014  04:15:00       -1.030        7.558        2.568       14.339       10.949       10.518      205.614      119.878      110.634        0.025        0.022        7.628        4.935        0.419      332.132        0.597      863.956
01/27/2014  04:16:00      -13.721       -6.746        2.566       16.978       10.269        7.269      288.243      105.456       52.842        0.034        0.022       15.290        5.236        0.117      332.052        0.465      863.954
01/27/2014  04:17:00      -18.525       -9.367        2.291       14.254       16.775       11.138      203.174      281.397      124.062        0.052        0.030       20.758       10.120        0.238      331.915        0.238      863.950
01/27/2014  04:18:00      -10.631      -20.239       -1.533       11.314        9.071        8.683      128.013       82.290       75.392        0.041        0.014       22.861        6.377        0.078      331.730       -0.066      863.941
01/27/2014  04:19:00        1.850       -2.543        5.399       11.364       15.559        7.806      129.140      242.071       60.931        0.024        0.022        3.145        6.262        3.965      331.833        0.103      863.934
01/27/2014  04:20:00      -12.055        2.279        6.570        6.665        4.809        8.152       44.418       23.122       66.452        0.016        0.007       12.269        4.581        0.139      331.984        0.352      863.952
01/27/2014  04:21:00      -17.383       -6.385        6.517       13.236       10.048        7.672      175.191      100.962       58.861        0.036        0.017       18.518        6.797        0.135      331.861        0.150      863.971
01/27/2014  04:22:00      -30.635        2.212       -2.716        6.481        3.670        5.834       42.000       13.469       34.035        0.052        0.004       30.714        2.844        0.009      331.618       -0.250      863.989
01/27/2014  04:23:00      -26.292       -5.543        0.087        7.575        6.142        5.677       57.388       37.723       32.230        0.042        0.006       26.870        4.554        0.029      331.708       -0.103      863.988
01/27/2014  04:24:00      -15.884        1.280       13.980       18.728        9.001        8.285      350.734       81.023       68.649        0.047        0.025       15.935        8.307        0.272      331.827        0.094      863.993
01/27/2014  04:25:00      -21.418       -7.700       -1.636       10.220       10.444        8.909      104.447      109.074       79.376        0.041        0.015       22.760        5.872        0.067      331.660       -0.182      864.000
01/27/2014  04:26:00      -25.379       -1.305       -5.576        7.650        8.966        5.077       58.515       80.384       25.775        0.042        0.008       25.413        2.589        0.010      331.707       -0.104      864.007
01/27/2014  04:27:00      -10.404       -8.170       -1.386        7.696        7.072        4.298       59.226       50.019       18.475        0.015        0.006       13.228        3.439        0.068      331.641       -0.212      864.010
01/27/2014  04:28:00       -5.946        4.533        4.430        4.578        2.902        4.381       20.957        8.421       19.191        0.006        0.002        7.476        3.288        0.193      331.632       -0.227      864.016
01/27/2014  04:29:00       -0.611        5.364        3.448        4.878        4.652        4.312       23.799       21.640       18.597        0.005        0.003        5.399        2.986        0.306      331.656       -0.186      864.023
01/27/2014  04:30:00       -9.414       -0.620        5.486        6.531        2.864        3.795       42.656        8.201       14.406        0.009        0.003        9.434        1.744        0.034      331.618       -0.250      864.042
01/27/2014  04:31:00      -17.023       -0.216        3.583        8.070        5.403        4.795       65.130       29.190       22.997        0.021        0.006       17.024        4.616        0.074      331.581       -0.311      864.056
01/27/2014  04:32:00       15.228        9.392        7.261       12.906        6.663        4.788      166.565       44.399       22.929        0.030        0.012       17.891        4.181        0.055      331.686       -0.137      864.072
01/27/2014  04:33:00       32.690       18.643        1.923       12.614        6.453        9.060      159.115       41.637       82.091        0.085        0.014       37.632        3.341        0.008      331.651       -0.195      864.079
01/27/2014  04:34:00       16.702       16.953        2.221        9.497        8.678        8.922       90.192       75.307       79.606        0.041        0.012       23.799        7.272        0.093      331.606       -0.271      864.079
01/27/2014  04:35:00       14.432       12.608       -0.108        7.674        9.544        7.989       58.896       91.080       63.817        0.029        0.011       19.164        6.586        0.118      331.613       -0.259      864.073
01/27/2014  04:36:00       29.220       17.897        1.521        9.534        9.465        7.044       90.902       89.585       49.614        0.070        0.012       34.265        3.938        0.013      331.633       -0.225      864.067
01/27/2014  04:37:00       61.848       39.187        4.002        8.024        7.754        5.307       64.387       60.122       28.165        0.276        0.008       73.218        3.318        0.002      331.633       -0.223      864.058
01/27/2014  04:38:00       64.732       19.424        5.020       13.187       11.595        9.662      173.910      134.448       93.356        0.250        0.020       67.584        4.535        0.005      331.553       -0.357      864.063
01/27/2014  04:39:00       65.855       33.024        6.713       15.705       12.964       12.217      246.652      168.076      149.244        0.302        0.028       73.671        5.929        0.006      331.581       -0.312      864.083
01/27/2014  04:40:00       51.355       40.128        3.346       11.632        9.331       11.466      135.308       87.073      131.462        0.231        0.018       65.174        6.512        0.010      331.559       -0.347      864.112
01/27/2014  04:41:00       38.429       32.134        9.464       10.067        8.632        7.081      101.343       74.516       50.144        0.141        0.011       50.094        4.739        0.009      331.533       -0.390      864.128
01/27/2014  04:42:00       27.463       16.208       -2.578        7.833        6.240        3.108       61.354       38.934        9.659        0.057        0.005       31.889        2.884        0.008      331.683       -0.139      864.155
01/27/2014  04:43:00       12.617       12.047        1.372        8.431        5.292        4.696       71.087       28.001       22.054        0.021        0.006       17.445        4.493        0.066      331.735       -0.058      864.174
01/27/2014  04:44:00      -12.826        4.942       10.158       10.795       10.822        5.333      116.522      117.124       28.437        0.028        0.013       13.745        5.581        0.165      331.519       -0.414      864.187
01/27/2014  04:45:00       -2.583       -2.803        8.642        4.989       10.700        8.553       24.887      114.487       73.159        0.015        0.011        3.812        8.193        4.619      331.585       -0.305      864.189
01/27/2014  04:46:00       -9.529       -3.095        2.021        6.158        4.805        6.253       37.921       23.090       39.097        0.010        0.005       10.019        4.584        0.209      331.593       -0.292      864.192
01/27/2014  04:47:00      -39.717       -9.034       -4.254        8.692        8.526        5.745       75.559       72.698       33.003        0.093        0.009       40.732        6.160        0.023      331.452       -0.525      864.200
01/27/2014  04:48:00      -51.836       -9.074       -9.935        5.363        6.220        4.416       28.759       38.686       19.497        0.148        0.004       52.624        3.245        0.004      331.353       -0.687      864.206
01/27/2014  04:49:00      -52.940      -11.984       -9.010        6.346        8.164        5.011       40.277       66.653       25.106        0.158        0.007       54.279        3.347        0.004      331.382       -0.637      864.197
01/27/2014  04:50:00      -55.727       -6.226       -5.590        9.942        9.934        6.612       98.836       98.675       43.722        0.171        0.012       56.074        2.820        0.003      331.427       -0.566      864.192
01/27/2014  04:51:00      -69.626       -7.969       -7.819       21.202       16.229       11.802      449.508      263.387      139.285        0.291        0.043       70.080        8.210        0.014      331.356       -0.682      864.194
01/27/2014  04:52:00     -115.125       -4.742      -19.328       14.598        9.986        9.473      213.101       99.719       89.732        0.703        0.020      115.223        7.775        0.005      331.449       -0.530      864.196
01/27/2014  04:53:00      -90.648       -4.034       -8.607       26.982       13.498       14.225      728.049      182.189      202.357        0.471        0.056       90.738       14.002        0.024      331.427       -0.565      864.194
01/27/2014  04:54:00      -98.656        1.876      -12.086       18.862       14.616       11.263      355.758      213.628      126.850        0.529        0.035       98.674       11.189        0.013      331.431       -0.560      864.209
01/27/2014  04:55:00      -91.080       -5.961      -12.683       20.353       16.549       12.118      414.250      273.870      146.857        0.466        0.042       91.275        9.619        0.011      331.432       -0.557      864.226
01/27/2014  04:56:00      -79.338       -9.557      -12.982       20.711       15.035       12.655      428.954      226.046      160.160        0.368        0.041       79.912       11.241        0.020      331.201       -0.937      864.241
01/27/2014  04:57:00      -49.414      -34.367       -7.526       19.630       18.712       14.342      385.334      350.124      205.689        0.231        0.047       60.190       11.622        0.037      331.104       -1.096      864.243
01/27/2014  04:58:00      -62.587      -21.433       -9.784       15.640       16.832       10.354      244.600      283.307      107.204        0.255        0.032       66.155        8.202        0.015      331.111       -1.084      864.240
01/27/2014  04:59:00      -55.177       -9.179       -3.943       14.745       14.459       12.595      217.429      209.062      158.623        0.186        0.029       55.935        8.456        0.023      331.138       -1.040      864.234
01/27/2014  05:00:00      -74.475        7.582       -8.245       14.242       10.987        9.036      202.846      120.722       81.650        0.304        0.020       74.860        9.583        0.016      331.352       -0.688      864.234
01/27/2014  05:01:00      -68.766        8.621      -12.966       11.950       14.600        9.857      142.804      213.155       97.162        0.271        0.023       69.304        8.985        0.017      331.304       -0.768      864.243
01/27/2014  05:02:00      -53.476       15.464       -7.043       13.965       25.668       11.558      195.009      658.839      133.578        0.207        0.049       55.667        8.709        0.024      331.480       -0.477      864.252
01/27/2014  05:03:00      -53.005      -12.077       -7.852       14.225       20.540        9.937      202.363      421.886       98.747        0.187        0.036       54.363        7.953        0.021      331.561       -0.345      864.258
01/27/2014  05:04:00      -61.535      -31.676      -11.721       10.534       13.438        8.134      110.971      180.567       66.162        0.264        0.018       69.209        4.256        0.004      331.405       -0.601      864.261
01/27/2014  05:05:00      -62.958      -28.596      -12.499       18.932       16.642       10.207      358.407      276.955      104.189        0.284        0.037       69.148       10.701        0.024      331.281       -0.805      864.252
01/27/2014  05:06:00      -86.279       -7.878      -15.035       18.489       15.363       12.067      341.825      236.017      145.608        0.423        0.036       86.638        9.672        0.012      331.124       -1.064      864.225
01/27/2014  05:07:00      -63.295      -15.627      -14.063       15.280       10.852        9.015      233.467      117.775       81.266        0.244        0.022       65.196        4.658        0.005      331.170       -0.988      864.203
01/27/2014  05:08:00      -70.180      -36.225       -8.382       19.512       26.384       18.484      380.727      696.094      341.646        0.386        0.071       78.978       14.356        0.033      331.191       -0.954      864.194
01/27/2014  05:09:00      -88.325      -51.325       -5.927       30.000       27.085       18.822      899.980      733.619      354.266        0.623        0.099      102.154       15.001        0.022      331.061       -1.168      864.186
01/27/2014  05:10:00      -70.422      -27.598       -3.815       21.122       20.325       13.631      446.145      413.115      185.810        0.339        0.052       75.637        9.307        0.015      331.042       -1.199      864.182
01/27/2014  05:11:00      -25.862      -12.826       -7.657       31.138       27.325       17.563      969.551      746.672      308.460        0.146        0.101       28.868       17.520        0.368      331.223       -0.901      864.185
01/27/2014  05:12:00      -31.173      -20.667       -5.374       38.289       35.186       14.500     1466.053     1238.053      210.242        0.217        0.146       37.401       10.362        0.077      331.334       -0.718      864.193
01/27/2014  05:13:00      -75.517       17.726       -6.762       62.100       36.804       24.761     3856.365     1354.512      613.085        0.594        0.291       77.570       33.228        0.183      331.467       -0.499      864.202
01/27/2014  05:14:00      -49.350       27.790      -10.241       33.532       29.605       20.998     1124.371      876.478      440.918        0.288        0.122       56.637       17.989        0.101      331.723       -0.079      864.207
01/27/2014  05:15:00      -34.717        9.742        0.519       10.377       14.383        8.350      107.687      206.860       69.724        0.084        0.019       36.058        5.969        0.027      332.164        0.649      864.206
01/27/2014  05:16:00      -79.702      -28.604      -12.362       29.343       20.334        9.120      861.003      413.467       83.167        0.434        0.068       84.680       12.598        0.022      331.584       -0.307      864.210
01/27/2014  05:17:00     -139.971      -27.603      -16.145       29.803       22.554       17.587      888.207      508.691      309.301        1.116        0.085      142.667       13.379        0.009      331.160       -1.004      864.218
01/27/2014  05:18:00      -88.669      -34.043       -9.007       29.392       21.296       17.743      863.864      453.524      314.818        0.537        0.082       94.980       15.386        0.026      331.149       -1.023      864.220
01/27/2014  05:19:00     -133.037       -7.140      -11.469       39.617       35.236       25.431     1569.469     1241.596      646.727        1.067        0.173      133.228       17.653        0.018      331.179       -0.972      864.207
01/27/2014  05:20:00      -84.329       -9.896       -2.069       57.318       32.332       21.389     3285.374     1045.375      457.494        0.600        0.239       84.907       27.715        0.107      331.141       -1.036      864.200
01/27/2014  05:21:00      -47.816      -36.793        3.581       35.705       29.362       19.476     1274.860      862.124      379.306        0.308        0.126       60.333       15.255        0.064      331.319       -0.742      864.182
01/27/2014  05:22:00      -48.915       -9.477       -4.871       36.616       19.092       15.928     1340.754      364.520      253.704        0.223        0.098       49.825       14.982        0.090      331.443       -0.540      864.172
01/27/2014  05:23:00      -43.372      -18.944       -0.876       24.238       27.485       16.281      587.467      755.410      265.057        0.192        0.080       47.328       12.983        0.075      331.479       -0.480      864.178
01/27/2014  05:24:00      -24.541        5.326       -6.405       20.366       22.168       15.117      414.787      491.400      228.509        0.090        0.057       25.113        8.751        0.121      331.628       -0.234      864.172
01/27/2014  05:25:00      -22.087      -22.067       -1.499       19.270       17.831       14.218      371.337      317.930      202.141        0.093        0.045       31.222       10.027        0.103      331.581       -0.310      864.158
01/27/2014  05:26:00      -30.699      -32.265        0.585       36.242       14.266       16.027     1313.470      203.508      256.852        0.188        0.089       44.536       19.365        0.189      331.594       -0.289      864.158
01/27/2014  05:27:00      -56.869      -44.040      -10.990       35.068       23.063       14.237     1229.767      531.883      202.683        0.363        0.098       71.928       16.396        0.052      331.585       -0.305      864.165
01/27/2014  05:28:00      -40.264      -30.897       -1.309       32.679       22.408       14.743     1067.927      502.111      217.354        0.218        0.089       50.752       15.101        0.089      331.456       -0.517      864.175
01/27/2014  05:29:00      -64.060      -15.223       -9.955       14.124       15.243        9.257      199.478      232.354       85.686        0.248        0.026       65.844        7.113        0.012      331.473       -0.490      864.181
01/27/2014  05:30:00      -82.185      -39.428       -7.015       15.978       23.994       12.435      255.294      575.734      154.622        0.467        0.049       91.153        8.999        0.010      331.438       -0.548      864.198
01/27/2014  05:31:00     -112.090      -22.312      -10.731       17.225       24.575       14.852      296.691      603.940      220.573        0.715        0.056      114.289       11.313        0.010      331.352       -0.687      864.208
01/27/2014  05:32:00      -94.530      -23.891      -11.430       21.336       18.337       12.250      455.240      336.234      150.067        0.529        0.047       97.502       10.884        0.012      331.303       -0.768      864.213
01/27/2014  05:33:00      -71.160      -15.289       -7.391       11.081        8.700        8.436      122.799       75.691       71.166        0.281        0.013       72.784        4.790        0.004      331.369       -0.658      864.206
01/27/2014  05:34:00      -77.406      -16.617      -12.605       25.048       10.987       11.350      627.390      120.710      128.823        0.365        0.044       79.169       11.644        0.022      331.508       -0.432      864.215
01/27/2014  05:35:00     -127.243      -29.041      -19.106       10.815       14.165       10.725      116.955      200.657      115.029        0.892        0.022      130.515        5.581        0.002      331.375       -0.650      864.230
01/27/2014  05:36:00      -65.083      -34.201       -8.211       35.502       20.211       13.659     1260.420      408.487      186.572        0.366        0.093       73.522       11.996        0.027      331.327       -0.730      864.249
01/27/2014  05:37:00      -51.893      -40.509       -6.258       28.681       24.839       18.500      822.619      616.970      342.232        0.308        0.089       65.832       13.693        0.043      331.349       -0.692      864.244
01/27/2014  05:38:00      -84.377      -33.476      -15.052       12.524       23.083       10.908      156.841      532.803      118.981        0.464        0.040       90.775        8.466        0.009      331.234       -0.881      864.236
01/27/2014  05:39:00      -92.952      -11.525       -4.539       22.728       22.386       15.197      516.578      501.119      230.943        0.502        0.062       93.664       10.726        0.013      331.214       -0.914      864.219
01/27/2014  05:40:00     -127.177      -38.653       -4.710       25.711       17.278       17.327      661.079      298.527      300.220        0.947        0.063      132.921       16.251        0.015      331.198       -0.940      864.211
01/27/2014  05:41:00      -99.509      -16.917       -0.109       37.531       22.129       18.415     1408.541      489.682      339.103        0.621        0.112      100.937       17.743        0.031      331.249       -0.858      864.204
01/27/2014  05:42:00      -33.002      -13.807        3.066       25.242       16.965       16.239      637.144      287.818      263.710        0.124        0.059       35.774       14.555        0.166      331.262       -0.836      864.191
01/27/2014  05:43:00      -58.140       -9.908        1.775       29.990       13.352       13.163      899.372      178.275      173.276        0.237        0.063       58.979       14.001        0.056      331.181       -0.970      864.198
01/27/2014  05:44:00     -108.806        1.471       -8.766       32.169       21.565       18.605     1034.863      465.053      346.143        0.688        0.092      108.816       16.333        0.023      331.104       -1.096      864.226
01/27/2014  05:45:00      -48.543      -11.886       -2.926       19.333       15.050       12.628      373.746      226.517      159.464        0.163        0.038       49.977        6.762        0.018      331.175       -0.981      864.256
01/27/2014  05:46:00      -46.269       15.563       -4.154       21.533        9.792        8.391      463.667       95.875       70.410        0.151        0.031       48.816        9.383        0.037      331.248       -0.859      864.280
01/27/2014  05:47:00      -48.844       34.754      -12.636       15.006       28.058       12.871      225.193      787.244      165.657        0.247        0.059       59.946       12.062        0.040      331.287       -0.794      864.305
01/27/2014  05:48:00      -50.858       58.362       -9.291       23.956       26.330       17.815      573.893      693.279      317.387        0.383        0.079       77.413       17.840        0.053      331.257       -0.844      864.333
01/27/2014  05:49:00      -24.919       31.547        1.402       16.196       19.770       15.560      262.296      390.860      242.128        0.126        0.045       40.201       12.735        0.100      331.310       -0.758      864.347
01/27/2014  05:50:00       11.055        0.641        9.922       11.890        5.219        5.943      141.382       27.238       35.314        0.021        0.010       11.074        4.366        0.155      331.389       -0.628      864.346
01/27/2014  05:51:00      -47.667      -17.578       -8.670       33.779       10.576        8.197     1141.025      111.861       67.185        0.199        0.066       50.804        7.298        0.021      331.305       -0.767      864.347
01/27/2014  05:52:00      -98.516      -35.358       -8.745       13.496       22.926       11.833      182.133      525.611      140.030        0.594        0.042      104.669        7.469        0.005      331.126       -1.061      864.348
01/27/2014  05:53:00      -87.678      -14.105      -10.558       24.359       15.014       13.733      593.369      225.428      188.585        0.450        0.050       88.805       11.411        0.017      331.031       -1.217      864.349
01/27/2014  05:54:00      -83.015       -1.654       -8.552       13.212        8.771        8.157      174.552       76.932       66.537        0.364        0.016       83.031        7.017        0.007      331.077       -1.142      864.339
01/27/2014  05:55:00      -68.668      -15.009       -7.389        9.946        9.113        6.265       98.919       83.050       39.250        0.261        0.011       70.289        3.358        0.002      331.303       -0.768      864.337
01/27/2014  05:56:00      -37.962      -15.527        0.377       14.584       10.953        9.537      212.686      119.978       90.962        0.105        0.021       41.015        7.598        0.034      331.347       -0.697      864.334
01/27/2014  05:57:00      -76.634      -26.559       -7.079       20.687       14.856        8.903      427.932      220.714       79.265        0.368        0.036       81.106        8.788        0.012      331.226       -0.895      864.335
01/27/2014  05:58:00      -99.135      -15.613      -13.308       16.622       14.692       11.062      276.297      215.841      122.377        0.543        0.031      100.357        8.079        0.006      331.096       -1.110      864.347
01/27/2014  05:59:00     -106.881       -8.547      -14.743       10.071        6.904        6.580      101.430       47.660       43.298        0.595        0.010      107.222        4.879        0.002      331.196       -0.944      864.351
01/27/2014  06:00:00      -52.735       -4.012       -3.620       23.379       12.492       12.497      546.566      156.041      156.180        0.183        0.043       52.887       15.263        0.083      331.276       -0.812      864.350
01/27/2014  06:01:00      -58.864      -18.471       -4.333       12.114       11.031        6.455      146.743      121.690       41.663        0.207        0.016       61.694        4.231        0.005      331.354       -0.685      864.352
01/27/2014  06:02:00      -85.249       -7.748       -5.546       15.708       14.321       12.754      246.741      205.077      162.657        0.399        0.031       85.600        9.281        0.012      331.191       -0.954      864.359
01/27/2014  06:03:00      -49.631      -14.680       -3.250       21.720       15.573       13.797      471.766      242.530      190.351        0.180        0.045       51.756       13.251        0.066      331.242       -0.869      864.366
01/27/2014  06:04:00      -85.785       -5.313      -10.916       10.249        7.402        9.397      105.043       54.795       88.311        0.388        0.012       85.949        6.586        0.006      331.241       -0.871      864.356
01/27/2014  06:05:00      -82.170      -14.488       -9.588       15.340       11.619       10.667      235.329      135.005      113.791        0.377        0.024       83.438        7.082        0.007      331.367       -0.663      864.339
01/27/2014  06:06:00     -106.235      -22.644      -14.567       11.448       18.770        9.412      131.067      352.320       88.587        0.629        0.029      108.622        4.587        0.002      331.223       -0.901      864.324
01/27/2014  06:07:00      -90.607      -35.908       -2.911       18.097       17.258       13.484      327.502      297.824      181.828        0.516        0.040       97.463       10.877        0.012      331.152       -1.017      864.321
01/27/2014  06:08:00      -87.341      -37.844       -9.920       12.982       13.487        8.908      168.527      181.907       79.358        0.479        0.021       95.188        5.295        0.003      331.108       -1.089      864.326
01/27/2014  06:09:00      -86.816      -13.876       -8.685       15.266       13.944       11.764      233.042      194.430      138.383        0.419        0.028       87.918        8.084        0.008      331.140       -1.036      864.331
01/27/2014  06:10:00      -78.256       -8.859       -4.401       19.574       12.087       11.625      383.153      146.090      135.131        0.344        0.033       78.756       12.168        0.024      331.156       -1.011      864.347
01/27/2014  06:11:00      -72.002       -9.438       -4.361       25.911       14.450       14.579      671.357      208.812      212.554        0.319        0.055       72.618       13.338        0.034      331.110       -1.087      864.380
01/27/2014  06:12:00      -92.784        1.942       -4.899       29.876       13.204       15.217      892.587      174.348      231.569        0.497        0.065       92.804       18.041        0.038      331.114       -1.078      864.421
01/27/2014  06:13:00      -90.522        4.535      -10.797       20.152       13.045        9.623      406.099      170.167       92.598        0.450        0.033       90.635        7.414        0.007      331.211       -0.920      864.468
01/27/2014  06:14:00      -61.830        8.689       -8.270       15.956       16.070       12.715      254.580      258.249      161.661        0.232        0.034       62.437        7.184        0.013      331.214       -0.915      864.508
01/27/2014  06:15:00      -54.157      -19.078       -6.721       19.126       14.479        9.763      365.818      209.641       95.321        0.201        0.034       57.419        6.473        0.013      331.214       -0.916      864.528
01/27/2014  06:16:00      -51.399      -15.993       -4.034       30.888       24.964       14.705      954.087      623.205      216.227        0.235        0.090       53.830       16.040        0.089      331.218       -0.907      864.526
01/27/2014  06:17:00      -36.068       -3.151       -3.813       25.415       13.813       12.441      645.916      190.786      154.790        0.116        0.050       36.206       12.630        0.122      331.185       -0.963      864.524
01/27/2014  06:18:00      -82.953       -9.150      -10.168       18.835       15.403       12.217      354.775      237.256      149.256        0.390        0.037       83.456        9.808        0.014      331.078       -1.139      864.539
01/27/2014  06:19:00      -88.405      -13.146      -13.731       23.309       13.182       11.651      543.322      173.760      135.740        0.451        0.043       89.377        7.250        0.007      331.051       -1.183      864.567
01/27/2014  06:20:00      -60.505      -14.543       -7.806       13.233       14.294       10.706      175.125      204.320      114.610        0.221        0.025       62.228        8.212        0.017      331.050       -1.185      864.583
01/27/2014  06:21:00      -56.395      -13.864       -5.198       10.064       13.207        9.179      101.276      174.420       84.262        0.188        0.018       58.074        7.388        0.016      331.184       -0.965      864.598
01/27/2014  06:22:00      -84.938      -16.709      -13.234       15.992       12.241        9.153      255.734      149.846       83.769        0.408        0.024       86.566        6.596        0.006      331.063       -1.164      864.618
01/27/2014  06:23:00      -88.974       -8.644      -17.523       13.410       12.791        7.990      179.824      163.616       63.833        0.435        0.020       89.392        5.210        0.003      330.887       -1.452      864.644
01/27/2014  06:24:00      -57.127       -4.953       -9.964       25.388       20.749       15.331      644.526      430.505      235.042        0.235        0.066       57.341       15.697        0.075      330.923       -1.394      864.652
01/27/2014  06:25:00      -52.448      -27.963       -2.520       28.935       22.874       17.914      837.210      523.232      320.928        0.261        0.084       59.437       13.359        0.051      331.032       -1.217      864.651
01/27/2014  06:26:00      -82.530      -49.262       -5.358       43.289       29.100       23.421     1873.923      846.829      548.526        0.627        0.163       96.114       20.968        0.048      331.087       -1.124      864.648
01/27/2014  06:27:00     -118.309      -51.325       -1.016       41.030       42.857       21.063     1683.497     1836.688      443.667        1.030        0.198      128.963       14.475        0.013      331.082       -1.133      864.655
01/27/2014  06:28:00     -106.870       19.618      -12.481       42.377       36.630       20.623     1795.795     1341.752      425.297        0.776        0.178      108.656       20.320        0.035      331.191       -0.953      864.648
01/27/2014  06:29:00      -80.305       -7.106       -4.922       41.990       32.035       24.866     1763.150     1026.223      618.301        0.497        0.170       80.619       24.891        0.095      331.251       -0.854      864.635
01/27/2014  06:30:00     -105.365      -34.416       -2.070       25.834       31.346       18.782      667.409      982.574      352.778        0.715        0.100      110.843       13.312        0.014      331.208       -0.924      864.631
01/27/2014  06:31:00     -112.931      -16.215       -0.283       32.457       35.756       23.242     1053.427     1278.496      540.171        0.794        0.144      114.089       22.201        0.038      331.208       -0.925      864.633
01/27/2014  06:32:00      -21.052        8.496        1.502       34.137       19.788       19.476     1165.360      391.570      379.325        0.123        0.097       22.702       10.747        0.224      331.271       -0.822      864.627
01/27/2014  06:33:00      -27.470      -17.200       -1.406       20.702       16.561        8.430      428.585      274.275       71.061        0.091        0.039       32.411        9.835        0.092      331.675       -0.157      864.613
01/27/2014  06:34:00     -122.430      -28.933      -11.420       26.594       26.356       13.943      707.262      694.633      194.412        0.878        0.080      125.802       11.678        0.009      331.278       -0.808      864.607
01/27/2014  06:35:00      -42.819        8.684        0.687       27.560       25.349       13.283      759.574      642.581      176.435        0.174        0.079       43.691       13.494        0.095      331.282       -0.804      864.599
01/27/2014  06:36:00      -19.749       18.411       -0.368       11.291       14.678        7.818      127.491      215.440       61.117        0.057        0.020       27.000        6.436        0.057      331.813        0.071      864.591
01/27/2014  06:37:00      -76.452      -22.952      -10.464       17.346       14.327        7.457      300.870      205.269       55.612        0.352        0.028       79.823        5.158        0.004      331.346       -0.699      864.621
01/27/2014  06:38:00      -94.268        0.904      -10.173       22.317       20.977       14.758      498.056      440.032      217.805        0.507        0.058       94.272       12.146        0.017      331.137       -1.043      864.649
01/27/2014  06:39:00      -62.752       -3.767      -10.820       13.244       15.074        9.961      175.394      227.227       99.215        0.229        0.025       62.865        3.390        0.003      331.296       -0.781      864.681
01/27/2014  06:40:00      -80.324      -25.996      -10.715       10.540       12.888       10.766      111.099      166.099      115.908        0.382        0.020       84.426        5.104        0.004      331.130       -1.054      864.737
01/27/2014  06:41:00     -125.341      -31.215      -15.860       28.604       28.835       19.233      818.206      831.469      369.897        0.948        0.101      129.170       11.376        0.008      331.056       -1.175      864.788
01/27/2014  06:42:00      -88.931       -8.348      -12.628       24.383       21.911       11.754      594.512      480.074      138.161        0.468        0.061       89.322       10.708        0.014      331.010       -1.251      864.806
01/27/2014  06:43:00      -88.523      -15.443      -14.770       12.891       18.662       11.600      166.184      348.280      134.566        0.447        0.032       89.860       10.368        0.013      331.073       -1.148      864.820
01/27/2014  06:44:00     -133.294      -46.308       -4.567       53.736       33.538       20.588     2887.608     1124.804      423.851        1.218        0.222      141.108       25.728        0.033      331.047       -1.190      864.848
01/27/2014  06:45:00     -129.715      -33.090       -1.835       50.824       37.437       26.816     2583.051     1401.508      719.101        1.131        0.235      133.869       22.565        0.028      330.989       -1.285      864.875
01/27/2014  06:46:00      -93.399       -8.786        5.652       67.456       41.749       31.762     4550.261     1742.991     1008.819        0.807        0.365       93.812       37.240        0.158      330.953       -1.342      864.882
01/27/2014  06:47:00      -64.988      -10.340       -4.057       55.422       36.262       23.207     3071.616     1314.903      538.584        0.464        0.246       65.805       22.210        0.114      330.988       -1.286      864.906
01/27/2014  06:48:00      -71.362      -52.464       -1.843       34.874       29.785       18.025     1216.188      887.163      324.891        0.514        0.121       88.572       15.083        0.029      331.108       -1.088      864.912
01/27/2014  06:49:00      -23.345      -15.038       -0.575       20.288       19.489       14.160      411.595      379.802      200.514        0.088        0.050       27.769        8.137        0.086      331.149       -1.021      864.906
01/27/2014  06:50:00      -18.171      -20.414       -6.354       21.545       12.731       19.438      464.191      162.066      377.836        0.090        0.050       27.329       12.256        0.201      331.168       -0.991      864.900
01/27/2014  06:51:00      -46.026      -27.982      -14.308       48.431       26.360       17.097     2345.591      694.863      292.298        0.322        0.167       53.865       23.737        0.194      331.151       -1.018      864.895
01/27/2014  06:52:00      -68.610      -11.920       -8.544       19.261       15.875       14.104      371.005      252.003      198.926        0.287        0.041       69.637       10.186        0.021      331.085       -1.129      864.899
01/27/2014  06:53:00      -49.823       -9.912       -3.045       17.765       29.853       15.932      315.595      891.200      253.838        0.202        0.073       50.799       17.220        0.115      331.072       -1.148      864.909
01/27/2014  06:54:00      -58.594       -1.738       -8.247       19.628       16.244        7.887      385.254      263.883       62.199        0.211        0.036       58.620        8.158        0.019      331.094       -1.113      864.912
01/27/2014  06:55:00       -3.837      -25.837       -0.428       13.175       13.818       10.002      173.570      190.933      100.046        0.057        0.023       26.121        5.335        0.042      331.322       -0.737      864.898
01/27/2014  06:56:00       -4.059      -46.868       -4.966       10.115       10.666       11.146      102.309      113.774      124.228        0.129        0.017       47.043        5.914        0.016      331.357       -0.680      864.884
01/27/2014  06:57:00       -6.779      -32.498       -4.190       10.904       14.315        9.491      118.895      204.918       90.080        0.077        0.021       33.197        7.611        0.053      331.339       -0.710      864.868
01/27/2014  06:58:00      -46.996      -11.365       -6.885       11.560        9.841        8.635      133.632       96.836       74.564        0.135        0.015       48.350        5.156        0.011      331.232       -0.886      864.865
01/27/2014  06:59:00      -46.562      -13.865       -7.107        8.129        8.776        7.059       66.086       77.021       49.828        0.130        0.010       48.582        3.527        0.005      331.195       -0.946      864.874
01/27/2014  07:00:00      -33.575      -12.279       -1.075       10.412        7.052        5.233      108.406       49.737       27.384        0.073        0.009       35.750        2.225        0.004      331.191       -0.953      864.903
01/27/2014  07:01:00      -23.873      -17.745        3.347        9.779       11.704        9.350       95.630      136.992       87.420        0.061        0.016       29.745        2.689        0.008      331.303       -0.769      864.941
01/27/2014  07:02:00      -20.551      -41.261       -1.682       13.646       23.090        9.267      186.200      533.144       85.869        0.147        0.040       46.096        6.757        0.021      331.492       -0.458      864.985
01/27/2014  07:03:00      -11.820      -17.595        8.295        9.749        9.618       11.688       95.037       92.501      136.617        0.042        0.016       21.196        9.097        0.184      331.403       -0.604      865.017
01/27/2014  07:04:00      -18.893      -12.797        2.901        8.872        7.279        7.242       78.719       52.984       52.445        0.036        0.009       22.819        4.435        0.038      331.308       -0.761      865.046
01/27/2014  07:05:00      -39.943       -2.530       -5.422       13.943        6.434        7.205      194.410       41.392       51.907        0.096        0.014       40.023        3.665        0.008      331.275       -0.813      865.070
01/27/2014  07:06:00      -66.375        1.250       -9.404       15.943        8.210        8.156      254.194       67.408       66.528        0.244        0.019       66.387        6.310        0.009      331.211       -0.918      865.084
01/27/2014  07:07:00     -106.439       -2.120      -14.850        9.537        8.025        7.221       90.957       64.396       52.139        0.588        0.010      106.460        3.024        0.001      331.151       -1.019      865.080
01/27/2014  07:08:00      -68.610       -9.250       -9.763       17.950       11.701        9.560      322.205      136.904       91.395        0.272        0.028       69.231        9.725        0.020      331.207       -0.926      865.053
01/27/2014  07:09:00      -62.041      -19.173       -7.889       17.290       10.107        6.654      298.960      102.150       44.274        0.236        0.022       64.936        5.177        0.006      331.135       -1.045      865.019
01/27/2014  07:10:00      -74.827      -27.419       -9.234       17.371       19.725       10.713      301.752      389.070      114.777        0.362        0.040       79.693        9.182        0.013      331.111       -1.084      864.992
01/27/2014  07:11:00      -77.650       -3.485       -6.873       21.115       11.926       12.387      445.837      142.238      153.436        0.342        0.037       77.728       10.454        0.018      331.117       -1.075      864.973
01/27/2014  07:12:00      -73.039      -17.202       -8.503       18.083       20.379       12.358      326.985      415.313      152.721        0.330        0.045       75.037        7.889        0.011      331.140       -1.037      864.960
01/27/2014  07:13:00     -110.777      -15.089       -6.728       21.222       19.455       14.039      450.361      378.500      197.085        0.679        0.051      111.800       10.756        0.009      331.070       -1.153      864.961
01/27/2014  07:14:00      -83.416      -20.191       -9.559       18.740       13.951       14.665      351.178      194.639      215.050        0.411        0.038       85.825       12.208        0.020      331.071       -1.152      864.953
01/27/2014  07:15:00      -48.864      -12.253        0.875       22.876       16.693       12.656      523.329      278.642      160.169        0.175        0.048       50.377       14.369        0.081      331.131       -1.052      864.926
01/27/2014  07:16:00      -27.541       14.342        4.960       14.899       13.035       12.516      221.973      169.900      156.642        0.077        0.027       31.051        9.342        0.091      331.165       -0.997      864.904
01/27/2014  07:17:00      -48.625       19.419       -6.759        7.058        7.811        4.857       49.810       61.006       23.591        0.146        0.007       52.359        3.521        0.005      331.258       -0.843      864.895
01/27/2014  07:18:00      -51.162        5.753       -8.429       11.117        9.238        6.656      123.579       85.344       44.305        0.149        0.013       51.485        4.791        0.009      331.299       -0.776      864.899
01/27/2014  07:19:00      -39.605      -15.963        0.366       13.492       13.303        9.426      182.044      176.978       88.851        0.114        0.022       42.701        6.027        0.020      331.315       -0.748      864.904
01/27/2014  07:20:00      -21.799       -3.898       -4.891       10.878       15.589        4.813      118.336      243.022       23.161        0.045        0.019       22.145        4.649        0.044      331.300       -0.774      864.907
01/27/2014  07:21:00      -17.052       16.578       -6.114        4.938        4.343        4.113       24.384       18.860       16.918        0.033        0.003       23.783        2.179        0.008      331.395       -0.617      864.903
01/27/2014  07:22:00      -43.899       13.049       -0.644       17.412        7.501        7.684      303.163       56.263       59.049        0.126        0.021       45.798        3.722        0.007      331.398       -0.613      864.915
01/27/2014  07:23:00      -55.132      -13.894       -4.682       12.037       14.529        9.510      144.893      211.083       90.445        0.185        0.022       56.855        4.123        0.005      331.299       -0.774      864.931
01/27/2014  07:24:00      -46.833       -8.460       -7.114       11.336        9.440        7.557      128.497       89.115       57.103        0.130        0.014       47.591        4.738        0.010      331.205       -0.927      864.943
01/27/2014  07:25:00      -57.615       -4.986       -9.978       13.331        9.925        7.256      177.705       98.513       52.643        0.189        0.016       57.830        6.649        0.013      331.240       -0.873      864.944
01/27/2014  07:26:00      -52.879        2.663       -3.417       11.010        8.355        7.266      121.227       69.808       52.795        0.153        0.012       52.946        4.314        0.007      331.382       -0.638      864.927
01/27/2014  07:27:00      -49.090      -11.818       -8.005       11.780        8.433        6.176      138.758       71.123       38.143        0.143        0.012       50.493        5.677        0.013      331.430       -0.560      864.906
01/27/2014  07:28:00      -31.743      -21.522       -3.186       23.949       14.544       10.665      573.573      211.539      113.737        0.119        0.045       38.351        9.556        0.062      331.312       -0.755      864.877
01/27/2014  07:29:00      -20.530      -12.099       -2.991       20.390       10.738       20.201      415.759      115.296      408.066        0.076        0.047       23.830       19.237        0.652      331.336       -0.715      864.856
01/27/2014  07:30:00      -40.316        3.339       -6.914        6.774        7.819        6.261       45.881       61.140       39.201        0.092        0.007       40.454        1.713        0.002      331.347       -0.696      864.849
01/27/2014  07:31:00      -29.498       -0.694       -0.638        8.768        4.793        3.802       76.873       22.970       14.457        0.049        0.006       29.506        2.415        0.007      331.393       -0.620      864.861
01/27/2014  07:32:00      -27.536        0.828       -4.525        4.389        3.080        3.346       19.266        9.487       11.193        0.041        0.002       27.549        1.189        0.002      331.425       -0.571      864.876
01/27/2014  07:33:00      -36.693        3.564       -4.067        4.894        5.145        3.976       23.947       26.474       15.812        0.072        0.003       36.865        2.081        0.003      331.360       -0.672      864.885
01/27/2014  07:34:00      -27.419       -4.505       -8.777        7.159        5.056        3.875       51.257       25.564       15.019        0.047        0.005       27.786        2.124        0.006      331.460       -0.512      864.901
01/27/2014  07:35:00       -9.370       -8.049        3.031        8.124        7.466        6.785       65.999       55.736       46.037        0.016        0.008       12.353        5.406        0.192      331.536       -0.386      864.891
01/27/2014  07:36:00        2.055       -1.718        7.898        4.383        5.784        6.527       19.207       33.457       42.606        0.008        0.005        2.678        4.031        2.265      331.808        0.062      864.890
01/27/2014  07:37:00      -11.278       -0.117        7.476        7.718        5.376        6.386       59.565       28.903       40.776        0.016        0.006       11.278        5.822        0.266      331.721       -0.082      864.889
01/27/2014  07:38:00      -33.272        9.635       -4.930        9.334        6.197        4.418       87.127       38.399       19.519        0.068        0.007       34.639        1.788        0.003      331.463       -0.507      864.905
01/27/2014  07:39:00      -54.183        6.375       -5.805        6.843        5.957        6.044       46.830       35.489       36.531        0.156        0.006       54.557        2.815        0.003      331.317       -0.744      864.946
01/27/2014  07:40:00      -56.521        2.263      -11.472        7.625        7.746        7.581       58.144       59.996       57.470        0.175        0.009       56.566        3.924        0.005      331.294       -0.784      864.976
01/27/2014  07:41:00      -36.118      -15.305      -10.858        9.448        9.076        5.847       89.265       82.371       34.188        0.093        0.010       39.227        6.254        0.025      331.329       -0.724      865.012
01/27/2014  07:42:00      -42.846      -28.662       -7.558       13.067       10.212        8.573      170.740      104.282       73.495        0.153        0.017       51.549        5.422        0.011      331.362       -0.670      865.043
01/27/2014  07:43:00      -58.978      -24.420       -4.961        7.184       11.096        9.762       51.610      123.130       95.301        0.218        0.014       63.834        1.378        0.000      331.319       -0.741      865.065
01/27/2014  07:44:00      -59.169       -9.003       -8.906       16.551        9.682        7.902      273.950       93.750       62.436        0.205        0.022       59.850        7.615        0.016      331.278       -0.810      865.103
01/27/2014  07:45:00      -59.021       -3.019       -7.074       20.146       10.810       10.577      405.844      116.848      111.864        0.209        0.032       59.099       10.849        0.034      331.220       -0.906      865.149
01/27/2014  07:46:00      -46.459       -0.382       -6.954       12.344       11.013        8.651      152.365      121.288       74.834        0.128        0.017       46.461        6.396        0.019      331.217       -0.909      865.188
01/27/2014  07:47:00      -42.141      -11.271       -7.055        8.485        9.502        7.171       71.989       90.287       51.421        0.108        0.011       43.622        3.363        0.006      331.288       -0.792      865.222
01/27/2014  07:48:00      -42.166      -12.616       -8.123       12.926       13.188        9.730      167.087      173.916       94.668        0.122        0.022       44.013        5.848        0.018      331.291       -0.789      865.239
01/27/2014  07:49:00      -44.906      -20.419       -8.238        9.836       11.819        6.653       96.745      139.681       44.260        0.139        0.014       49.331        1.829        0.001      331.310       -0.756      865.236
01/27/2014  07:50:00      -35.167      -24.522       -6.314       11.794       14.650       12.985      139.109      214.615      168.622        0.120        0.026       42.872       10.972        0.065      331.447       -0.532      865.247
01/27/2014  07:51:00      -17.871       12.817       -1.947       18.484       18.206        9.004      341.640      331.443       81.077        0.062        0.038       21.992        4.771        0.047      331.522       -0.407      865.228
01/27/2014  07:52:00       20.080       21.093        1.411       12.977       11.387       11.899      168.407      129.663      141.576        0.064        0.022       29.122        6.597        0.051      331.648       -0.198      865.198
01/27/2014  07:53:00       22.248       25.037       -0.671       10.709       13.102       12.608      114.684      171.656      158.953        0.078        0.022       33.494        8.637        0.066      331.689       -0.134      865.176
01/27/2014  07:54:00       11.029       35.693       -5.865       11.402       12.825        7.363      130.010      164.490       54.217        0.089        0.017       37.358        6.311        0.029      331.622       -0.245      865.166
01/27/2014  07:55:00        3.916        9.180        2.381       10.567       19.271        8.843      111.666      371.379       78.200        0.033        0.028        9.981        9.951        0.994      331.642       -0.211      865.145
01/27/2014  07:56:00        0.343       -0.226        5.399       11.094        9.876        9.940      123.072       97.536       98.813        0.017        0.016        0.410        8.108      390.603      331.723       -0.078      865.137
01/27/2014  07:57:00        5.130       30.958       -6.237       12.561       23.307        7.481      157.788      543.219       55.958        0.089        0.038       31.380        6.187        0.039      331.689       -0.132      865.150
01/27/2014  07:58:00      -16.967       42.899       -4.308       17.636       24.541        7.357      311.038      602.252       54.118        0.156        0.048       46.133        6.680        0.021      331.698       -0.118      865.175
01/27/2014  07:59:00      -18.649       -9.055        0.023       20.055       13.876       11.184      402.214      192.556      125.085        0.057        0.036       20.731       10.416        0.252      331.570       -0.332      865.200
01/27/2014  08:00:00       -6.552       16.656       -2.991       12.409       32.498        7.273      153.986     1056.090       52.901        0.080        0.063       17.899        6.525        0.133      331.666       -0.174      865.214
01/27/2014  08:01:00      -16.786       48.043        2.869       18.553       23.800       15.312      344.212      566.463      234.459        0.187        0.057       50.891       12.811        0.063      332.040        0.444      865.225
01/27/2014  08:02:00      -12.000       40.135        4.482       21.017       29.947       16.564      441.712      896.808      274.375        0.169        0.081       41.891       15.454        0.136      332.011        0.397      865.232
01/27/2014  08:03:00      -31.687       13.450       -7.494       10.126       17.171        8.571      102.529      294.853       73.458        0.086        0.024       34.424        4.989        0.021      331.735       -0.058      865.265
01/27/2014  08:04:00      -28.884       -7.405       -7.072       12.901       10.242        6.851      166.439      104.891       46.931        0.063        0.016       29.818        5.479        0.034      331.565       -0.338      865.302
01/27/2014  08:05:00      -50.407      -19.294       -7.396        6.463        7.735        5.672       41.775       59.834       32.172        0.155        0.007       53.973        3.583        0.004      331.524       -0.405      865.335
01/27/2014  08:06:00      -54.535      -18.910       -7.087        8.285        7.395        6.386       68.647       54.680       40.781        0.177        0.008       57.721        2.348        0.002      331.558       -0.350      865.372
01/27/2014  08:07:00      -51.120      -12.801       -8.708        6.680        9.346        5.564       44.626       87.344       30.960        0.151        0.008       52.699        3.254        0.004      331.579       -0.314      865.395
01/27/2014  08:08:00      -59.163      -24.376      -11.803       10.148       15.021        7.927      102.978      225.627       62.837        0.231        0.020       63.988        8.283        0.017      331.564       -0.341      865.389
01/27/2014  08:09:00      -57.119      -19.488       -5.902        9.545       12.807        6.296       91.102      164.015       39.641        0.199        0.015       60.352        4.288        0.005      331.580       -0.312      865.388
01/27/2014  08:10:00      -27.272      -17.258       -3.372       14.101        3.724        3.625      198.847       13.868       13.142        0.064        0.011       32.273        2.628        0.007      331.743       -0.045      865.385
01/27/2014  08:11:00      -27.469       -4.317       -4.228        6.822        5.843        4.890       46.541       34.138       23.916        0.045        0.005       27.806        4.026        0.021      331.731       -0.063      865.370
01/27/2014  08:12:00      -34.768        2.912       -5.308        4.352        3.167        4.337       18.942       10.029       18.810        0.065        0.002       34.890        2.545        0.005      331.842        0.117      865.368
01/27/2014  08:13:00      -24.564       -1.020       -0.767       10.495        3.300        2.646      110.142       10.893        7.000        0.037        0.006       24.585        1.800        0.005      331.859        0.146      865.375
01/27/2014  08:14:00       15.810        4.992        2.281       13.813        5.094        5.089      190.801       25.945       25.894        0.026        0.012       16.580        6.259        0.143      331.988        0.356      865.372
01/27/2014  08:15:00       34.012        9.002        4.041        8.322        7.481        8.555       69.256       55.969       73.181        0.073        0.010       35.184        3.084        0.008      332.039        0.443      865.385
01/27/2014  08:16:00       31.352       18.177        1.334        7.576        4.632        6.126       57.402       21.455       37.532        0.072        0.006       36.240        4.025        0.012      332.046        0.453      865.403
01/27/2014  08:17:00       18.474       13.897        0.886        6.105        5.618        3.677       37.269       31.567       13.521        0.031        0.004       23.118        1.940        0.007      332.157        0.639      865.406
01/27/2014  08:18:00        8.123        5.644        4.450        5.937        4.326        4.868       35.242       18.712       23.693        0.010        0.004        9.891        1.782        0.032      332.250        0.792      865.407
01/27/2014  08:19:00       10.499        2.691        5.619        6.252        6.772        6.805       39.090       45.856       46.302        0.014        0.007       10.838        1.364        0.016      332.217        0.735      865.406
01/27/2014  08:20:00        5.810        0.966       10.784        7.481        4.146        5.261       55.968       17.185       27.674        0.013        0.005        5.890        3.399        0.333      332.234        0.764      865.392
01/27/2014  08:21:00       -8.759       -1.402       -3.509       26.047        7.866        5.461      678.452       61.880       29.820        0.043        0.039        8.870        5.785        0.425      332.060        0.476      865.397
01/27/2014  08:22:00      -63.883       -5.715       -8.494        9.021        9.909        8.627       81.371       98.187       74.426        0.222        0.013       64.138        5.615        0.008      331.814        0.071      865.414
01/27/2014  08:23:00      -57.502       -1.462      -10.778        7.598        7.619        6.901       57.725       58.053       47.618        0.179        0.008       57.521        2.739        0.002      331.822        0.084      865.411
01/27/2014  08:24:00      -52.238      -10.046       -5.686        7.854        9.357        5.347       61.688       87.559       28.586        0.152        0.009       53.196        3.305        0.004      331.848        0.126      865.422
01/27/2014  08:25:00      -41.043      -12.769       -5.914        9.496        6.189        6.339       90.181       38.300       40.186        0.103        0.008       42.984        6.302        0.021      331.967        0.323      865.436
01/27/2014  08:26:00      -10.004       -3.793       12.368        8.198        4.752        5.875       67.211       22.577       34.511        0.020        0.006       10.699        3.049        0.081      332.413        1.060      865.431
01/27/2014  08:27:00      -16.199        2.975        5.604       12.465        5.145        6.897      155.375       26.476       47.567        0.027        0.011       16.470        6.337        0.148      332.399        1.037      865.455
01/27/2014  08:28:00      -36.448        1.099       -3.610        6.190        7.323        6.118       38.314       53.625       37.428        0.074        0.006       36.465        3.989        0.012      332.161        0.644      865.482
01/27/2014  08:29:00      -36.026       -0.565       -3.893        5.404        4.069        6.543       29.206       16.560       42.807        0.070        0.004       36.030        2.939        0.007      332.201        0.710      865.531
01/27/2014  08:30:00      -41.603      -10.793       -4.475        6.188        7.739        6.025       38.287       59.890       36.304        0.100        0.007       42.980        0.935        0.000      332.263        0.813      865.567
01/27/2014  08:31:00      -31.578       -6.606       -0.099        9.706        8.218        6.051       94.202       67.530       36.613        0.062        0.010       32.261        5.787        0.032      332.365        0.980      865.598
01/27/2014  08:32:00      -15.618        1.760        4.880        6.890       13.167       11.038       47.475      173.366      121.843        0.031        0.017       15.717        9.867        0.394      332.667        1.478      865.602
01/27/2014  08:33:00       -9.378       13.422       33.652       10.008       15.496       13.531      100.162      240.115      183.100        0.096        0.026       16.373       12.298        0.564      333.063        2.131      865.603
01/27/2014  08:34:00       20.930       39.800       37.909       29.094       28.414       26.733      846.449      807.346      714.674        0.291        0.118       44.968       23.524        0.274      332.822        1.734      865.607
01/27/2014  08:35:00       15.326       39.558       40.183       21.661       20.781       21.045      469.202      431.866      442.885        0.238        0.067       42.423       14.910        0.124      332.819        1.729      865.619
01/27/2014  08:36:00       38.840       56.657       57.306       33.387       21.503       18.790     1114.695      462.380      353.080        0.497        0.097       68.692       11.333        0.027      332.770        1.649      865.625
01/27/2014  08:37:00       25.764       63.115       65.420       30.754       28.328       29.983      945.785      802.490      898.965        0.579        0.132       68.171       21.917        0.103      332.749        1.615      865.644
01/27/2014  08:38:00       58.088       71.336       49.397       45.403       39.805       39.453     2061.405     1584.426     1556.520        0.805        0.260       91.995       31.557        0.118      332.688        1.513      865.672
01/27/2014  08:39:00       68.835       68.127       47.757       41.876       26.460       29.743     1753.627      700.132      884.644        0.750        0.167       96.848       18.025        0.035      332.558        1.298      865.691
01/27/2014  08:40:00        7.439       76.699       82.087       31.283       38.375       15.941      978.596     1472.656      254.104        0.769        0.135       77.059       18.196        0.056      332.699        1.531      865.700
01/27/2014  08:41:00       28.982       80.917       81.450       28.822       28.681       15.336      830.712      822.589      235.178        0.795        0.094       85.950       15.999        0.035      332.662        1.469      865.705
01/27/2014  08:42:00       36.821       75.313       66.632       24.462       23.019       16.059      598.377      529.877      257.900        0.643        0.069       83.833       12.393        0.022      332.587        1.346      865.710
01/27/2014  08:43:00       70.478       62.139       29.317       21.385       19.801       27.422      457.314      392.082      751.974        0.564        0.080       93.959       19.390        0.043      332.558        1.299      865.703
01/27/2014  08:44:00       82.012       60.159       32.016       26.361       14.242       26.802      694.926      202.822      718.356        0.649        0.081      101.711       12.747        0.016      332.651        1.452      865.691
01/27/2014  08:45:00       69.449       65.397       43.558       23.918       13.729       17.857      572.064      188.497      318.890        0.604        0.054       95.394       12.661        0.018      332.609        1.383      865.682
01/27/2014  08:46:00       57.020       69.197       60.360       31.253       28.054       26.956      976.732      787.027      726.633        0.709        0.125       89.663       18.535        0.043      332.721        1.567      865.689
01/27/2014  08:47:00       93.340       74.503       55.762       30.868       30.055       29.244      952.841      903.295      855.214        1.004        0.136      119.428       16.058        0.018      332.647        1.445      865.693
01/27/2014  08:48:00       69.801       56.735       32.860       39.664       37.315       33.576     1573.208     1392.432     1127.364        0.663        0.205       89.950       18.978        0.045      332.826        1.744      865.702
01/27/2014  08:49:00       57.669       80.273       69.463       41.128       37.439       30.518     1691.516     1401.654      931.359        0.931        0.201       98.841       22.698        0.053      332.959        1.962      865.702
01/27/2014  08:50:00       87.168       82.894       44.823       28.207       21.208       32.381      795.648      449.782     1048.509        0.939        0.115      120.290       18.770        0.024      332.793        1.686      865.715
01/27/2014  08:51:00       60.042       60.120       53.967       44.947       32.970       29.081     2020.194     1087.013      845.727        0.704        0.198       84.967       25.792        0.092      332.892        1.851      865.729
01/27/2014  08:52:00       72.327       49.975       36.041       48.072       26.708       40.964     2310.887      713.318     1678.080        0.686        0.235       87.913       33.860        0.148      332.862        1.800      865.740
01/27/2014  08:53:00       66.344       92.360       65.264       38.288       30.961       30.765     1465.948      958.562      946.491        1.028        0.169      113.718       22.118        0.038      332.894        1.855      865.752
01/27/2014  08:54:00       12.256       51.207       62.934       34.062       43.438       43.708     1160.234     1886.837     1910.419        0.584        0.248       52.654       35.364        0.451      333.178        2.323      865.771
01/27/2014  08:55:00       -3.212       70.026       89.405       22.026       39.118       27.930      485.137     1530.233      780.110        0.785        0.140       70.100       22.310        0.101      333.218        2.390      865.779
01/27/2014  08:56:00       31.277      110.508      100.615       37.753       42.075       22.564     1425.259     1770.344      509.123        1.351        0.185      114.849       16.177        0.020      332.977        1.990      865.781
01/27/2014  08:57:00       47.694       87.162       96.175       41.555       35.669       17.497     1726.798     1272.284      306.152        1.121        0.165       99.358       21.226        0.046      332.932        1.916      865.787
01/27/2014  08:58:00       35.643       52.134       76.670       42.575       44.272       32.693     1812.621     1960.040     1068.852        0.735        0.242       63.153       22.501        0.127      333.245        2.434      865.795
01/27/2014  08:59:00       60.931       68.663       81.084       32.944       32.813       28.178     1085.312     1076.677      794.026        0.898        0.148       91.800       20.411        0.049      333.044        2.102      865.811
01/27/2014  09:00:00       78.472      101.568       88.680       29.175       21.065       19.613      851.159      443.715      384.671        1.301        0.084      128.351       15.892        0.015      332.952        1.950      865.829
01/27/2014  09:01:00      125.536       81.454       34.770       31.690       27.079       33.377     1004.261      733.250     1113.998        1.323        0.143      149.646       24.016        0.026      332.925        1.906      865.833
01/27/2014  09:02:00       94.573       82.519       61.321       42.112       43.010       46.947     1773.409     1849.820     2204.044        1.267        0.291      125.513       35.522        0.080      333.099        2.193      865.838
01/27/2014  09:03:00       84.483       57.010       36.944       38.418       25.210       32.659     1475.966      635.540     1066.593        0.746        0.159      101.920       27.096        0.071      333.071        2.147      865.838
01/27/2014  09:04:00       47.832       74.004       62.968       34.417       28.708       30.649     1184.551      824.138      939.343        0.734        0.147       88.117       24.364        0.076      333.164        2.299      865.837
01/27/2014  09:05:00       61.050       55.819       58.767       26.739       30.753       26.850      714.977      945.729      720.918        0.634        0.119       82.721       17.746        0.046      333.204        2.366      865.847
01/27/2014  09:06:00       33.686       27.682       45.296       38.340       36.044       30.171     1469.928     1299.199      910.270        0.382        0.184       43.600       33.434        0.588      333.429        2.737      865.856
01/27/2014  09:07:00       15.856       61.941       48.820       42.135       40.615       23.718     1775.373     1649.547      562.562        0.523        0.199       63.939       14.544        0.052      333.689        3.169      865.855
01/27/2014  09:08:00       32.132       72.083       65.338       51.106       28.608       29.390     2611.839      818.439      863.762        0.740        0.215       78.921       29.759        0.142      333.547        2.933      865.873
01/27/2014  09:09:00       65.083       75.574       16.420       31.114       17.285       34.377      968.064      298.758     1181.792        0.633        0.122       99.736       12.477        0.016      333.394        2.679      865.871
01/27/2014  09:10:00        4.999       25.281       52.719       23.057       27.636       19.117      531.639      763.732      365.451        0.255        0.083       25.771       15.488        0.361      334.001        3.685      865.864
01/27/2014  09:11:00        4.498       27.265       45.793       34.548       29.332       24.826     1193.539      860.366      616.347        0.277        0.134       27.634       21.063        0.581      334.106        3.860      865.846
01/27/2014  09:12:00       26.519       43.367       39.239       28.905       34.321       21.976      835.479     1177.924      482.964        0.331        0.125       50.832       17.487        0.118      333.900        3.519      865.824
01/27/2014  09:13:00        7.928       43.629       65.098       36.047       51.433       37.260     1299.358     2645.372     1388.342        0.577        0.267       44.344       36.840        0.690      333.883        3.490      865.812
01/27/2014  09:14:00       13.890       34.006       50.034       51.803       52.529       43.774     2683.565     2759.301     1916.192        0.560        0.368       36.733       43.905        1.429      333.959        3.616      865.796
01/27/2014  09:15:00       62.633       83.484       73.256       60.340       48.886       42.318     3640.899     2389.842     1790.821        1.204        0.391      104.367       44.703        0.183      333.750        3.270      865.780
01/27/2014  09:16:00       40.812       46.686       47.131       40.494       37.311       33.696     1639.752     1392.138     1135.417        0.512        0.208       62.010       18.697        0.091      334.026        3.727      865.774
01/27/2014  09:17:00       42.191       71.141       44.039       40.396       36.072       36.288     1631.835     1301.163     1316.842        0.651        0.212       82.711       28.056        0.115      334.026        3.728      865.749
01/27/2014  09:18:00       81.035       63.551       25.043       45.652       36.435       40.145     2084.094     1327.528     1611.594        0.813        0.251      102.983       27.295        0.070      333.835        3.411      865.733
01/27/2014  09:19:00       61.421       68.131       31.936       35.756       43.878       34.700     1278.511     1925.320     1204.093        0.692        0.220       91.730       17.955        0.038      334.005        3.693      865.723
01/27/2014  09:20:00        4.580       41.655       64.435       31.369       39.458       28.359      983.987     1556.942      804.213        0.463        0.167       41.906       20.050        0.229      334.258        4.112      865.711
01/27/2014  09:21:00        9.266       97.409      102.104       44.335       43.018       36.442     1965.618     1850.540     1328.003        1.257        0.257       97.848       29.434        0.090      333.878        3.482      865.713
01/27/2014  09:22:00       81.942       53.390       36.823       41.733       36.058       37.482     1741.642     1300.168     1404.907        0.768        0.222       97.801       25.125        0.066      333.731        3.238      865.732
01/27/2014  09:23:00       12.704       16.129       25.194       30.033       35.436       49.481      901.954     1255.741     2448.389        0.283        0.230       20.531       36.249        3.117      333.922        3.555      865.722
01/27/2014  09:24:00       63.701       41.086       54.507       54.645       60.598       39.869     2986.033     3672.101     1589.556        0.848        0.412       75.802       37.334        0.243      333.849        3.434      865.720
01/27/2014  09:25:00       86.068       72.006       13.344       21.451       15.660       17.839      460.148      245.239      318.221        0.690        0.051      112.216        8.092        0.005      333.597        3.016      865.713
01/27/2014  09:26:00       50.680       82.775       26.016       45.910       36.833       52.164     2107.729     1356.671     2721.032        0.814        0.309       97.058       30.067        0.096      334.096        3.843      865.719
01/27/2014  09:27:00        5.354       11.067       37.788       27.901       56.099       39.768      778.487     3147.069     1581.500        0.354        0.275       12.294       39.925       10.547      334.351        4.268      865.734
01/27/2014  09:28:00       52.311       85.170       75.251       53.918       50.536       42.445     2907.104     2553.918     1801.545        1.146        0.363       99.952       37.375        0.140      333.815        3.377      865.746
01/27/2014  09:29:00       29.947       65.359       72.120       33.625       35.976       25.893     1130.666     1294.251      670.424        0.673        0.155       71.893       20.134        0.078      334.136        3.909      865.753
01/27/2014  09:30:00       77.456       53.822       25.366       47.073       40.195       44.707     2215.908     1615.668     1998.717        0.768        0.292       94.320       32.485        0.119      333.931        3.570      865.749
01/27/2014  09:31:00       77.409       65.674        1.837       32.621       31.005       35.236     1064.127      961.289     1241.605        0.679        0.163      101.515       21.536        0.045      334.017        3.712      865.753
01/27/2014  09:32:00       47.000       35.730       -5.288       29.442       41.120       28.417      866.848     1690.833      807.517        0.344        0.168       59.040        9.101        0.024      334.097        3.845      865.743
01/27/2014  09:33:00      -10.670       18.915       43.280       18.331       35.564       45.096      336.031     1264.775     2033.685        0.299        0.182       21.717       34.839        2.573      334.518        4.543      865.726
01/27/2014  09:34:00       31.693       65.816       52.543       48.771       42.429       43.660     2378.615     1800.191     1906.170        0.709        0.304       73.049       37.689        0.266      334.404        4.354      865.698
01/27/2014  09:35:00       76.366       62.634       52.951       62.913       41.942       39.701     3958.054     1759.103     1576.171        0.992        0.365       98.766       36.398        0.136      334.389        4.329      865.688
01/27/2014  09:36:00       91.193       63.171       -1.027       39.926       34.242       31.141     1594.101     1172.497      969.760        0.802        0.187      110.936       23.569        0.045      334.156        3.944      865.691
01/27/2014  09:37:00       84.513       55.432       14.796       31.929       28.246       29.379     1019.489      797.858      863.144        0.656        0.134      101.070        5.343        0.003      334.092        3.837      865.698
01/27/2014  09:38:00       77.165       49.320        9.485       35.144       30.832       29.798     1235.093      950.594      887.906        0.577        0.154       91.580       19.499        0.045      334.151        3.935      865.707
01/27/2014  09:39:00       72.039       67.253      -10.732       42.390       42.553       28.234     1796.883     1810.775      797.177        0.712        0.220       98.553       21.253        0.047      334.005        3.692      865.723
01/27/2014  09:40:00       51.837       59.295        4.740       43.396       23.264       29.615     1883.174      541.232      877.026        0.476        0.165       78.759       17.305        0.048      334.214        4.040      865.737
01/27/2014  09:41:00       82.368       63.944       18.271       28.875       21.530       22.675      833.744      463.556      514.168        0.651        0.091      104.275        9.749        0.009      334.051        3.769      865.738
01/27/2014  09:42:00       47.235       63.748       17.459       24.461       18.712       27.704      598.326      350.151      767.530        0.416        0.086       79.341       10.738        0.018      334.419        4.378      865.740
01/27/2014  09:43:00       47.969       52.689       24.589       41.305       36.277       26.732     1706.078     1316.006      714.585        0.471        0.187       71.254       21.373        0.090      334.577        4.642      865.735
01/27/2014  09:44:00       58.608       50.568       11.122       33.516       38.292       30.156     1123.298     1466.274      909.404        0.481        0.175       77.408       19.171        0.061      334.452        4.435      865.736
01/27/2014  09:45:00       50.557       64.717        0.655       34.050       38.224       28.199     1159.402     1461.046      795.196        0.508        0.171       82.123       24.306        0.088      334.301        4.184      865.731
01/27/2014  09:46:00       38.817       51.105        9.397       33.224       28.785       27.491     1103.810      828.567      755.769        0.345        0.134       64.175       19.367        0.091      334.451        4.432      865.727
01/27/2014  09:47:00       38.580       32.143        0.941       28.949       23.436       27.641      838.067      549.251      764.048        0.234        0.108       50.215       17.751        0.125      334.463        4.452      865.742
01/27/2014  09:48:00        8.562       60.739        6.367       29.926       45.058       30.216      895.592     2030.244      912.988        0.382        0.192       61.340       30.111        0.241      334.495        4.505      865.755
01/27/2014  09:49:00       77.651       70.388       13.815       46.936       26.182       31.129     2202.966      685.482      969.004        0.752        0.193      104.805       21.554        0.042      334.359        4.279      865.759
01/27/2014  09:50:00       29.445       40.573       38.004       35.816       28.576       27.076     1282.793      816.598      733.112        0.339        0.142       50.132       19.365        0.149      334.870        5.127      865.774
01/27/2014  09:51:00        7.186        1.306       34.893       27.031       49.162       39.118      730.695     2416.927     1530.211        0.297        0.234        7.304       41.943       32.976      334.837        5.074      865.781
01/27/2014  09:52:00       23.666       42.692       70.911       31.932       33.468       16.863     1019.656     1120.087      284.370        0.492        0.121       48.813       16.044        0.108      334.845        5.086      865.777
01/27/2014  09:53:00       26.592       56.145       79.112       30.164       41.093       23.234      909.878     1688.605      539.823        0.663        0.157       62.124       20.103        0.105      334.709        4.861      865.775
01/27/2014  09:54:00       10.302       85.990      103.392       23.179       41.291       19.124      537.267     1704.910      365.714        1.040        0.130       86.605       24.415        0.079      334.537        4.574      865.769
01/27/2014  09:55:00       28.558       98.819       89.408       43.616       33.545       37.835     1902.382     1125.236     1431.455        1.152        0.223      102.863       29.873        0.084      334.451        4.434      865.773
01/27/2014  09:56:00       33.758       50.162       68.314       39.223       37.248       26.171     1538.444     1387.394      684.923        0.597        0.181       60.464       27.062        0.200      334.598        4.677      865.788
01/27/2014  09:57:00       -9.018       45.540       61.264       21.411       37.159       26.905      458.444     1380.793      723.892        0.424        0.128       46.424       21.637        0.217      335.015        5.368      865.798
01/27/2014  09:58:00      -18.194       14.051       25.697       21.611       30.355       28.929      467.022      921.401      836.908        0.171        0.111       22.988       16.527        0.517      335.105        5.519      865.807
01/27/2014  09:59:00       56.785       54.891       28.464       59.086       30.487       38.930     3491.186      929.459     1515.578        0.649        0.297       78.978       42.032        0.283      334.855        5.103      865.816
01/27/2014  10:00:00       95.071       54.349       -0.623       43.635       26.139       29.077     1904.025      683.233      845.455        0.771        0.172      109.510       22.158        0.041      334.424        4.387      865.833
01/27/2014  10:01:00       27.503       60.056       39.676       27.498       31.067       35.718      756.117      965.142     1275.769        0.447        0.150       66.054       24.360        0.136      334.798        5.008      865.828
01/27/2014  10:02:00       69.994       66.123       22.595       49.287       40.222       29.651     2429.172     1617.802      879.180        0.735        0.246       96.288       13.432        0.019      334.820        5.044      865.829
01/27/2014  10:03:00       67.788       64.081       14.240       48.835       35.964       27.686     2384.840     1293.444      766.540        0.667        0.222       93.283       21.671        0.054      334.828        5.058      865.829
01/27/2014  10:04:00       43.559       58.224      -12.167       43.475       32.490       24.608     1890.033     1055.586      605.561        0.449        0.178       72.715       19.498        0.072      334.840        5.078      865.830
01/27/2014  10:05:00        9.275       46.881       38.532       25.275       31.266       38.467      638.829      977.553     1479.672        0.343        0.155       47.789       14.958        0.098      335.011        5.362      865.818
01/27/2014  10:06:00       64.400       72.820       42.411       35.142       30.313       28.918     1234.941      918.853      836.234        0.712        0.150       97.212        5.246        0.003      334.762        4.947      865.814
01/27/2014  10:07:00       81.512       66.451       38.955       39.635       31.385       34.863     1570.955      985.031     1215.456        0.817        0.189      105.166       17.719        0.028      334.828        5.058      865.814
01/27/2014  10:08:00       89.837       54.437       13.466       32.709       30.931       32.191     1069.904      956.710     1036.254        0.714        0.153      105.044        9.878        0.009      334.860        5.112      865.809
01/27/2014  10:09:00      102.252       68.951        5.711       34.451       41.937       30.745     1186.862     1758.714      945.230        0.957        0.195      123.328       21.740        0.031      334.841        5.079      865.796
01/27/2014  10:10:00       90.417       74.513       17.614       27.825       30.991       25.032      774.255      960.426      626.581        0.820        0.118      117.164       18.528        0.025      334.770        4.961      865.791
01/27/2014  10:11:00       79.501       68.862       20.189       37.264       35.806       26.240     1388.637     1282.050      688.563        0.741        0.168      105.178       15.432        0.022      334.917        5.207      865.789
01/27/2014  10:12:00       39.380       57.294       76.151       25.994       28.199       15.150      675.681      795.201      229.516        0.617        0.085       69.523       14.691        0.045      335.154        5.600      865.784
01/27/2014  10:13:00       40.817       70.978       68.637       39.182       37.214       36.246     1535.194     1384.914     1313.771        0.782        0.212       81.878       28.864        0.124      335.069        5.459      865.781
01/27/2014  10:14:00       41.702       62.837       62.015       54.677       45.143       39.437     2989.627     2037.878     1555.313        0.806        0.329       75.416       38.291        0.258      335.203        5.682      865.779
01/27/2014  10:15:00       30.061       58.793       41.984       51.321       37.579       41.214     2633.833     1412.202     1698.625        0.593        0.287       66.032       37.533        0.323      335.395        6.001      865.798
01/27/2014  10:16:00       58.321       49.451       27.559       68.993       35.204       33.934     4760.033     1239.354     1151.522        0.688        0.358       76.464       40.196        0.276      335.320        5.876      865.806
01/27/2014  10:17:00      118.759       74.128       17.544       38.077       41.840       32.432     1449.894     1750.593     1051.846        1.208        0.213      139.995       19.522        0.019      335.057        5.439      865.816
01/27/2014  10:18:00       47.179       46.946       36.691       38.500       33.682       23.483     1482.284     1134.453      551.463        0.447        0.158       66.556       13.935        0.044      335.314        5.866      865.823
01/27/2014  10:19:00       13.942       65.636       46.148       44.616       44.292       42.303     1990.595     1961.744     1789.570        0.619        0.287       67.100       26.789        0.159      335.477        6.136      865.834
01/27/2014  10:20:00       72.009       56.007        6.200       38.600       33.679       33.449     1489.954     1134.247     1118.842        0.605        0.187       91.226       15.904        0.030      335.192        5.661      865.827
01/27/2014  10:21:00      103.847       82.867       16.492       55.051       36.622       35.021     3030.657     1341.148     1226.442        1.176        0.280      132.857       18.122        0.019      335.111        5.528      865.835
01/27/2014  10:22:00       79.559       54.484        9.541       43.236       44.791       34.391     1869.366     2006.223     1182.728        0.722        0.253       96.427       27.637        0.082      335.169        5.624      865.844
01/27/2014  10:23:00       53.253       45.140       15.454       40.916       28.706       24.486     1674.094      824.043      599.560        0.410        0.155       69.810       15.311        0.048      335.310        5.859      865.856
01/27/2014  10:24:00       65.714       51.465       14.000       42.601       29.978       36.165     1814.803      898.676     1307.886        0.559        0.201       83.468       25.628        0.094      335.430        6.058      865.873
01/27/2014  10:25:00       50.154       57.559       38.832       37.671       25.365       33.686     1419.095      643.408     1134.731        0.527        0.160       76.344       21.075        0.076      335.540        6.242      865.890
01/27/2014  10:26:00       17.005       31.030       26.511       38.332       41.467       36.502     1469.326     1719.522     1332.378        0.324        0.226       35.384       27.322        0.596      335.823        6.714      865.912
01/27/2014  10:27:00       93.529       36.917       39.576       47.505       37.765       48.825     2256.730     1426.174     2383.880        0.887        0.303      100.551       31.214        0.096      335.350        5.924      865.928
01/27/2014  10:28:00       37.200       47.191       37.774       49.370       45.019       29.940     2437.425     2026.720      896.408        0.520        0.268       60.091       27.905        0.216      335.978        6.973      865.928
01/27/2014  10:29:00       76.020       58.196       -6.940       25.782       25.597       23.407      664.733      655.218      547.879        0.554        0.093       95.738        6.367        0.004      335.429        6.056      865.927
01/27/2014  10:30:00       78.139       64.239       -8.941       43.457       25.685       25.729     1888.477      659.731      661.969        0.676        0.161      101.155       19.232        0.036      335.342        5.913      865.936
01/27/2014  10:31:00       88.511       74.816        6.498       28.281       16.990       23.106      799.798      288.648      533.866        0.755        0.081      115.894       12.568        0.012      335.411        6.026      865.935
01/27/2014  10:32:00       40.625       58.454       49.974       44.127       36.499       50.598     1947.214     1332.177     2560.187        0.670        0.292       71.185       33.238        0.218      335.756        6.603      865.936
01/27/2014  10:33:00       88.387       91.627       67.377       66.499       27.421       41.786     4422.144      751.922     1746.041        1.383        0.346      127.310       36.884        0.084      335.503        6.181      865.927
01/27/2014  10:34:00      105.606       79.086       33.691       32.281       32.224       32.549     1042.049     1038.382     1059.468        1.084        0.157      131.937       19.926        0.023      335.489        6.157      865.913
01/27/2014  10:35:00       58.945       56.295       38.744       39.854       38.710       33.477     1588.380     1498.489     1120.703        0.618        0.210       81.509       21.990        0.073      335.816        6.701      865.899
01/27/2014  10:36:00       96.102       83.959       42.322       49.142       38.413       33.134     2414.970     1475.529     1097.867        1.153        0.249      127.612       25.586        0.040      335.629        6.391      865.873
01/27/2014  10:37:00       36.734       71.613       73.777       45.104       47.909       43.418     2034.329     2295.274     1885.159        0.907        0.311       80.485       42.737        0.282      335.964        6.949      865.862
01/27/2014  10:38:00       13.582       46.783       65.537       35.491       57.118       44.451     1259.589     3262.448     1975.889        0.658        0.325       48.715       45.103        0.857      335.899        6.841      865.864
01/27/2014  10:39:00       39.432      -27.419       22.008       58.381       49.595       27.174     3408.303     2459.694      738.418        0.470        0.330       48.028       32.854        0.468      335.872        6.795      865.866
01/27/2014  10:40:00       28.670      -17.379       11.216       28.903       35.368       30.002      835.378     1250.863      900.124        0.212        0.149       33.526       25.655        0.586      336.022        7.044      865.884
01/27/2014  10:41:00       53.276       83.015       91.604       57.570       45.635       34.033     3314.263     2082.586     1158.233        1.234        0.328       98.640       29.683        0.091      335.863        6.780      865.877
01/27/2014  10:42:00      123.134       88.311       52.577       58.436       50.678       45.325     3414.816     2568.217     2054.342        1.688        0.402      151.529       33.547        0.049      335.547        6.253      865.879
01/27/2014  10:43:00      121.765       74.951       36.428       56.014       45.690       39.334     3137.612     2087.553     1547.137        1.427        0.339      142.984       37.845        0.070      335.598        6.339      865.882
01/27/2014  10:44:00      111.571       83.959       35.182       46.137       31.777       28.817     2128.578     1009.759      830.442        1.235        0.198      139.633       17.720        0.016      335.592        6.329      865.867
01/27/2014  10:45:00       73.051       71.780       61.058       52.045       37.871       41.534     2708.692     1434.220     1725.073        1.004        0.293      102.415       33.839        0.109      335.736        6.567      865.862
01/27/2014  10:46:00       82.837       37.011       27.728       29.558       26.292       28.397      873.663      691.273      806.393        0.569        0.119       90.729       14.161        0.024      335.609        6.356      865.841
01/27/2014  10:47:00       60.465       51.203       20.525       25.008       26.178       39.161      625.418      685.279     1533.586        0.477        0.142       79.233       19.083        0.058      335.785        6.650      865.834
01/27/2014  10:48:00       79.070       58.152       17.004       23.539       27.948       30.388      554.073      781.075      923.411        0.609        0.113       98.152       21.374        0.047      335.991        6.992      865.834
01/27/2014  10:49:00       52.259       48.936       12.821       46.129       35.164       25.121     2127.843     1236.476      631.046        0.464        0.200       71.595       11.515        0.026      336.186        7.318      865.842
01/27/2014  10:50:00       80.262       75.162       31.335       33.775       25.169       28.785     1140.734      633.474      828.577        0.784        0.130      109.960       10.830        0.010      335.899        6.839      865.860
01/27/2014  10:51:00       65.137       73.919       87.342       52.980       54.744       39.707     2806.913     2996.951     1576.617        1.236        0.369       98.523       35.082        0.127      336.198        7.338      865.867
01/27/2014  10:52:00       78.006       70.599       71.269       49.371       55.619       47.052     2437.506     3093.493     2213.869        1.195        0.387      105.210       46.871        0.198      335.866        6.784      865.892
01/27/2014  10:53:00       91.548       55.718       34.746       37.381       42.942       40.276     1397.329     1844.046     1622.123        0.878        0.243      107.170       35.301        0.109      335.952        6.929      865.893
01/27/2014  10:54:00       15.953       70.241       72.147       48.801       49.426       28.942     2381.542     2442.883      837.620        0.803        0.283       72.029       19.939        0.077      336.294        7.500      865.887
01/27/2014  10:55:00       33.232      -43.580       31.735       40.122       52.054       39.685     1609.740     2709.635     1574.930        0.495        0.295       54.805       37.069        0.457      336.340        7.574      865.879
01/27/2014  10:56:00       12.347       14.841       57.919       35.402       33.614       23.938     1253.277     1129.919      573.004        0.334        0.148       19.306       16.018        0.688      336.476        7.802      865.861
01/27/2014  10:57:00       43.505      -56.776       15.809       30.525       47.464       35.248      931.797     2252.863     1242.450        0.490        0.221       71.528       32.157        0.202      336.159        7.275      865.838
01/27/2014  10:58:00       36.792       72.898       72.693       54.406       42.079       35.157     2960.066     1770.609     1236.006        0.896        0.298       81.657       20.048        0.060      336.180        7.308      865.830
01/27/2014  10:59:00       64.766       42.272       43.269       50.410       30.222       35.754     2541.210      913.347     1278.327        0.629        0.237       77.341       33.402        0.187      336.050        7.092      865.828
01/27/2014  11:00:00       55.554       88.263       72.068       45.180       41.575       40.189     2041.261     1728.461     1615.142        1.073        0.269      104.291       32.434        0.097      336.150        7.258      865.837
01/27/2014  11:01:00      130.856       83.503       22.291       33.218       38.530       30.588     1103.468     1484.540      935.638        1.406        0.176      155.229       19.373        0.016      335.922        6.877      865.836
01/27/2014  11:02:00       73.676       71.458       61.657       51.693       53.259       48.275     2672.162     2836.502     2330.504        1.109        0.392      102.637       38.236        0.139      336.094        7.165      865.831
01/27/2014  11:03:00      111.648       80.169       26.364       27.281       25.708       29.780      744.235      660.884      886.864        1.094        0.115      137.449       14.602        0.011      335.844        6.749      865.827
01/27/2014  11:04:00      109.439       65.865       10.913       31.035       26.247       39.287      963.151      688.899     1543.492        0.981        0.160      127.731       18.384        0.021      335.954        6.930      865.812
01/27/2014  11:05:00       90.226       80.353       26.462       52.331       43.847       37.897     2738.520     1922.550     1436.212        1.070        0.305      120.820       25.213        0.044      336.045        7.083      865.806
01/27/2014  11:06:00       15.367       68.596       76.459       37.715       49.143       29.582     1422.398     2415.051      875.078        0.775        0.236       70.297       17.294        0.061      336.287        7.488      865.795
01/27/2014  11:07:00      124.783       72.332       31.833       44.526       32.803       31.984     1982.552     1076.047     1022.949        1.295        0.204      144.231       20.772        0.021      335.979        6.974      865.785
01/27/2014  11:08:00       16.353       40.993       42.728       28.654       35.753       24.560      821.046     1278.291      603.193        0.324        0.135       44.134       19.938        0.204      336.350        7.592      865.776
01/27/2014  11:09:00       20.003       42.370       53.326       33.770       45.209       26.360     1140.421     2043.830      694.836        0.446        0.194       46.854       22.551        0.232      336.443        7.749      865.759
01/27/2014  11:10:00       29.113       34.523       57.005       24.056       31.711       25.007      578.710     1005.585      625.353        0.375        0.110       45.160       23.687        0.275      336.059        7.106      865.748
01/27/2014  11:11:00       23.383        8.079       43.035       29.926       33.881       20.520      895.583     1147.918      421.070        0.246        0.123       24.739       24.480        0.979      336.370        7.627      865.717
01/27/2014  11:12:00       -6.144       15.197       47.314       19.016       41.414       19.430      361.600     1715.090      377.531        0.248        0.123       16.392       16.121        0.967      336.625        8.053      865.708
01/27/2014  11:13:00        1.890       51.107       16.530       29.542       25.275       34.925      872.738      638.832     1219.728        0.281        0.137       51.142       24.612        0.232      336.552        7.930      865.696
01/27/2014  11:14:00       48.099       65.529        2.103       30.077       26.386       29.135      904.651      696.214      848.823        0.453        0.122       81.287        9.346        0.013      336.379        7.641      865.674
01/27/2014  11:15:00       -1.360       30.877       22.952       32.993       31.430       17.014     1088.515      987.841      289.492        0.192        0.118       30.907       14.634        0.224      336.595        8.003      865.656
01/27/2014  11:16:00       21.331        5.395       41.452       25.739       57.121       26.982      662.488     3262.785      728.015        0.343        0.233       22.003       30.765        1.955      336.519        7.875      865.643
01/27/2014  11:17:00       70.416       42.028       42.294       43.198       37.243       28.736     1866.071     1387.060      825.769        0.630        0.204       82.005       22.708        0.077      336.410        7.693      865.641
01/27/2014  11:18:00        9.396       21.258       48.016       23.453       29.507       20.368      550.039      870.650      414.845        0.234        0.092       23.242       15.338        0.435      336.769        8.294      865.648
01/27/2014  11:19:00       30.227       67.899       46.479       32.927       27.885       30.605     1084.172      777.599      936.677        0.524        0.140       74.323       26.666        0.129      336.449        7.757      865.656
01/27/2014  11:20:00       55.890       37.586       17.837       29.177       23.348       26.702      851.324      545.129      712.996        0.348        0.105       67.353       13.054        0.038      336.457        7.772      865.669
01/27/2014  11:21:00       52.058       53.937       25.312       29.132       21.095       25.845      848.680      444.990      667.965        0.411        0.098       74.961       10.544        0.020      336.556        7.937      865.672
01/27/2014  11:22:00       58.329       59.622       51.823       49.589       39.188       34.390     2459.089     1535.705     1182.683        0.741        0.259       83.409       27.197        0.106      336.583        7.982      865.674
01/27/2014  11:23:00      121.065       71.200        7.975       32.725       21.262       28.434     1070.898      452.090      808.473        1.106        0.117      140.450        3.103        0.000      336.198        7.338      865.665
01/27/2014  11:24:00       52.925       54.853       27.805       22.871       27.009       33.165      523.081      729.499     1099.948        0.447        0.118       76.222       21.975        0.083      336.469        7.789      865.659
01/27/2014  11:25:00       11.690       62.831       68.189       34.368       44.939       32.177     1181.177     2019.552     1035.376        0.648        0.212       63.909       29.522        0.213      336.566        7.955      865.641
01/27/2014  11:26:00       76.348       90.352       64.199       28.839       26.289       24.616      831.705      691.128      605.927        1.012        0.106      118.290       14.514        0.015      336.376        7.636      865.633
01/27/2014  11:27:00       62.422       65.702       40.012       29.307       25.055       34.600      858.921      627.766     1197.130        0.625        0.134       90.627        7.364        0.007      336.408        7.689      865.619
01/27/2014  11:28:00       97.288       68.649       45.762       13.138       15.540       15.794      172.616      241.503      249.455        0.847        0.033      119.070        9.697        0.007      336.257        7.436      865.594
01/27/2014  11:29:00       33.538       53.513       47.955       38.653       30.129       49.669     1494.020      907.770     2467.047        0.558        0.243       63.154       40.684        0.415      336.520        7.878      865.564
01/27/2014  11:30:00       30.264       93.950       92.564       38.712       39.972       27.268     1498.611     1597.779      743.526        1.107        0.192       98.705       25.664        0.068      336.506        7.854      865.530
01/27/2014  11:31:00       17.722       50.650       64.693       26.178       34.238       22.040      685.284     1172.215      485.775        0.470        0.117       53.661       21.969        0.168      336.660        8.111      865.523
01/27/2014  11:32:00       16.699       90.097      106.826       40.913       41.638       26.037     1673.866     1733.755      677.923        1.195        0.204       91.631       23.211        0.064      336.682        8.148      865.502
01/27/2014  11:33:00       80.890       99.588       68.978       51.566       31.195       35.127     2659.004      973.109     1233.877        1.304        0.243      128.300       33.721        0.069      336.498        7.840      865.479
01/27/2014  11:34:00      117.925       84.802       39.979       49.892       35.308       38.047     2489.245     1246.670     1447.582        1.394        0.259      145.250       29.242        0.041      336.511        7.863      865.439
01/27/2014  11:35:00      117.304       89.511       51.535       43.557       41.408       38.553     1897.218     1714.655     1486.355        1.476        0.255      147.555       23.085        0.024      336.571        7.962      865.379
01/27/2014  11:36:00       68.914      102.914       82.811       51.097       46.611       42.345     2610.953     2172.552     1793.133        1.439        0.329      123.856       33.135        0.072      336.633        8.067      865.337
01/27/2014  11:37:00       58.603       45.555       52.686       54.875       39.284       36.635     3011.262     1543.198     1342.110        0.709        0.295       74.226       35.835        0.233      336.686        8.153      865.313
01/27/2014  11:38:00       74.255       29.061       18.195       43.671       40.810       27.277     1907.122     1665.475      744.057        0.550        0.216       79.739       24.101        0.091      336.630        8.061      865.298
01/27/2014  11:39:00       88.401       72.108       17.436       42.431       32.007       27.853     1800.391     1024.469      775.784        0.846        0.180      114.080        8.497        0.006      336.618        8.041      865.293
01/27/2014  11:40:00       88.257       43.091       45.581       58.255       64.013       44.039     3393.659     4097.722     1939.429        1.058        0.472       98.215       40.130        0.167      336.730        8.228      865.287
01/27/2014  11:41:00       35.287      119.452      113.558       50.322       54.947       47.143     2532.304     3019.144     2222.451        1.809        0.389      124.555       44.830        0.130      336.654        8.100      865.266
01/27/2014  11:42:00       10.968       65.660       81.473       37.077       33.607       22.230     1374.705     1129.403      494.193        0.703        0.150       66.570       17.658        0.070      336.740        8.244      865.259
01/27/2014  11:43:00        1.345       61.004       74.795       34.648       48.278       23.542     1200.451     2330.789      554.240        0.670        0.204       61.019       23.665        0.150      336.918        8.542      865.261
01/27/2014  11:44:00       65.797       61.814       48.954       37.380       38.354       41.432     1397.232     1471.001     1716.621        0.756        0.229       90.278       33.922        0.141      336.690        8.161      865.264
01/27/2014  11:45:00       80.640       17.527       16.351       33.611       34.265       26.145     1129.693     1174.124      683.538        0.503        0.149       82.523       18.445        0.050      336.662        8.114      865.252
01/27/2014  11:46:00       72.745       59.790       22.092       30.005       17.346       22.210      900.323      300.884      493.306        0.552        0.085       94.163       20.280        0.046      336.603        8.016      865.230
01/27/2014  11:47:00       23.439       64.721       60.430       35.559       46.394       41.014     1264.460     2152.379     1682.172        0.674        0.255       68.834       28.336        0.169      336.985        8.653      865.210
01/27/2014  11:48:00       70.278      -37.968       29.648       55.866       53.655       39.825     3121.061     2878.885     1585.998        0.742        0.379       79.879       39.729        0.247      337.014        8.703      865.203
01/27/2014  11:49:00       47.212      -29.170       17.429       37.182       46.610       29.943     1382.465     2172.454      896.566        0.392        0.223       55.496       25.498        0.211      337.058        8.777      865.205
01/27/2014  11:50:00       46.424      -72.527        9.663       26.163       41.128       26.446      684.482     1691.515      699.368        0.529        0.154       86.112       25.440        0.087      336.931        8.563      865.198
01/27/2014  11:51:00       10.853      -19.337       17.261       29.783       42.724       23.407      887.052     1825.355      547.894        0.202        0.163       22.175       30.099        1.842      337.380        9.316      865.190
01/27/2014  11:52:00       -9.305       15.353       43.102       10.206       21.652       12.708      104.160      468.807      161.502        0.146        0.037       17.953       13.354        0.553      337.734        9.908      865.186
01/27/2014  11:53:00       48.489      -97.696       -5.078       33.236       59.045       29.328     1104.619     3486.343      860.144        0.869        0.273      109.067       26.155        0.058      337.256        9.108      865.180
01/27/2014  11:54:00      121.187       25.496       45.120       52.888       59.072       46.323     2797.096     3489.530     2145.790        1.290        0.422      123.840       38.974        0.099      337.159        8.944      865.175
01/27/2014  11:55:00      104.884       45.749       25.834       63.279       61.604       32.995     4004.208     3795.092     1088.658        1.132        0.444      114.427       14.150        0.015      337.045        8.753      865.161
01/27/2014  11:56:00       25.907        1.595       24.781       37.339       72.458       57.868     1394.201     5250.210     3348.648        0.564        0.500       25.956       55.517        4.575      337.346        9.258      865.137
01/27/2014  11:57:00       87.430       84.201       35.096       53.404       44.680       54.670     2851.939     1996.334     2988.807        1.190        0.392      121.383       17.715        0.021      336.996        8.671      865.134
01/27/2014  11:58:00       95.479       77.844        5.848       45.154       31.512       29.553     2038.852      992.994      873.382        0.956        0.195      123.190       22.855        0.034      337.105        8.854      865.126
01/27/2014  11:59:00      157.154       96.561        8.759       55.450       50.772       35.561     3074.653     2577.790     1264.600        2.051        0.346      184.449       26.022        0.020      337.046        8.755      865.107
01/27/2014  12:00:00       96.668       80.065       14.346       39.740       33.580       26.273     1579.273     1127.588      690.269        0.968        0.170      125.519       10.564        0.007      337.031        8.730      865.087
01/27/2014  12:01:00      112.109       82.765       26.440       42.334       31.875       34.375     1792.180     1015.986     1181.649        1.205        0.199      139.350       18.040        0.017      337.155        8.938      865.079
01/27/2014  12:02:00      115.506       25.956       14.388       33.917       52.533       36.943     1150.339     2759.666     1364.802        0.975        0.264      118.386       20.485        0.030      337.191        8.998      865.068
01/27/2014  12:03:00       43.858       28.460       49.549       39.199       38.828       28.185     1536.548     1507.589      794.402        0.451        0.192       52.283       21.243        0.165      337.574        9.640      865.034
01/27/2014  12:04:00      163.638       74.358        4.366       68.457       50.172       38.312     4686.363     2517.250     1467.808        2.050        0.434      179.740       12.469        0.005      337.461        9.450      865.012
01/27/2014  12:05:00      115.003       92.770       43.898       74.252       42.280       53.074     5513.340     1787.627     2816.810        1.694        0.506      147.756       50.892        0.119      337.389        9.329      864.973
01/27/2014  12:06:00       62.885       91.265       87.996       50.305       44.119       39.161     2530.640     1946.516     1533.598        1.302        0.301      110.832       34.763        0.098      337.459        9.446      864.948
01/27/2014  12:07:00       48.676       29.828       23.419       37.023       33.142       23.650     1370.738     1098.382      559.329        0.342        0.151       57.088       20.791        0.133      337.422        9.385      864.932
01/27/2014  12:08:00       91.062       72.079       33.111       67.906       39.934       48.296     4611.274     1594.741     2332.503        1.156        0.427      116.136       40.143        0.119      337.638        9.748      864.920
01/27/2014  12:09:00      124.568       79.120       35.670       39.288       54.021       35.229     1543.533     2918.309     1241.089        1.438        0.285      147.570       26.838        0.033      337.256        9.106      864.903
01/27/2014  12:10:00       59.166       60.253       60.428       55.238       52.513       45.715     3051.202     2757.651     2089.861        0.934        0.395       84.445       49.666        0.346      337.700        9.852      864.886
01/27/2014  12:11:00       41.354       -8.594       57.991       43.154      106.802       73.420     1862.281    11406.755     5390.474        1.190        0.933       42.237       85.172        4.066      337.441        9.417      864.880
01/27/2014  12:12:00       80.925       72.587       51.355       66.167       64.053       34.858     4378.121     4102.826     1215.112        1.207        0.485      108.709       27.334        0.063      337.580        9.650      864.859
01/27/2014  12:13:00       58.722       43.916       20.503       60.250       46.808       31.008     3630.102     2190.976      961.510        0.629        0.339       73.328       19.190        0.068      337.600        9.685      864.870
01/27/2014  12:14:00      -14.623      -43.730       26.229       34.690       47.378       31.947     1203.401     2244.633     1020.629        0.364        0.223       46.110       28.445        0.381      337.939       10.253      864.880
01/27/2014  12:15:00       33.379       32.571       36.895       40.825       39.935       39.295     1666.711     1594.833     1544.130        0.417        0.240       46.638       34.869        0.559      337.763        9.957      864.880
01/27/2014  12:16:00       22.400       31.420       41.807       47.688       54.413       36.333     2274.185     2960.796     1320.055        0.489        0.328       38.588       32.450        0.707      338.014       10.377      864.871
01/27/2014  12:17:00        0.804       22.515       36.677       31.785       37.367       34.153     1010.316     1396.285     1166.434        0.271        0.179       22.530       22.710        1.016      338.034       10.411      864.871
01/27/2014  12:18:00       51.796        2.892       37.580       47.650       38.456       28.392     2270.476     1478.870      806.121        0.433        0.228       51.876       27.649        0.284      337.666        9.795      864.876
01/27/2014  12:19:00       32.937       32.315       44.655       42.048       38.560       28.541     1768.068     1486.841      814.617        0.410        0.203       46.143       22.641        0.241      337.895       10.178      864.874
01/27/2014  12:20:00       36.049       43.140       12.975       33.709       30.317       29.513     1136.297      919.108      871.045        0.313        0.146       56.219       21.423        0.145      337.795       10.009      864.885
01/27/2014  12:21:00       30.426       46.956        4.369       36.509       35.750       23.142     1332.884     1278.085      535.536        0.315        0.157       55.952       18.284        0.107      337.889       10.169      864.889
01/27/2014  12:22:00       24.833       36.151        7.109       31.720       33.986       33.673     1006.187     1155.058     1133.859        0.263        0.165       43.859       21.639        0.243      337.899       10.184      864.880
01/27/2014  12:23:00       17.189       53.228       65.316       31.582       42.031       42.919      997.427     1766.630     1842.024        0.600        0.230       55.935       32.609        0.340      338.087       10.500      864.875
01/27/2014  12:24:00       32.202       37.923       48.758       25.600       45.657       30.845      655.342     2084.584      951.442        0.427        0.185       49.751       23.931        0.231      337.993       10.342      864.854
01/27/2014  12:25:00       12.154       68.013       89.487       41.253       40.928       32.921     1701.774     1675.121     1083.819        0.862        0.223       69.091       28.385        0.169      338.025       10.395      864.831
01/27/2014  12:26:00       53.177       46.106       56.759       43.999       40.250       31.132     1935.908     1620.094      969.190        0.635        0.226       70.381       21.917        0.097      337.891       10.171      864.807
01/27/2014  12:27:00       34.616       66.363       65.350       68.559       42.983       40.905     4700.392     1847.580     1673.192        0.905        0.411       74.848       41.187        0.303      338.074       10.480      864.789
01/27/2014  12:28:00       59.531       47.247       10.470       27.162       25.326       25.536      737.776      641.427      652.103        0.396        0.102       76.002       18.572        0.060      337.858       10.116      864.786
01/27/2014  12:29:00       47.661       37.682       14.283       27.686       20.166       22.715      766.507      406.668      515.983        0.279        0.084       60.758       12.538        0.043      338.144       10.596      864.788
01/27/2014  12:30:00        4.429       46.523        7.158       29.633       43.964       27.486      878.111     1932.803      755.458        0.290        0.178       46.734       13.452        0.083      338.364       10.964      864.782
01/27/2014  12:31:00        9.609      -13.476       36.970       43.012       78.480       45.434     1850.041     6159.089     2064.230        0.586        0.504       16.551       47.050        8.081      338.543       11.266      864.775
01/27/2014  12:32:00       82.213      -79.861       -2.949       49.349       49.689       34.464     2435.324     2468.991     1187.762        0.962        0.305      114.616       24.452        0.046      337.964       10.294      864.751
01/27/2014  12:33:00       57.319       26.536       55.449       57.116       58.491       42.054     3262.260     3421.187     1768.553        0.776        0.423       63.164       37.161        0.346      338.137       10.585      864.734
01/27/2014  12:34:00       39.091        3.751       53.155       43.654       45.181       44.212     1905.654     2041.288     1954.677        0.513        0.295       39.270       39.634        1.019      338.206       10.701      864.718
01/27/2014  12:35:00      104.966       76.685       37.246       55.528       40.275       38.988     3083.336     1622.111     1520.097        1.225        0.311      129.994       30.263        0.054      337.986       10.330      864.702
01/27/2014  12:36:00       66.238       49.206       25.689       39.072       50.714       40.655     1526.647     2571.870     1652.840        0.661        0.288       82.515       24.798        0.090      338.209       10.704      864.699
01/27/2014  12:37:00       87.089       66.223       15.495       23.976       33.504       39.677      574.828     1122.549     1574.277        0.774        0.164      109.407       15.361        0.020      338.030       10.405      864.698
01/27/2014  12:38:00      120.591       81.308        2.724       33.361       20.421       19.129     1112.976      417.004      365.916        1.153        0.095      145.441        7.571        0.003      337.907       10.198      864.702
01/27/2014  12:39:00       52.244       65.020       -0.186       20.337       22.291       22.901      413.583      496.887      524.476        0.420        0.072       83.409       11.647        0.019      337.971       10.304      864.699
01/27/2014  12:40:00       54.665       76.692       63.700       31.352       36.622       25.194      982.957     1341.139      634.756        0.794        0.148       94.180       19.740        0.044      338.160       10.623      864.688
01/27/2014  12:41:00       78.679       61.886       25.920       33.992       24.518       29.414     1155.472      601.127      865.200        0.666        0.131      100.102       22.805        0.052      337.968       10.299      864.680
01/27/2014  12:42:00       97.121       61.564        4.959       31.620       39.494       23.769      999.823     1559.749      564.952        0.819        0.156      114.990       12.298        0.011      338.020       10.388      864.665
01/27/2014  12:43:00       47.257       10.498        9.135       47.652       40.092       27.824     2270.674     1607.341      774.193        0.354        0.233       48.409       24.899        0.265      338.246       10.766      864.643
01/27/2014  12:44:00       57.901       51.520       53.914       58.430       47.038       50.574     3414.096     2212.558     2557.712        0.855        0.409       77.504       46.153        0.355      338.166       10.633      864.611
01/27/2014  12:45:00       57.838      -13.368        4.512       28.660       12.436       17.016      821.374      154.662      289.537        0.240        0.063       59.363        9.922        0.028      338.095       10.515      864.604
01/27/2014  12:46:00       31.009       14.353       -4.558       36.051       23.960       21.799     1299.705      574.069      475.178        0.177        0.117       34.170       14.626        0.183      338.236       10.750      864.593
01/27/2014  12:47:00       33.014       12.283       36.637       29.383       24.860       29.277      863.387      618.043      857.135        0.246        0.117       35.225        5.192        0.022      338.529       11.244      864.579
01/27/2014  12:48:00       73.621        0.533       35.917       44.448       55.607       34.372     1975.594     3092.188     1181.413        0.648        0.312       73.623       32.038        0.189      338.319       10.889      864.571
01/27/2014  12:49:00       43.075       -9.429       27.642       40.074       24.827       21.386     1605.911      616.379      457.355        0.269        0.134       44.094       20.336        0.213      338.378       10.988      864.572
01/27/2014  12:50:00       -0.744       19.925       29.712       17.158       28.369       14.842      294.394      804.787      220.297        0.130        0.066       19.939        7.102        0.127      338.754       11.620      864.548
01/27/2014  12:51:00        2.163       45.513       54.858       22.700       32.914       21.053      515.298     1083.317      443.209        0.356        0.102       45.564       16.226        0.127      338.762       11.632      864.537
01/27/2014  12:52:00       -4.778       39.490       58.312       24.883       29.133       23.772      619.176      848.733      565.126        0.351        0.102       39.778       18.023        0.205      338.900       11.865      864.518
01/27/2014  12:53:00       29.372       39.133       63.962       39.336       41.147       34.441     1547.291     1693.093     1186.201        0.546        0.221       48.929       35.654        0.531      338.626       11.404      864.501
01/27/2014  12:54:00       40.783       65.462       88.493       57.265       50.198       39.465     3279.262     2519.874     1557.469        1.057        0.368       77.127       37.745        0.239      338.555       11.286      864.468
01/27/2014  12:55:00       73.981       48.890       62.614       55.766       57.829       40.495     3109.902     3344.251     1639.819        0.994        0.405       88.676       38.922        0.193      338.540       11.260      864.458
01/27/2014  12:56:00       62.191       47.455       53.164       31.539       41.092       27.076      994.727     1688.557      733.121        0.618        0.171       78.228       13.467        0.030      338.489       11.175      864.465
01/27/2014  12:57:00       24.083       13.987       38.781       48.200       38.491       40.604     2323.211     1481.520     1648.660        0.387        0.273       27.850       17.323        0.387      338.834       11.755      864.474
01/27/2014  12:58:00        2.560       59.110        1.222       27.349       47.254       22.369      747.959     2232.981      500.350        0.349        0.174       59.166       24.111        0.166      338.822       11.734      864.474
01/27/2014  12:59:00       22.580       31.640       32.487       43.590       55.122       39.163     1900.109     3038.484     1533.706        0.452        0.324       38.871       30.955        0.634      338.775       11.654      864.465
01/27/2014  13:00:00       52.220       45.262       30.901       38.341       21.676       25.967     1470.064      469.840      674.303        0.417        0.131       69.106       20.464        0.088      338.561       11.296      864.456
01/27/2014  13:01:00       23.774       19.870       46.534       24.706       44.712       28.758      610.393     1999.136      826.996        0.328        0.172       30.984       29.719        0.920      338.705       11.538      864.448
01/27/2014  13:02:00       43.913       58.554        2.445       34.906       46.733       35.303     1218.418     2184.011     1246.331        0.501        0.232       73.191       25.057        0.117      338.612       11.382      864.440
01/27/2014  13:03:00       28.232       69.154       -1.892       40.075       44.570       34.828     1605.997     1986.467     1213.011        0.519        0.240       74.695       31.402        0.177      338.484       11.167      864.456
01/27/2014  13:04:00       90.781       35.958        9.467       23.284       19.859       22.829      542.125      394.396      521.150        0.554        0.073       97.643        7.467        0.006      338.552       11.282      864.451
01/27/2014  13:05:00       36.463       41.607       50.381       34.472       34.447       37.048     1188.298     1186.612     1372.557        0.467        0.187       55.324       27.746        0.252      338.861       11.800      864.430
01/27/2014  13:06:00       84.714       72.471       62.429       65.053       43.699       52.716     4231.897     1909.640     2779.003        1.262        0.446      111.483       43.219        0.150      338.477       11.155      864.405
01/27/2014  13:07:00        8.373       31.851       62.442       35.272       49.503       36.148     1244.117     2450.582     1306.665        0.499        0.250       32.933       34.401        1.091      338.799       11.696      864.395
01/27/2014  13:08:00       40.617       56.733       75.955       44.527       44.813       36.369     1982.680     2008.219     1322.689        0.797        0.266       69.774       36.107        0.268      338.635       11.420      864.390
01/27/2014  13:09:00       68.227      110.554       86.618       37.746       40.703       38.496     1424.796     1656.694     1481.915        1.447        0.228      129.912       18.962        0.021      338.530       11.245      864.366
01/27/2014  13:10:00       78.628       65.833       56.192       41.626       50.012       39.026     1732.734     2501.158     1523.054        0.971        0.288      102.549       37.135        0.131      338.572       11.315      864.369
01/27/2014  13:11:00       72.821       58.992       49.990       46.005       38.267       39.784     2116.484     1464.377     1582.754        0.822        0.258       93.717       33.926        0.131      338.640       11.429      864.378
01/27/2014  13:12:00       34.851       62.497       82.586       51.270       54.190       41.715     2628.642     2936.599     1740.116        0.962        0.365       71.557       42.104        0.346      338.712       11.549      864.391
01/27/2014  13:13:00       69.443       49.930       73.031       65.817       53.987       38.110     4331.842     2914.603     1452.353        1.067        0.435       85.530       40.015        0.219      338.671       11.480      864.384
01/27/2014  13:14:00       92.356       56.829       61.102       66.280       46.943       40.532     4393.060     2203.647     1642.866        1.186        0.412      108.440       36.517        0.113      338.682       11.500      864.383
01/27/2014  13:15:00       31.104       97.359       98.802       37.091       47.968       36.866     1375.713     2300.937     1359.103        1.262        0.252      102.207       35.046        0.118      338.603       11.366      864.373
01/27/2014  13:16:00       71.991      117.586       95.475       41.534       40.163       34.965     1725.077     1613.056     1222.535        1.634        0.228      137.874       23.633        0.029      338.602       11.364      864.362
01/27/2014  13:17:00      109.899       59.955       53.960       50.158       35.425       48.776     2515.836     1254.943     2379.101        1.237        0.307      125.190       36.095        0.083      338.610       11.379      864.348
01/27/2014  13:18:00       77.633       71.677       82.062       53.863       38.406       46.105     2901.268     1475.048     2125.683        1.220        0.325      105.662       36.048        0.116      338.642       11.434      864.339
01/27/2014  13:19:00       66.216       39.870       24.723       32.518       43.358       33.583     1057.437     1879.882     1127.821        0.532        0.203       77.293       24.845        0.103      338.664       11.469      864.332
01/27/2014  13:20:00       33.128       33.600       42.633       39.169       26.316       23.446     1534.185      692.510      549.708        0.341        0.139       47.185       19.784        0.176      338.980       11.999      864.328
01/27/2014  13:21:00       78.372       41.839       60.935       57.442       42.034       38.403     3299.526     1766.898     1474.786        0.907        0.327       88.840       34.248        0.149      338.664       11.471      864.331
01/27/2014  13:22:00       91.829       76.329       44.400       34.456       25.606       30.828     1187.239      655.681      950.382        0.951        0.140      119.410       23.162        0.038      338.623       11.399      864.337
01/27/2014  13:23:00       26.710       53.290       55.255       42.602       30.859       17.563     1814.969      952.302      308.457        0.484        0.154       59.609       12.256        0.042      338.828       11.744      864.339
01/27/2014  13:24:00       -0.061       -1.315       31.141       42.836       55.935       25.331     1834.939     3128.709      641.642        0.329        0.280        1.316       30.091      522.618      339.002       12.037      864.336
01/27/2014  13:25:00       47.681      -24.117       27.623       40.094       58.361       36.466     1607.510     3406.022     1329.801        0.498        0.317       53.433       40.336        0.570      338.870       11.815      864.319
01/27/2014  13:26:00       52.748        4.924       47.269       37.151       48.067       33.707     1380.182     2310.422     1136.191        0.493        0.241       52.978       29.731        0.315      338.902       11.868      864.316
01/27/2014  13:27:00       69.805       55.708       52.250       51.267       41.112       32.538     2628.284     1690.194     1058.736        0.804        0.269       89.309       12.389        0.019      338.835       11.756      864.300
01/27/2014  13:28:00       30.272       79.571       91.950       49.107       45.968       40.645     2411.522     2113.044     1651.989        1.094        0.309       85.135       33.970        0.159      338.809       11.713      864.298
01/27/2014  13:29:00       63.547       75.000       55.582       35.876       36.396       38.735     1287.097     1324.658     1500.437        0.843        0.206       98.301       25.313        0.066      338.741       11.599      864.292
01/27/2014  13:30:00       26.262       68.969       74.669       44.980       37.158       39.685     2023.239     1380.725     1574.896        0.800        0.249       73.800       30.758        0.174      338.893       11.854      864.269
01/27/2014  13:31:00       54.899       70.039       55.190       47.770       37.434       42.055     2281.965     1401.304     1768.652        0.821        0.273       88.991       34.295        0.149      338.942       11.939      864.257
01/27/2014  13:32:00       59.287       62.215       42.018       37.533       24.867       24.456     1408.751      618.374      598.115        0.589        0.131       85.940       15.405        0.032      338.889       11.847      864.251
01/27/2014  13:33:00       71.797       51.096       35.236       31.920       35.597       33.311     1018.878     1267.138     1109.642        0.620        0.170       88.123       16.779        0.036      339.020       12.068      864.252
01/27/2014  13:34:00      117.777       91.529       10.545       40.333       27.124       30.633     1626.714      735.725      938.368        1.283        0.165      149.161       15.198        0.010      338.769       11.645      864.260
01/27/2014  13:35:00       87.651       67.467        9.014       35.031       24.844       23.037     1227.184      617.230      530.711        0.735        0.119      110.610       13.450        0.015      338.785       11.672      864.260
01/27/2014  13:36:00       66.637       40.370        8.269       29.158       18.440       18.779      850.208      340.049      352.649        0.384        0.077       77.912       14.271        0.034      338.821       11.733      864.255
01/27/2014  13:37:00       66.430       31.856        2.371       19.733       24.075       15.827      389.401      579.627      250.498        0.333        0.061       73.673        7.684        0.011      338.815       11.722      864.248
01/27/2014  13:38:00       46.283       39.323       -2.537       30.580       26.091       22.372      935.152      680.752      500.506        0.291        0.106       60.733       15.201        0.063      338.989       12.015      864.232
01/27/2014  13:39:00       66.517       60.782       23.637       25.280       23.957       30.675      639.102      573.957      940.979        0.542        0.108       90.105       16.856        0.035      339.085       12.176      864.211
01/27/2014  13:40:00       82.053       85.633       55.363       63.651       39.204       56.366     4051.502     1536.965     3177.100        1.295        0.438      118.599       53.381        0.203      339.048       12.115      864.196
01/27/2014  13:41:00      125.160       52.808       15.684       34.751       42.621       30.721     1207.608     1816.536      943.772        1.133        0.198      135.845       20.198        0.022      338.873       11.820      864.196
01/27/2014  13:42:00      109.854       36.102       33.350       48.908       43.427       35.901     2391.958     1885.917     1288.870        1.002        0.278      115.634       25.310        0.048      338.912       11.885      864.176
01/27/2014  13:43:00      105.031       62.823        3.233       28.678       27.659       22.807      822.450      765.037      520.180        0.855        0.105      122.386       14.562        0.014      338.827       11.743      864.176
01/27/2014  13:44:00       79.482       48.125       19.297       33.834       33.146       22.630     1144.762     1098.681      512.138        0.588        0.138       92.916       10.619        0.013      338.938       11.930      864.158
01/27/2014  13:45:00       87.856       57.607       23.944       26.847       23.095       27.907      720.781      533.395      778.818        0.682        0.102      105.058       18.133        0.030      338.901       11.868      864.149
01/27/2014  13:46:00       37.951       53.097       69.455       49.343       41.850       35.391     2434.740     1751.444     1252.543        0.726        0.272       65.265       32.735        0.252      339.082       12.172      864.140
01/27/2014  13:47:00       89.261       78.210       94.864       51.843       49.218       36.795     2687.683     2422.459     1353.905        1.477        0.323      118.677       33.338        0.079      338.949       11.948      864.135
01/27/2014  13:48:00       98.837       72.816       42.925       45.219       38.365       42.770     2044.755     1471.879     1829.255        1.113        0.267      122.764       35.885        0.085      338.921       11.901      864.136
01/27/2014  13:49:00       82.260       59.679       35.048       25.461       26.360       30.001      648.263      694.826      900.055        0.690        0.112      101.628       22.307        0.048      338.996       12.027      864.135
01/27/2014  13:50:00       39.224       33.617       42.781       43.252       33.505       31.474     1870.765     1122.553      990.587        0.424        0.199       51.658       31.784        0.379      339.141       12.272      864.128
01/27/2014  13:51:00       11.132       43.691       41.948       36.649       28.058       28.764     1343.147      787.276      827.396        0.337        0.148       45.087       25.890        0.330      339.278       12.502      864.124
01/27/2014  13:52:00       58.833       35.808       13.483       35.231       25.893       20.476     1241.224      670.452      419.276        0.363        0.117       68.873        7.054        0.010      339.117       12.231      864.131
01/27/2014  13:53:00       66.566       46.970        8.598       33.326       25.106       26.240     1110.650      630.328      688.558        0.457        0.121       81.469        9.029        0.012      339.106       12.213      864.121
01/27/2014  13:54:00       30.484       51.331       62.869       38.627       36.001       29.010     1492.016     1296.043      841.583        0.557        0.181       59.701       26.521        0.197      339.260       12.471      864.110
01/27/2014  13:55:00       65.607       84.629       79.252       44.226       34.159       39.235     1955.932     1166.824     1539.400        1.120        0.233      107.081       28.486        0.071      339.061       12.136      864.103
01/27/2014  13:56:00       49.185      -20.910       34.483       40.128       37.229       33.154     1610.292     1386.025     1099.169        0.407        0.205       53.445       31.146        0.340      339.141       12.270      864.092
01/27/2014  13:57:00       19.238      -23.324       28.149       34.515       67.221       36.995     1191.313     4518.633     1368.620        0.439        0.354       30.234       39.952        1.746      339.242       12.441      864.078
01/27/2014  13:58:00       45.022       57.119       50.648       43.418       32.812       31.193     1885.080     1076.651      972.988        0.589        0.197       72.730       31.707        0.190      339.153       12.292      864.081
01/27/2014  13:59:00       23.456       18.827       28.830       34.286       32.784       33.447     1175.498     1074.760     1118.697        0.255        0.168       30.078       25.371        0.712      339.349       12.622      864.085
01/27/2014  14:00:00       20.777       26.990       28.362       20.964       14.038       22.740      439.482      197.059      517.086        0.156        0.058       34.061       13.684        0.161      339.218       12.403      864.091
01/27/2014  14:01:00       61.177      -85.478       -2.708       28.478       40.846       21.703      811.003     1668.426      471.041        0.700        0.148      105.115       18.098        0.030      339.164       12.309      864.093
01/27/2014  14:02:00       88.615      -73.083       13.318       44.535       35.046       25.116     1983.354     1228.239      630.802        0.861        0.192      114.864       20.293        0.031      339.148       12.283      864.098
01/27/2014  14:03:00       48.954      -10.484       31.369       36.337       85.482       27.037     1320.404     7307.136      731.022        0.642        0.468       50.064       23.388        0.218      339.349       12.621      864.093
01/27/2014  14:04:00       20.588       53.783       57.876       38.837       37.378       36.385     1508.277     1397.150     1323.884        0.545        0.211       57.589       31.853        0.306      339.424       12.748      864.096
01/27/2014  14:05:00       66.622       64.650       75.827       41.303       42.452       28.187     1705.966     1802.157      794.504        0.933        0.215       92.834       26.321        0.080      339.224       12.410      864.092
01/27/2014  14:06:00      108.068       70.933       30.485       44.535       40.281       41.041     1983.347     1622.588     1684.328        1.146        0.265      129.268       28.099        0.047      339.164       12.310      864.085
01/27/2014  14:07:00       58.247       40.003       43.077       35.812       38.320       34.474     1282.515     1468.441     1188.442        0.539        0.197       70.661       24.281        0.118      339.192       12.357      864.077
01/27/2014  14:08:00       77.997       43.003       24.027       40.002       29.249       27.909     1600.129      855.494      778.901        0.587        0.162       89.066       22.622        0.065      339.231       12.423      864.057
01/27/2014  14:09:00       69.274       73.296       64.048       42.268       35.165       39.973     1786.596     1236.612     1597.824        0.945        0.231      100.852       24.002        0.057      339.268       12.483      864.038
01/27/2014  14:10:00       69.483       87.117       71.375       35.834       31.297       28.160     1284.053      979.514      792.980        1.028        0.153      111.433       21.589        0.038      339.207       12.383      864.025
01/27/2014  14:11:00       60.855       52.753       53.678       35.905       49.144       44.190     1289.150     2415.116     1952.746        0.751        0.283       80.538       33.771        0.176      339.220       12.405      864.023
01/27/2014  14:12:00       52.052       45.376       45.542       39.845       36.074       38.996     1587.591     1301.314     1520.706        0.563        0.220       69.054       29.287        0.180      339.276       12.500      864.020
01/27/2014  14:13:00       51.279       47.601       56.403       34.739       28.209       29.171     1206.807      795.764      850.939        0.546        0.143       69.967       20.077        0.082      339.264       12.478      864.011
01/27/2014  14:14:00       54.929       51.830       60.542       42.431       30.832       31.558     1800.368      950.591      995.934        0.656        0.187       75.522       25.307        0.112      339.277       12.499      864.002
01/27/2014  14:15:00       60.649       29.751       37.291       40.945       29.043       27.664     1676.496      843.513      765.318        0.462        0.164       67.553       17.235        0.065      339.294       12.527      863.991
01/27/2014  14:16:00       28.212       29.048       30.066       29.487       32.505       26.974      869.456     1056.580      727.597        0.260        0.133       40.494       22.122        0.298      339.454       12.797      863.983
01/27/2014  14:17:00       37.643       41.938       33.522       36.613       23.223       21.863     1340.479      539.290      477.979        0.333        0.118       56.354       18.507        0.108      339.409       12.722      863.987
01/27/2014  14:18:00       14.410       -5.112       25.361       19.056       38.841       21.607      363.121     1508.632      466.881        0.161        0.117       15.290       17.888        1.369      339.567       12.988      863.990
01/27/2014  14:19:00        7.874       -1.361       12.780       22.180       30.467       16.153      491.931      928.237      260.904        0.095        0.084        7.991        7.037        0.775      339.541       12.945      863.996
01/27/2014  14:20:00       59.273      -94.225       -9.978       28.439       19.957       15.817      808.750      398.266      250.192        0.697        0.073      111.318        7.369        0.004      339.356       12.633      863.993
01/27/2014  14:21:00       18.790      -65.904      -10.296       35.035       53.953       36.335     1227.460     2910.890     1320.251        0.513        0.273       68.530       33.466        0.238      339.519       12.907      863.989
01/27/2014  14:22:00       -5.772       24.867       45.939       13.292       33.565       22.607      176.671     1126.603      511.084        0.229        0.091       25.528       24.998        0.959      339.567       12.988      863.990
01/27/2014  14:23:00       25.754      -32.649       12.117       35.874       54.825       26.395     1286.921     3005.826      696.694        0.343        0.249       41.584       24.325        0.342      339.505       12.884      863.983
01/27/2014  14:24:00       66.723      -77.681        2.118       43.349       49.605       28.134     1879.131     2460.702      791.540        0.781        0.257      102.403       29.873        0.085      339.480       12.841      863.986
01/27/2014  14:25:00       49.050      -70.264        4.955       49.149       50.443       28.877     2415.622     2544.513      833.906        0.658        0.290       85.691       27.995        0.107      339.503       12.881      863.986
01/27/2014  14:26:00       43.094       11.569       39.889       36.806       53.075       43.519     1354.716     2816.941     1893.915        0.482        0.303       44.620       40.649        0.830      339.575       13.001      863.981
01/27/2014  14:27:00       39.427       -6.287       41.025       44.912       45.190       35.058     2017.047     2042.108     1229.044        0.428        0.264       39.925       31.004        0.603      339.568       12.991      863.982
01/27/2014  14:28:00       49.407        5.453       40.275       44.907       42.656       35.487     2016.618     1819.540     1259.308        0.459        0.255       49.707       37.928        0.582      339.489       12.858      863.981
01/27/2014  14:29:00       27.960        1.332       28.749       23.372       26.149       15.199      546.235      683.786      231.017        0.154        0.073       27.992       15.896        0.322      339.496       12.868      863.975
01/27/2014  14:30:00        7.280       10.253       27.728       23.337       28.417       14.240      544.637      807.548      202.789        0.124        0.078       12.575       15.067        1.436      339.606       13.055      863.969
01/27/2014  14:31:00       41.567       44.835       44.082       39.437       27.601       18.243     1555.296      761.801      332.822        0.417        0.132       61.139       13.987        0.052      339.514       12.901      863.954
01/27/2014  14:32:00       76.854       61.451       33.117       30.288       31.372       26.949      917.380      984.234      726.231        0.670        0.131       98.401       16.750        0.029      339.415       12.733      863.938
01/27/2014  14:33:00       93.599       46.842       -4.223       33.570       27.175       32.813     1126.915      738.459     1076.668        0.696        0.147      104.665       15.004        0.021      339.397       12.703      863.925
01/27/2014  14:34:00       42.334       44.144       25.312       41.588       24.594       23.491     1729.575      604.877      551.821        0.363        0.144       61.162       21.481        0.123      339.487       12.853      863.914
01/27/2014  14:35:00       53.904       32.570       38.659       38.286       39.175       31.533     1465.814     1534.675      994.320        0.473        0.200       62.980       28.089        0.199      339.519       12.908      863.899
01/27/2014  14:36:00       44.950       43.700       52.942       43.837       31.379       28.779     1921.708      984.649      828.208        0.523        0.187       62.691       20.119        0.103      339.522       12.913      863.890
01/27/2014  14:37:00        6.514        7.584       34.891       30.506       53.952       29.095      930.630     2910.769      846.543        0.300        0.234        9.997       18.343        3.367      339.660       13.144      863.888
01/27/2014  14:38:00       15.404       12.351       42.878       33.601       41.627       27.415     1129.036     1732.782      751.574        0.292        0.181       19.744       32.940        2.783      339.678       13.176      863.881
01/27/2014  14:39:00       -5.199       24.593       58.797       16.613       31.384       20.148      276.000      984.954      405.940        0.288        0.083       25.137       21.475        0.730      339.771       13.334      863.881
01/27/2014  14:40:00      -10.606       40.227       67.202       19.511       39.514       25.987      380.681     1561.396      675.350        0.443        0.131       41.602       25.158        0.366      339.664       13.152      863.869
01/27/2014  14:41:00      -10.329       30.738       53.556       19.509       26.026       20.042      380.584      677.342      401.680        0.269        0.073       32.427       15.446        0.227      339.628       13.094      863.864
01/27/2014  14:42:00        7.169       23.266       39.413       27.076       33.028       17.054      733.104     1090.878      290.827        0.213        0.106       24.346       19.920        0.669      339.687       13.192      863.864
01/27/2014  14:43:00        2.803      -72.776       15.072       30.901       56.890       33.060      954.850     3236.429     1092.957        0.541        0.264       72.830       23.514        0.104      339.687       13.190      863.861
01/27/2014  14:44:00       15.331       22.544       45.509       38.655       36.438       29.683     1494.189     1327.695      881.100        0.326        0.185       27.263        7.421        0.074      339.735       13.271      863.854
01/27/2014  14:45:00       16.704       25.073       59.328       32.427       42.397       30.635     1051.532     1797.530      938.505        0.411        0.189       30.128       31.415        1.087      339.689       13.195      863.857
01/27/2014  14:46:00       23.268       41.216       62.495       24.360       37.105       16.959      593.413     1376.781      287.600        0.420        0.113       47.330       21.187        0.200      339.556       12.970      863.861
01/27/2014  14:47:00       26.837        4.848       14.097       28.883       33.814       21.452      834.235     1143.383      460.206        0.169        0.122       27.271       19.619        0.518      339.547       12.956      863.865
01/27/2014  14:48:00       37.847      -46.574        6.829       35.566       45.861       19.395     1264.931     2103.271      376.177        0.370        0.187       60.013        5.266        0.008      339.640       13.113      863.870
01/27/2014  14:49:00       -1.521      -43.540        8.490       33.400       35.297       21.621     1115.575     1245.855      467.471        0.240        0.141       43.566       21.392        0.241      339.695       13.206      863.872
01/27/2014  14:50:00       -6.313       -3.317       17.520       14.126       25.126       18.880      199.550      631.341      356.447        0.077        0.059        7.131        1.187        0.028      339.880       13.517      863.866
01/27/2014  14:51:00       16.665      -98.219      -10.064       31.297       32.100       31.368      979.523     1030.433      983.924        0.651        0.150       99.622       27.246        0.075      339.605       13.053      863.857
01/27/2014  14:52:00       22.330      -45.533        6.518       24.038       43.244       24.337      577.831     1870.074      592.310        0.283        0.152       50.713       21.141        0.174      339.617       13.072      863.852
01/27/2014  14:53:00       62.351      -78.231       -8.500       42.103       40.860       20.776     1772.645     1669.548      431.634        0.698        0.194      100.039       17.650        0.031      339.532       12.929      863.837
01/27/2014  14:54:00       62.470       16.700        2.849       24.284       26.992       16.228      589.699      728.588      263.355        0.289        0.079       64.664       13.827        0.046      339.481       12.844      863.823
01/27/2014  14:55:00       30.556       40.459       -1.498       25.111       13.132       12.535      630.541      172.443      157.114        0.177        0.048       50.701       12.573        0.061      339.467       12.822      863.808
01/27/2014  14:56:00        0.877       11.827        3.098       12.414       18.363       13.460      154.103      337.212      181.161        0.041        0.034       11.859        8.479        0.511      339.590       13.028      863.797
01/27/2014  14:57:00       21.281       27.922       12.526       14.036       11.659       14.248      197.006      135.926      203.011        0.096        0.027       35.107        9.403        0.072      339.618       13.075      863.781
01/27/2014  14:58:00      -15.164       12.179       27.985       11.178       16.408       13.515      124.955      269.235      182.643        0.087        0.029       19.449       11.831        0.370      339.798       13.379      863.768
01/27/2014  14:59:00       -8.360        7.308       14.355       12.428       10.556        9.923      154.450      111.433       98.460        0.035        0.018       11.104        8.278        0.556      339.822       13.417      863.752
01/27/2014  15:00:00      -11.170       17.375        7.266       13.872       12.042       12.514      192.422      145.015      156.603        0.049        0.025       20.656        8.617        0.174      339.757       13.309      863.753
01/27/2014  15:01:00      -28.908       13.574       -2.576       19.768       10.612       13.284      390.776      112.607      176.458        0.085        0.034       31.936       13.627        0.182      339.718       13.244      863.749
01/27/2014  15:02:00      -32.858       26.418        9.653       14.821       18.768       15.452      219.670      352.243      238.778        0.134        0.041       42.162        9.571        0.052      339.710       13.230      863.754
01/27/2014  15:03:00      -21.962       20.236       15.032       17.609       18.949       17.279      310.062      359.052      298.572        0.104        0.048       29.864       11.474        0.148      339.841       13.451      863.758
01/27/2014  15:04:00       -8.301       24.484       16.227       23.159       17.700       21.383      536.359      313.297      457.213        0.112        0.065       25.853       15.400        0.355      339.759       13.312      863.764
01/27/2014  15:05:00        7.615       10.411        3.684       15.679       19.280       15.394      245.822      371.722      236.963        0.052        0.043       12.899       12.792        0.983      339.767       13.326      863.765
01/27/2014  15:06:00      -39.256      -21.948       -1.624       22.193       15.317       14.304      492.526      234.617      204.617        0.148        0.047       44.975       16.284        0.131      339.694       13.204      863.779
01/27/2014  15:07:00      -33.959        5.626        2.260       13.479       17.612        8.945      181.685      310.197       80.004        0.088        0.029       34.421        8.393        0.059      339.669       13.162      863.784
01/27/2014  15:08:00      -22.695        6.197       -1.387       14.860       15.400        8.168      220.826      237.148       66.716        0.054        0.026       23.526        5.629        0.057      339.723       13.252      863.795
01/27/2014  15:09:00        3.801       -2.812       13.934        7.344        8.703       11.007       53.940       75.735      121.165        0.023        0.013        4.728        7.238        2.344      339.979       13.683      863.800
01/27/2014  15:10:00        1.098       -6.691        9.834       13.187        8.243       12.318      173.895       67.955      151.725        0.027        0.020        6.781        7.564        1.245      339.817       13.410      863.804
01/27/2014  15:11:00      -32.434      -21.221       -4.933       15.745        9.062        8.520      247.891       82.115       72.588        0.096        0.020       38.759        9.715        0.063      339.643       13.119      863.809
01/27/2014  15:12:00      -36.549      -23.494        0.180       14.357        8.872        9.880      206.114       78.705       97.611        0.114        0.019       43.449        8.514        0.038      339.619       13.077      863.808
01/27/2014  15:13:00      -25.684      -10.105       -4.200       23.060       10.552        6.840      531.784      111.353       46.792        0.073        0.034       27.601        4.588        0.028      339.695       13.207      863.810
01/27/2014  15:14:00      -36.779       -9.724        7.236       22.069       16.555       11.013      487.026      274.069      121.286        0.119        0.044       38.042        7.447        0.038      339.726       13.258      863.813
01/27/2014  15:15:00      -23.501      -24.003       -0.379       17.369       15.341       11.696      301.668      235.334      136.802        0.090        0.034       33.592        5.919        0.031      339.657       13.141      863.813
01/27/2014  15:16:00      -22.884        1.946        4.961       19.489       12.374        8.748      379.803      153.112       76.532        0.058        0.030       22.967        9.936        0.187      339.768       13.328      863.814
01/27/2014  15:17:00      -46.614       -2.334        1.210       19.972       12.984        8.719      398.865      168.572       76.020        0.141        0.032       46.672        5.664        0.015      339.660       13.147      863.812
01/27/2014  15:18:00      -10.696       23.878       -1.174       13.473        8.343       11.423      181.528       69.602      130.475        0.053        0.019       26.164        4.114        0.025      339.679       13.180      863.807
01/27/2014  15:19:00       11.213       15.968       -2.337       12.288       11.895        9.981      151.003      141.479       99.618        0.039        0.020       19.512        9.834        0.254      339.692       13.201      863.797
01/27/2014  15:20:00       15.715       32.707       -2.476       11.545       19.686        9.501      133.286      387.545       90.274        0.097        0.031       36.287       10.360        0.082      339.666       13.156      863.799
01/27/2014  15:21:00       13.553       43.522       -6.253       16.166       13.815        7.807      261.339      190.842       60.942        0.131        0.026       45.583        5.359        0.014      339.643       13.119      863.804
01/27/2014  15:22:00       19.871       54.558      -10.727       15.508       16.750        9.881      240.502      280.562       97.633        0.205        0.031       58.064        8.210        0.020      339.640       13.112      863.817
01/27/2014  15:23:00        9.745       37.575       -7.548        9.202       26.947       13.059       84.681      726.140      170.531        0.127        0.049       38.818       16.740        0.186      339.666       13.159      863.822
01/27/2014  15:24:00       53.314       27.303        4.555       12.447       10.778       10.102      154.931      116.170      102.047        0.199        0.019       59.898        5.151        0.007      339.656       13.140      863.821
01/27/2014  15:25:00       48.985       14.753        2.705        9.795       12.456       10.475       95.934      155.144      109.724        0.149        0.018       51.158        6.661        0.017      339.661       13.147      863.818
01/27/2014  15:26:00       45.565       25.934        2.649        8.827       11.427       10.839       77.916      130.575      117.482        0.154        0.016       52.428        6.480        0.015      339.654       13.140      863.804
01/27/2014  15:27:00       47.034       36.464       16.784       17.804       20.586       21.759      316.994      423.789      473.473        0.252        0.061       59.514       15.554        0.068      339.699       13.211      863.796
01/27/2014  15:28:00       53.375       27.975       22.956       24.028       20.955       20.668      577.355      439.132      427.174        0.280        0.072       60.261       16.346        0.074      339.678       13.175      863.789
01/27/2014  15:29:00       69.222       59.715       28.503       26.514       26.965       26.511      703.009      727.135      702.815        0.565        0.107       91.420        5.953        0.004      339.655       13.137      863.780
01/27/2014  15:30:00       56.856       49.912       15.144       28.331       14.310       13.599      802.674      204.777      184.936        0.357        0.060       75.656        8.649        0.013      339.661       13.147      863.774
01/27/2014  15:31:00       26.667       30.175       31.465       31.318       31.164       26.485      980.841      971.205      701.467        0.263        0.133       40.269       19.561        0.236      339.779       13.347      863.774
01/27/2014  15:32:00       46.402       20.637       23.431       22.490       23.127       20.799      505.798      534.859      432.609        0.230        0.074       50.785       12.238        0.058      339.700       13.213      863.767
01/27/2014  15:33:00       10.146        9.589       22.080       22.441       14.916       12.334      503.581      222.491      152.122        0.078        0.044       13.960       13.245        0.900      339.870       13.500      863.762
01/27/2014  15:34:00       32.123       30.926        7.602       23.237       18.176       22.535      539.958      330.381      507.824        0.171        0.069       44.590       18.287        0.168      339.755       13.306      863.745
01/27/2014  15:35:00       38.817       29.619       -1.050       23.991       16.660       20.766      575.577      277.549      431.214        0.183        0.064       48.827       10.976        0.051      339.714       13.238      863.716
01/27/2014  15:36:00       13.491       42.160       -4.583       16.173       14.727        9.278      261.581      216.893       86.083        0.127        0.028       44.266        4.123        0.009      339.696       13.208      863.706
01/27/2014  15:37:00        1.059       32.047       -8.386       13.450       21.589       13.064      180.911      466.084      170.676        0.096        0.041       32.065       12.336        0.148      339.730       13.265      863.691
01/27/2014  15:38:00       15.833       32.480        3.185       18.957       23.965       14.811      359.385      574.326      219.376        0.123        0.058       36.133       11.284        0.098      339.723       13.252      863.683
01/27/2014  15:39:00       46.636       28.879       -2.968       18.815       16.729       15.345      354.009      279.843      235.465        0.194        0.043       54.854        7.576        0.019      339.663       13.152      863.681
01/27/2014  15:40:00       25.486       21.458        1.104       10.110       11.020        9.104      102.221      121.444       82.875        0.071        0.015       33.316        5.923        0.032      339.680       13.178      863.683
01/27/2014  15:41:00       26.505       31.474       -9.511       15.872        9.063        9.618      251.931       82.132       92.509        0.110        0.021       41.147        8.209        0.040      339.663       13.151      863.693
01/27/2014  15:42:00      -14.072        7.071      -14.493       11.301        9.369        5.325      127.721       87.773       28.350        0.035        0.012       15.748        6.055        0.148      339.690       13.195      863.701
01/27/2014  15:43:00      -38.685      -10.566       -5.180       18.446       19.318        9.437      340.237      373.203       89.059        0.122        0.040       40.102        4.453        0.012      339.717       13.244      863.712
01/27/2014  15:44:00      -59.282        0.701       -5.714       28.446       14.547       13.917      809.202      211.617      193.691        0.238        0.061       59.287       12.442        0.044      339.742       13.283      863.723
01/27/2014  15:45:00      -82.706        0.996       -8.646       16.951       13.211        9.371      287.320      174.519       87.820        0.373        0.027       82.712        3.935        0.002      339.728       13.260      863.732
01/27/2014  15:46:00      -68.318      -30.235       -8.185       17.073       14.715        9.241      291.478      216.539       85.390        0.312        0.030       74.710        5.936        0.006      339.722       13.249      863.742
01/27/2014  15:47:00      -59.095      -13.826       -1.412       20.072       14.523        8.057      402.878      210.920       64.916        0.218        0.034       60.690        8.338        0.019      339.734       13.270      863.745
01/27/2014  15:48:00      -71.657      -20.352       -8.962       26.967       15.044       10.680      727.245      226.319      114.057        0.335        0.053       74.491        7.738        0.011      339.716       13.243      863.735
01/27/2014  15:49:00      -56.411       -8.940       -8.614       14.916        9.578       10.898      222.498       91.742      118.768        0.188        0.022       57.115        5.633        0.010      339.721       13.252      863.720
01/27/2014  15:50:00      -54.108        4.512       -5.296       29.523        9.995       11.488      871.600       99.899      131.985        0.204        0.055       54.296       12.287        0.051      339.760       13.316      863.719
01/27/2014  15:51:00      -80.055       21.534       -9.289       18.302       15.968       10.740      334.974      254.975      115.340        0.383        0.035       82.901        5.491        0.004      339.728       13.261      863.719
01/27/2014  15:52:00      -84.270      -40.755       -3.196       13.154       18.191        8.344      173.021      330.925       69.625        0.467        0.029       93.607        3.284        0.001      339.733       13.271      863.735
01/27/2014  15:53:00     -102.067      -27.455      -10.433       11.763       18.218       11.210      138.363      331.913      125.673        0.594        0.030      105.695        5.032        0.002      339.717       13.244      863.748
01/27/2014  15:54:00      -89.594      -31.764      -10.194       16.300       17.916       13.652      265.685      320.977      186.379        0.496        0.039       95.058       10.630        0.013      339.723       13.251      863.759
01/27/2014  15:55:00     -104.455      -46.080       -6.168       24.839       24.354       17.622      616.985      593.107      310.528        0.730        0.076      114.167       13.912        0.015      339.762       13.318      863.783
01/27/2014  15:56:00     -105.765       -9.138       -0.341       30.980       28.064       21.742      959.743      787.572      472.734        0.674        0.111      106.159       20.181        0.036      339.747       13.292      863.803
01/27/2014  15:57:00      -78.605      -11.203        5.007       44.646       37.531       26.060     1993.242     1408.558      679.101        0.520        0.204       79.400       18.807        0.056      339.776       13.343      863.820
01/27/2014  15:58:00     -124.265      -30.349        2.153       35.666       32.625       19.466     1272.098     1064.370      378.925        0.954        0.136      127.917       16.504        0.017      339.764       13.322      863.843
01/27/2014  15:59:00     -159.146      -42.103       -2.450       37.530       30.618       18.254     1408.514      937.437      333.198        1.489        0.134      164.621       16.008        0.009      339.756       13.308      863.865
01/27/2014  16:00:00     -128.179      -41.101       -4.461       47.515       30.063       22.051     2257.666      903.791      486.259        1.089        0.182      134.608       18.634        0.019      339.769       13.330      863.873
01/27/2014  16:01:00     -102.032      -52.510        0.825       62.145       33.051       22.727     3862.063     1092.366      516.531        0.932        0.274      114.751       25.419        0.049      339.778       13.346      863.882
01/27/2014  16:02:00     -112.863      -85.866       -1.401       42.546       30.717       23.747     1810.156      943.503      563.918        1.171        0.166      141.814       22.401        0.025      339.765       13.322      863.883
01/27/2014  16:03:00      -71.741      -44.611        3.809       36.789       24.691       25.216     1353.444      609.664      635.826        0.487        0.130       84.480       24.704        0.086      339.761       13.316      863.888
01/27/2014  16:04:00      -45.488      -40.697        8.396       35.726       34.847       20.442     1276.338     1214.296      417.881        0.335        0.145       61.036        5.415        0.008      339.857       13.479      863.902
01/27/2014  16:05:00      -63.633        5.448       -2.426       26.166       26.162       12.456      684.666      684.443      155.154        0.280        0.076       63.866       11.148        0.030      339.820       13.415      863.899
01/27/2014  16:06:00      -64.287       12.850       -0.415       21.347       14.802       16.078      455.702      219.100      258.511        0.262        0.047       65.559       13.071        0.040      339.828       13.428      863.892
01/27/2014  16:07:00      -60.616       17.330       -4.820       19.058       13.351        8.573      363.215      178.242       73.490        0.231        0.031       63.045        5.559        0.008      339.786       13.360      863.895
01/27/2014  16:08:00      -70.032       21.105       -9.843       19.047       12.813        6.373      362.770      164.178       40.617        0.301        0.028       73.143        4.738        0.004      339.786       13.364      863.891
01/27/2014  16:09:00      -61.031        4.787       -5.156       18.827       13.984        8.670      354.449      195.554       75.170        0.220        0.031       61.219        7.728        0.016      339.786       13.360      863.893
01/27/2014  16:10:00      -55.172      -40.135       -1.737       26.195       24.075       18.345      686.168      579.587      336.550        0.313        0.080       68.226        5.906        0.007      339.792       13.370      863.914
01/27/2014  16:11:00      -46.856      -38.622       -7.265       20.002       25.355       18.264      400.077      642.898      333.572        0.256        0.069       60.722        9.844        0.026      339.812       13.403      863.924
01/27/2014  16:12:00      -46.416      -36.656       -4.377       27.288       20.617       15.022      744.617      425.060      225.663        0.246        0.070       59.145       10.424        0.031      339.812       13.402      863.928
01/27/2014  16:13:00      -73.466      -39.120       -4.936       28.151       17.206       14.676      792.500      296.060      215.374        0.413        0.065       83.232       15.980        0.037      339.827       13.425      863.928
01/27/2014  16:14:00      -58.538      -28.842       -9.089       18.683       13.767       11.787      349.069      189.542      138.926        0.251        0.034       65.258        9.758        0.022      339.831       13.433      863.922
01/27/2014  16:15:00      -46.962      -17.175       -0.081       25.111       20.351       20.147      630.551      414.156      405.899        0.198        0.073       50.004       18.858        0.142      339.820       13.414      863.924
01/27/2014  16:16:00      -49.898      -16.327       -1.548       17.611       14.653        9.663      310.159      214.704       93.374        0.169        0.031       52.501       10.447        0.040      339.825       13.423      863.920
01/27/2014  16:17:00      -66.983      -32.811       -8.333       12.032        8.883        7.308      144.764       78.904       53.408        0.295        0.014       74.587        3.427        0.002      339.811       13.400      863.909
01/27/2014  16:18:00      -55.201      -37.056       -5.226       15.573       10.742        7.414      242.526      115.382       54.966        0.243        0.021       66.486        6.559        0.010      339.822       13.417      863.903
01/27/2014  16:19:00      -30.351      -27.428       -1.349       29.328       15.363       13.498      860.150      236.024      182.198        0.148        0.064       40.909       12.477        0.093      339.825       13.423      863.900
01/27/2014  16:20:00      -28.767      -27.495        9.125       22.209       15.658       18.006      493.255      245.161      324.226        0.136        0.053       39.794       14.841        0.139      339.827       13.428      863.906
01/27/2014  16:21:00      -54.069      -40.929        0.445       26.218       18.662       17.356      687.390      348.271      301.231        0.297        0.067       67.813       16.467        0.059      339.767       13.327      863.919
01/27/2014  16:22:00      -79.928      -15.633      -10.983       16.156       13.964       10.980      261.012      194.986      120.568        0.366        0.029       81.443       10.021        0.015      339.772       13.337      863.925
01/27/2014  16:23:00      -64.299       -9.911       -4.479       26.670       20.092       12.292      711.297      403.675      151.098        0.276        0.063       65.058       14.815        0.052      339.781       13.350      863.936
01/27/2014  16:24:00      -41.704      -23.797       -0.569       27.918       20.254       11.413      779.433      410.216      130.259        0.181        0.066       48.016        9.668        0.041      339.782       13.352      863.950
01/27/2014  16:25:00      -21.955      -24.180        5.083       21.324       13.773       13.518      454.697      189.698      182.728        0.096        0.041       32.660        9.887        0.092      339.789       13.364      863.961
01/27/2014  16:26:00      -31.834      -40.915       -3.011       20.961       18.057       11.333      439.376      326.039      128.429        0.180        0.045       51.841       12.452        0.058      339.827       13.428      863.960
01/27/2014  16:27:00      -29.857      -25.107        1.360       19.627       16.208        9.575      385.213      262.686       91.685        0.113        0.037       39.010        7.431        0.036      339.859       13.482      863.956
01/27/2014  16:28:00      -57.940      -30.194       -6.629       16.248        9.395       10.862      264.003       88.267      117.980        0.239        0.024       65.335        9.079        0.019      339.814       13.406      863.954
01/27/2014  16:29:00      -26.910      -26.016       -1.928       22.420       13.964       10.505      502.665      194.999      110.348        0.111        0.040       37.429        8.192        0.048      339.819       13.413      863.964
01/27/2014  16:30:00      -57.683      -23.324       -4.667        8.746        6.662        4.438       76.494       44.380       19.696        0.202        0.007       62.220        2.755        0.002      339.818       13.410      863.974
01/27/2014  16:31:00      -56.493      -34.269       -4.036       16.731       16.905       10.697      279.925      285.775      114.431        0.253        0.034       66.074        5.662        0.007      339.780       13.348      863.978
01/27/2014  16:32:00      -49.832      -35.352       -3.955       21.218       11.345        8.850      450.214      128.710       78.319        0.220        0.033       61.098        8.722        0.020      339.827       13.427      863.974
01/27/2014  16:33:00      -60.530      -22.720       -2.006       11.217       16.512        7.282      125.832      272.648       53.031        0.232        0.023       64.654        6.035        0.009      339.810       13.399      863.974
01/27/2014  16:34:00      -57.991      -29.919        1.322       11.311        7.952        7.982      127.930       63.230       63.708        0.226        0.013       65.254        5.760        0.008      339.830       13.430      863.989
01/27/2014  16:35:00      -19.539      -12.507        5.323       28.844       13.632       11.889      831.968      185.828      141.341        0.086        0.058       23.199       13.330        0.330      339.845       13.456      863.995
01/27/2014  16:36:00       -4.368       -6.845        5.454        9.169        8.045        9.814       84.068       64.728       96.319        0.017        0.012        8.120        4.762        0.344      339.855       13.475      864.000
01/27/2014  16:37:00      -22.336      -21.688        2.601       13.133       11.487        8.344      172.472      131.955       69.621        0.067        0.019       31.133        8.004        0.066      339.797       13.379      863.999
01/27/2014  16:38:00      -30.980      -23.546        0.623       14.448       10.499        7.706      208.743      110.220       59.383        0.095        0.019       38.913        7.845        0.041      339.766       13.325      863.987
01/27/2014  16:39:00      -26.178      -31.960        3.840       18.141       13.582        8.765      329.095      184.462       76.827        0.116        0.030       41.313        8.200        0.039      339.794       13.373      863.976
01/27/2014  16:40:00      -28.105      -20.074        7.627       28.581       13.636       14.215      816.900      185.928      202.067        0.123        0.060       34.538       17.900        0.269      339.775       13.341      863.974
01/27/2014  16:41:00      -30.733      -28.428        3.766       23.779       17.317       12.261      565.444      299.868      150.344        0.139        0.051       41.865       12.579        0.090      339.748       13.293      863.979
01/27/2014  16:42:00      -32.444      -23.755        5.281       25.345       17.655       12.402      642.368      311.701      153.816        0.138        0.055       40.211       10.032        0.062      339.749       13.297      863.969
01/27/2014  16:43:00      -12.938      -21.045        8.780       18.774       21.007       14.476      352.479      441.295      209.560        0.085        0.050       24.704        9.933        0.162      339.819       13.413      863.963
01/27/2014  16:44:00      -18.290      -23.789        6.388       28.255       21.945       15.904      798.360      481.563      252.933        0.124        0.077       30.007       17.318        0.333      339.828       13.429      863.965
01/27/2014  16:45:00      -27.448      -33.397        4.195       27.013       23.617       16.081      729.704      557.757      258.590        0.172        0.077       43.229       14.271        0.109      339.787       13.360      863.980
01/27/2014  16:46:00      -34.779      -27.784        3.306       27.265       20.736       14.638      743.369      429.964      214.285        0.169        0.069       44.514       14.536        0.107      339.748       13.294      863.991
01/27/2014  16:47:00      -34.860      -24.666        3.883       32.755       19.589       18.851     1072.859      383.711      355.355        0.183        0.091       42.704       19.162        0.201      339.779       13.346      863.995
01/27/2014  16:48:00      -43.873      -27.264       -1.292       32.134       23.445       18.084     1032.571      549.648      327.027        0.229        0.095       51.654       15.377        0.089      339.782       13.353      863.996
01/27/2014  16:49:00      -44.911      -36.988       -2.053       36.624       16.518       16.306     1341.315      272.852      265.874        0.263        0.094       58.182       14.592        0.063      339.790       13.364      864.002
01/27/2014  16:50:00      -35.300      -36.230        3.416       36.756       24.066       16.200     1350.995      579.191      262.437        0.238        0.110       50.584       19.670        0.151      339.753       13.302      864.001
01/27/2014  16:51:00      -60.829      -67.831       -1.320       16.530       18.091       10.498      273.251      327.274      110.206        0.451        0.036       91.111        7.971        0.008      339.784       13.355      863.988
01/27/2014  16:52:00      -47.127      -50.820        1.178       30.949       16.100       15.992      957.830      259.215      255.738        0.314        0.074       69.308       16.432        0.056      339.771       13.334      863.976
01/27/2014  16:53:00      -55.529      -58.881       -2.410       28.995       19.509       18.335      840.723      380.603      336.168        0.406        0.078       80.935       19.563        0.058      339.769       13.331      863.977
01/27/2014  16:54:00      -51.355      -70.441       -1.685       19.383       23.029       12.856      375.683      530.341      165.274        0.434        0.054       87.174       11.174        0.016      339.787       13.361      863.963
01/27/2014  16:55:00      -53.081      -51.221       -0.343       39.191       24.892       14.267     1535.935      619.602      203.534        0.390        0.118       73.764       15.921        0.047      339.727       13.259      863.954
01/27/2014  16:56:00      -45.158      -53.785       -4.204        8.739       17.388        8.724       76.365      302.338       76.104        0.270        0.023       70.229        4.168        0.004      339.790       13.368      863.943
01/27/2014  16:57:00      -40.927      -47.420       -0.313       12.629       11.688        7.539      159.479      136.607       56.835        0.214        0.018       62.639        5.699        0.008      339.794       13.373      863.929
01/27/2014  16:58:00      -18.597       -8.192        4.505       11.278       14.356        3.703      127.191      206.106       13.710        0.039        0.017       20.321        4.019        0.039      339.730       13.264      863.927
01/27/2014  16:59:00      -14.711       13.581        2.509        9.071        6.965        7.280       82.285       48.516       52.994        0.030        0.009       20.022        4.710        0.055      339.711       13.229      863.930
01/27/2014  17:00:00        0.345        9.856        9.987        7.213        4.255        4.780       52.027       18.102       22.849        0.014        0.005        9.862        4.425        0.201      339.701       13.215      863.926
01/27/2014  17:01:00       13.218       15.499        1.778       16.546       11.003        7.598      273.768      121.073       57.735        0.044        0.023       20.370        7.452        0.134      339.698       13.209      863.935
01/27/2014  17:02:00       20.364       22.752        0.305        9.603        6.165        7.579       92.213       38.002       57.435        0.056        0.009       30.535        5.466        0.032      339.753       13.302      863.925
01/27/2014  17:03:00        2.992        5.904        5.380        7.254        8.844        4.975       52.615       78.219       24.750        0.011        0.008        6.619        5.241        0.627      339.702       13.216      863.918
01/27/2014  17:04:00        0.856       14.106        4.045        3.378        7.750        5.136       11.409       60.058       26.378        0.016        0.005       14.132        4.363        0.095      339.694       13.204      863.917
01/27/2014  17:05:00        1.404        7.626       -0.155        3.088        4.713        3.676        9.538       22.211       13.512        0.005        0.002        7.754        3.482        0.202      339.716       13.237      863.913
01/27/2014  17:06:00       12.544        4.163       -6.854        5.775        5.953        4.728       33.349       35.443       22.356        0.016        0.005       13.216        2.920        0.049      339.621       13.083      863.911
01/27/2014  17:07:00       10.035        8.454       -2.267        2.673        2.093        2.542        7.146        4.381        6.462        0.010        0.001       13.121        1.350        0.011      339.606       13.051      863.905
01/27/2014  17:08:00        3.320        5.764       -0.314        5.632        3.734        4.865       31.722       13.940       23.665        0.006        0.003        6.652        2.538        0.146      339.600       13.048      863.900
01/27/2014  17:09:00        4.699        4.149        2.826        4.349        3.378        4.708       18.916       11.414       22.162        0.005        0.003        6.268        2.155        0.118      339.586       13.025      863.900
01/27/2014  17:10:00        8.982        6.820        5.613        3.010        3.152        2.911        9.057        9.935        8.475        0.009        0.001       11.278        2.634        0.055      339.579       13.016      863.895
01/27/2014  17:11:00        4.529        2.866       -1.800        3.903        3.111        4.010       15.234        9.678       16.079        0.004        0.002        5.359        2.634        0.242      339.518       12.908      863.890
01/27/2014  17:12:00      -13.166        2.643       -3.963        5.346        2.576        2.077       28.583        6.634        4.314        0.012        0.002       13.428        1.172        0.008      339.505       12.882      863.901
01/27/2014  17:13:00      -22.879        1.161       -2.860        3.653        1.839        2.929       13.344        3.382        8.577        0.028        0.001       22.908        2.310        0.010      339.516       12.904      863.904
01/27/2014  17:14:00      -25.320      -12.214       -0.894        5.084        7.492        6.145       25.846       56.129       37.760        0.046        0.006       28.112        3.141        0.012      339.442       12.779      863.908
01/27/2014  17:15:00      -24.715       -5.735       -0.940        9.794        9.738        3.827       95.913       94.819       14.645        0.042        0.010       25.372        5.161        0.041      339.337       12.602      863.917
01/27/2014  17:16:00       -9.832       -6.936        1.343       24.405       11.682        9.919      595.612      136.462       98.385        0.049        0.042       12.032       10.251        0.726      339.374       12.662      863.918
01/27/2014  17:17:00      -26.422      -19.266        3.106       16.513       21.100       11.295      272.680      445.217      127.586        0.096        0.042       32.701       10.261        0.098      339.367       12.651      863.904
01/27/2014  17:18:00       -8.783      -23.803        1.003       11.377       15.865       11.968      129.441      251.684      143.231        0.058        0.026       25.372        8.246        0.106      339.492       12.864      863.912
01/27/2014  17:19:00       -3.619       -2.612        4.447        6.322        7.014        6.118       39.972       49.199       37.430        0.008        0.006        4.463        1.441        0.104      339.449       12.790      863.909
01/27/2014  17:20:00      -26.485        3.192       -6.973       14.802       14.549       11.412      219.092      211.677      130.242        0.066        0.028       26.677        7.773        0.085      339.522       12.914      863.922
01/27/2014  17:21:00      -33.772       11.605       -7.475       13.696       12.511        6.457      187.583      156.531       41.693        0.086        0.019       35.710        6.443        0.033      339.539       12.942      863.943
01/27/2014  17:22:00      -22.221        6.558       -1.238       13.332       13.377       11.812      177.740      178.934      139.522        0.052        0.025       23.169        9.998        0.186      339.433       12.763      863.946
01/27/2014  17:23:00        3.070        7.201        1.981        8.021        7.653        7.104       64.343       58.562       50.471        0.012        0.009        7.828        2.950        0.142      339.438       12.772      863.952
01/27/2014  17:24:00        8.857        5.043        5.198       11.364       11.359        6.328      129.134      129.019       40.045        0.021        0.015       10.192        6.853        0.452      339.453       12.796      863.950
01/27/2014  17:25:00       25.837       26.686        2.590       11.326        8.480       10.013      128.280       71.908      100.260        0.084        0.015       37.144        9.216        0.062      339.466       12.817      863.940
01/27/2014  17:26:00       17.597       31.812       -3.426       17.844        8.234        6.651      318.421       67.795       44.237        0.088        0.022       36.354        5.156        0.020      339.517       12.906      863.935
01/27/2014  17:27:00       11.775       29.513       -2.667       11.932        7.707        5.341      142.369       59.390       28.524        0.062        0.012       31.775        6.197        0.038      339.561       12.984      863.942
01/27/2014  17:28:00        6.631       28.057        1.092       12.365       11.956        8.375      152.899      142.951       70.134        0.060        0.018       28.831        4.885        0.029      339.532       12.930      863.943
01/27/2014  17:29:00       39.083       25.575        0.097       14.453       10.678       12.300      208.887      114.020      151.298        0.133        0.024       46.707        9.782        0.044      339.457       12.802      863.948
01/27/2014  17:30:00       34.877       14.773        5.807       14.713       10.278        8.458      216.476      105.628       71.531        0.093        0.020       37.877        4.984        0.017      339.317       12.566      863.961
01/27/2014  17:31:00       44.613       16.637       12.914       18.780       11.578       11.429      352.689      134.041      130.622        0.153        0.031       47.614       10.329        0.047      339.302       12.545      863.962
01/27/2014  17:32:00       28.108       15.819       16.774       17.364       11.909       12.151      301.496      141.815      147.639        0.096        0.030       32.254        9.345        0.084      339.339       12.604      863.980
01/27/2014  17:33:00       18.143       14.911       18.601       13.563       10.205        9.063      183.955      104.132       82.140        0.063        0.019       23.484        6.768        0.083      339.281       12.506      863.989
01/27/2014  17:34:00       33.555       21.468       13.352       15.027       11.372        7.997      225.823      129.314       63.950        0.109        0.021       39.834        8.024        0.041      339.284       12.509      863.987
01/27/2014  17:35:00        8.853       -2.261        5.043       12.541        9.799        6.362      157.288       96.013       40.470        0.020        0.015        9.137        5.299        0.336      339.310       12.555      863.992
01/27/2014  17:36:00       -9.673      -10.260       -0.327       21.171       11.274        8.508      448.230      127.098       72.395        0.042        0.032       14.101        3.250        0.053      339.188       12.351      864.002
01/27/2014  17:37:00      -16.715      -14.097        3.212       10.063        9.442        6.969      101.273       89.155       48.573        0.036        0.012       21.866        3.343        0.023      338.980       12.001      863.990
01/27/2014  17:38:00      -14.212      -18.803       -6.189        8.692        7.504        7.382       75.551       56.313       54.488        0.039        0.009       23.569        3.050        0.017      338.948       11.945      863.982
01/27/2014  17:39:00       17.495      -34.253        6.196       29.444       16.082       15.047      866.969      258.645      226.406        0.143        0.068       38.462       11.909        0.096      339.294       12.530      863.981
01/27/2014  17:40:00       23.048      -42.136        6.009       30.205       19.013       15.822      912.354      361.491      250.331        0.193        0.076       48.027       16.554        0.119      339.307       12.551      863.985
01/27/2014  17:41:00        8.991      -31.479        7.692       36.399       11.239       11.241     1324.871      126.309      126.360        0.135        0.079       32.738        9.075        0.077      339.218       12.401      863.981
01/27/2014  17:42:00      -10.504       -9.011       -5.317        7.299       13.395        6.735       53.271      179.415       45.360        0.025        0.014       13.839        5.481        0.157      338.947       11.944      863.979
01/27/2014  17:43:00       -1.232       20.745       -4.432       10.151       13.645        5.929      103.037      186.198       35.157        0.039        0.016       20.781        4.396        0.045      339.147       12.281      863.978
01/27/2014  17:44:00        2.191       35.379       -3.994       19.238       16.070        9.942      370.088      258.259       98.853        0.100        0.036       35.446       10.503        0.088      339.162       12.308      863.974
01/27/2014  17:45:00       12.097       45.335       -2.183       15.628       19.991       13.262      244.236      399.642      175.887        0.151        0.041       46.921        9.775        0.043      339.177       12.333      863.975
01/27/2014  17:46:00        1.046       53.782       -6.929       11.777        9.539        4.807      138.687       90.994       23.106        0.160        0.013       53.792        3.558        0.004      339.265       12.482      863.984
01/27/2014  17:47:00       -6.530       27.083       -0.561        8.633       14.197        8.663       74.531      201.553       75.041        0.056        0.018       27.859        7.842        0.079      339.239       12.437      863.985
01/27/2014  17:48:00      -14.738        3.049        4.480       14.209       18.737        7.502      201.894      351.089       56.280        0.043        0.030       15.050        5.077        0.114      339.051       12.118      863.975
01/27/2014  17:49:00      -40.740      -19.305       -7.730       11.927        9.380        7.314      142.246       87.982       53.493        0.119        0.014       45.083        4.586        0.010      338.646       11.439      863.953
01/27/2014  17:50:00      -34.730      -17.010       -9.033       13.645       11.167        8.118      186.191      124.695       65.902        0.098        0.019       38.671        7.886        0.042      338.618       11.390      863.938
01/27/2014  17:51:00      -27.544      -15.876       -9.527       11.489        9.571        5.822      132.002       91.610       33.900        0.068        0.013       31.792        5.667        0.032      338.630       11.412      863.920
01/27/2014  17:52:00        2.741       -4.297       -2.784        8.224        9.167        3.650       67.633       84.039       13.320        0.010        0.008        5.096        1.696        0.111      338.997       12.028      863.910
01/27/2014  17:53:00        4.978        9.532       -0.701       10.885        7.128        6.073      118.477       50.815       36.878        0.016        0.010       10.753        3.394        0.100      339.043       12.106      863.902
01/27/2014  17:54:00       11.345        5.671        2.132        6.845        4.546        3.961       46.848       20.666       15.690        0.012        0.004       12.684        2.929        0.053      339.015       12.059      863.915
01/27/2014  17:55:00        8.666       12.479       -1.573        9.913        9.235        9.071       98.258       85.290       82.288        0.025        0.013       15.193        6.776        0.199      339.007       12.045      863.920
01/27/2014  17:56:00       -0.033        9.310       -3.497       11.051       10.425        6.250      122.134      108.681       39.061        0.018        0.013        9.310        3.223        0.120      339.066       12.145      863.914
01/27/2014  17:57:00        6.439       15.990        0.524       12.358       13.958        8.302      152.722      194.838       68.927        0.036        0.021       17.238        5.402        0.098      339.072       12.153      863.915
01/27/2014  17:58:00        3.830       14.127       -1.535       15.350       20.339        9.734      235.621      413.692       94.752        0.048        0.037       14.637        8.209        0.315      339.079       12.165      863.925
01/27/2014  17:59:00       -7.205       10.638       -2.717        9.255       15.523        6.507       85.649      240.975       42.341        0.027        0.018       12.848        7.131        0.308      339.055       12.127      863.935
01/27/2014  18:00:00      -39.353       -1.063       -9.585       11.209       18.481        4.708      125.651      341.558       22.164        0.107        0.024       39.367        7.394        0.035      338.709       11.545      863.949
01/27/2014  18:01:00      -64.169      -16.673      -11.910       11.385        7.865        6.192      129.621       61.853       38.342        0.238        0.011       66.299        2.954        0.002      338.438       11.089      863.979
01/27/2014  18:02:00      -79.214      -15.830      -11.369       14.740       13.652        7.988      217.271      186.380       63.810        0.356        0.023       80.780        6.878        0.007      338.463       11.131      864.013
01/27/2014  18:03:00     -123.898       -2.610      -17.214       20.719       12.281       11.698      429.295      150.835      136.854        0.819        0.036      123.926        8.999        0.005      338.339       10.923      864.038
01/27/2014  18:04:00     -156.760       16.560      -19.571       12.151        9.000        5.796      147.646       80.995       33.596        1.275        0.013      157.632        3.654        0.001      338.370       10.976      864.066
01/27/2014  18:05:00     -112.051       13.423      -11.669       32.330       17.060       14.200     1045.243      291.047      201.648        0.720        0.077      112.852       14.107        0.016      338.296       10.852      864.088
01/27/2014  18:06:00      -60.365        3.759       -4.348       26.603       24.912       16.065      707.696      620.609      258.071        0.263        0.079       60.482       11.357        0.035      338.323       10.895      864.118
01/27/2014  18:07:00      -39.393        3.083      -14.182       14.400       11.762        9.453      207.367      138.337       89.351        0.110        0.022       39.513        7.043        0.032      338.343       10.930      864.141
01/27/2014  18:08:00      -44.621        5.162      -14.398       11.519       14.146       11.487      132.685      200.103      131.954        0.134        0.023       44.918        6.059        0.018      338.457       11.121      864.161
01/27/2014  18:09:00      -79.949       30.743      -16.987       34.018       26.886       13.686     1157.206      722.847      187.311        0.485        0.103       85.656       10.512        0.015      338.591       11.348      864.175
01/27/2014  18:10:00      -41.229       22.253      -10.765       18.287       18.923       13.347      334.412      358.099      178.134        0.159        0.044       46.852        7.081        0.023      338.523       11.233      864.195
01/27/2014  18:11:00      -36.601        1.627       -9.207       19.909       19.839       13.466      396.370      393.606      181.325        0.120        0.049       36.637       11.579        0.100      338.485       11.169      864.199
01/27/2014  18:12:00      -44.383      -19.209      -15.346       10.047       10.102        7.832      100.941      102.058       61.337        0.142        0.013       48.362        4.552        0.009      338.337       10.919      864.197
01/27/2014  18:13:00      -40.784      -24.158       -7.932       13.063        8.730        9.264      170.636       76.207       85.816        0.132        0.017       47.402        5.064        0.011      338.299       10.855      864.204
01/27/2014  18:14:00      -54.537      -25.660      -13.398        9.292       11.464       10.121       86.348      131.427      102.434        0.207        0.016       60.272        4.416        0.005      338.277       10.819      864.231
01/27/2014  18:15:00      -72.468      -29.681      -18.157       15.243       14.826       11.111      232.363      219.801      123.449        0.352        0.029       78.311        5.348        0.005      338.183       10.661      864.256
01/27/2014  18:16:00      -71.654      -41.311       -6.306       36.375       26.327       18.429     1323.166      693.099      339.640        0.462        0.118       82.709       12.611        0.023      338.087       10.501      864.276
01/27/2014  18:17:00     -106.465      -24.265      -15.556       16.328       21.073       12.957      266.618      444.061      167.892        0.652        0.044      109.195        7.344        0.005      337.981       10.323      864.290
01/27/2014  18:18:00      -93.395      -21.433      -11.501       26.081       22.796       14.742      680.234      519.677      217.337        0.537        0.071       95.822       11.076        0.013      337.951       10.272      864.313
01/27/2014  18:19:00      -67.615      -20.959       -9.520       26.431       21.953       16.518      698.594      481.929      272.855        0.328        0.073       70.789        9.640        0.019      337.953       10.276      864.322
01/27/2014  18:20:00      -61.207      -23.360       -6.895       41.075       27.049       16.267     1687.130      731.675      264.600        0.351        0.134       65.513        9.749        0.022      338.033       10.411      864.315
01/27/2014  18:21:00      -29.333       -6.089       -4.369       28.993       31.723       19.584      840.620     1006.344      383.547        0.157        0.112       29.958       20.517        0.469      338.120       10.556      864.325
01/27/2014  18:22:00      -33.123        2.823       -5.939       23.549       24.142       16.136      554.543      582.838      260.375        0.127        0.070       33.243       12.347        0.138      338.204       10.698      864.337
01/27/2014  18:23:00      -42.418       -1.494      -15.327       23.078       30.718       16.974      532.596      943.624      288.108        0.190        0.088       42.445       13.997        0.109      338.206       10.700      864.340
01/27/2014  18:24:00      -68.143      -12.586      -13.767       29.212       21.415       12.575      853.317      458.622      158.135        0.323        0.074       69.296       11.055        0.025      338.137       10.584      864.343
01/27/2014  18:25:00      -49.385       -9.026      -18.015       25.493       19.431       14.399      649.910      377.551      207.337        0.204        0.062       50.203       11.527        0.053      338.070       10.473      864.349
01/27/2014  18:26:00      -63.113      -20.909       -6.975       16.953       16.482       12.221      287.400      271.668      149.350        0.259        0.035       66.486        3.893        0.003      338.018       10.384      864.355
01/27/2014  18:27:00      -54.978      -27.877       -7.451       18.333       12.682       10.141      336.086      160.836      102.850        0.223        0.030       61.642        6.810        0.012      338.057       10.451      864.358
01/27/2014  18:28:00      -57.795      -16.705      -13.943       18.544       13.875        9.926      343.864      192.506       98.525        0.222        0.032       60.161        7.582        0.016      338.030       10.405      864.364
01/27/2014  18:29:00      -61.363      -14.790       -7.914       14.746        9.957        8.601      217.437       99.140       73.971        0.222        0.020       63.120        7.304        0.013      338.064       10.461      864.367
01/27/2014  18:30:00      -59.031      -23.910      -15.225        7.810        9.969        8.766       60.989       99.384       76.840        0.226        0.012       63.689        4.985        0.006      338.163       10.627      864.373
01/27/2014  18:31:00      -53.434      -36.885      -14.527       10.506       13.838       11.256      110.366      191.484      126.695        0.243        0.021       64.929        9.068        0.020      338.221       10.726      864.390
01/27/2014  18:32:00      -58.226      -27.221       -7.263        9.545       12.472       13.294       91.103      155.542      176.728        0.230        0.021       64.274        8.141        0.016      338.135       10.581      864.410
01/27/2014  18:33:00      -70.685      -31.803      -11.065       10.616       15.267        9.257      112.699      233.090       85.692        0.328        0.022       77.510        3.786        0.002      338.156       10.615      864.428
01/27/2014  18:34:00      -80.201      -31.272      -16.605        9.725       15.115       10.176       94.585      228.455      103.547        0.406        0.021       86.082        9.027        0.011      338.181       10.660      864.447
01/27/2014  18:35:00      -79.853      -27.889      -14.155       16.404       16.977       10.106      269.078      288.232      102.128        0.401        0.033       84.583        7.455        0.008      338.110       10.539      864.480
01/27/2014  18:36:00      -84.332      -32.180      -17.928       21.528       19.936       11.041      463.446      397.434      121.912        0.473        0.049       90.263       12.211        0.018      338.081       10.492      864.496
01/27/2014  18:37:00      -88.882       -9.547      -16.062       16.166       13.166       10.623      261.346      173.342      112.841        0.440        0.027       89.393        4.110        0.002      338.157       10.618      864.488
01/27/2014  18:38:00      -98.308       -6.285       -9.615       10.006       10.822        7.276      100.119      117.122       52.939        0.503        0.014       98.509        3.800        0.001      338.224       10.730      864.474
01/27/2014  18:39:00      -94.619      -14.109      -13.640       10.503       12.441        6.629      110.310      154.788       43.947        0.482        0.015       95.665        4.820        0.003      338.232       10.745      864.471
01/27/2014  18:40:00      -75.718        0.138      -14.851        6.133        6.987        6.083       37.614       48.821       37.003        0.304        0.006       75.719        2.832        0.001      338.267       10.800      864.463
01/27/2014  18:41:00      -64.163      -13.492      -10.721        8.058        8.357        4.917       64.939       69.840       24.175        0.229        0.008       65.566        1.752        0.001      338.282       10.828      864.440
01/27/2014  18:42:00      -66.636      -10.190      -12.936        5.177        5.737        4.254       26.798       32.911       18.092        0.239        0.004       67.411        2.951        0.002      338.325       10.901      864.417
01/27/2014  18:43:00      -52.731      -15.361       -8.965        6.708        5.657        4.824       44.992       32.005       23.276        0.160        0.005       54.923        2.349        0.002      338.373       10.979      864.397
01/27/2014  18:44:00      -64.343      -18.183       -5.421        9.403        6.308        4.988       88.418       39.791       24.883        0.233        0.008       66.862        4.420        0.004      338.391       11.010      864.367
01/27/2014  18:45:00      -66.031       -7.810      -13.007        7.909        5.091        5.115       62.554       25.917       26.166        0.235        0.006       66.491        2.735        0.002      338.474       11.151      864.349
01/27/2014  18:46:00      -78.596       -2.830      -12.219       11.186        5.400        6.500      125.129       29.160       42.256        0.327        0.010       78.647        3.224        0.002      338.275       10.817      864.351
01/27/2014  18:47:00      -75.071      -19.934      -13.026       12.027       10.680        9.148      144.654      114.061       83.689        0.327        0.017       77.673        6.207        0.006      338.224       10.730      864.358
01/27/2014  18:48:00      -64.659      -33.914       -9.562        8.598       10.172        7.725       73.924      103.464       59.681        0.283        0.012       73.013        2.751        0.001      338.190       10.673      864.362
01/27/2014  18:49:00      -88.251      -26.980      -11.862       16.307       12.866        7.900      265.926      165.536       62.416        0.458        0.025       92.282        8.766        0.009      338.134       10.580      864.378
01/27/2014  18:50:00     -100.554      -21.954      -16.358       15.426       20.111       12.517      237.952      404.466      156.676        0.583        0.040      102.923        6.811        0.004      338.023       10.392      864.408
01/27/2014  18:51:00      -79.188      -22.352       -6.817       25.893       17.630       16.696      670.466      310.833      278.746        0.404        0.063       82.283       15.376        0.035      337.967       10.300      864.450
01/27/2014  18:52:00     -112.103      -21.478      -11.325       20.484       17.071       18.044      419.577      291.424      325.581        0.710        0.052      114.142       15.937        0.019      337.920       10.220      864.486
01/27/2014  18:53:00      -89.223      -34.279      -13.709       20.067       26.360       12.201      402.698      694.864      148.863        0.528        0.062       95.581        8.267        0.007      337.953       10.275      864.510
01/27/2014  18:54:00      -96.530      -21.681      -12.688       26.765       23.152       13.840      716.370      536.005      191.548        0.570        0.072       98.934        7.315        0.005      337.938       10.249      864.517
01/27/2014  18:55:00      -91.507      -31.180      -13.501       21.756       24.842       14.454      473.323      617.136      208.916        0.541        0.065       96.674       11.431        0.014      337.893       10.175      864.537
01/27/2014  18:56:00      -83.403      -24.352       -6.951       34.427       29.939       18.275     1185.245      896.329      333.988        0.501        0.121       86.885       13.825        0.025      337.870       10.136      864.547
01/27/2014  18:57:00      -92.425      -37.642       -4.201       19.164       18.221       12.249      367.251      331.992      150.027        0.541        0.042       99.796        8.674        0.008      337.842       10.087      864.546
01/27/2014  18:58:00      -69.627      -44.103       -9.069       27.194       21.055       16.611      739.531      443.311      275.913        0.417        0.073       82.419       12.670        0.024      337.864       10.124      864.541
01/27/2014  18:59:00      -77.534      -62.389       -0.987       16.749       23.754       13.672      280.528      564.274      186.917        0.547        0.052       99.519       12.381        0.015      337.852       10.107      864.533
01/27/2014  19:00:00      -94.490      -23.341       -4.440       23.941       20.361       18.223      573.169      414.560      332.081        0.541        0.066       97.330       12.431        0.016      337.914       10.210      864.526
01/27/2014  19:01:00      -95.173      -37.723       -2.710       18.443       21.438       11.628      340.160      459.585      135.217        0.571        0.047      102.376       11.134        0.012      337.932       10.240      864.524
01/27/2014  19:02:00      -81.912      -53.661       -8.117       30.768       17.222       11.671      946.662      296.610      136.203        0.552        0.069       97.924        9.057        0.009      337.922       10.224      864.510
01/27/2014  19:03:00     -107.953      -45.187       -9.841       13.927       13.071        9.743      193.958      170.846       94.927        0.713        0.023      117.028        5.742        0.002      337.949       10.267      864.497
01/27/2014  19:04:00     -109.881      -34.124       -6.883       15.838       16.696       13.892      250.836      278.770      192.978        0.700        0.036      115.058       10.081        0.008      337.981       10.319      864.481
01/27/2014  19:05:00      -88.546      -30.576       -5.906       16.041       17.362        9.919      257.314      301.447       98.389        0.473        0.033       93.676        9.636        0.011      337.999       10.354      864.475
01/27/2014  19:06:00      -79.826      -27.058       -2.824       19.124       19.105       10.466      365.710      365.011      109.535        0.398        0.042       84.287        7.194        0.007      337.941       10.256      864.482
01/27/2014  19:07:00      -83.270      -29.981       -0.463       25.800       21.318       16.445      665.658      454.451      270.435        0.461        0.070       88.503       12.509        0.020      337.935       10.245      864.497
01/27/2014  19:08:00      -89.314      -38.540       -1.481       24.114       19.593       12.797      581.468      383.896      163.763        0.530        0.056       97.274       12.468        0.016      337.970       10.304      864.492
01/27/2014  19:09:00      -51.987      -22.660        9.114       32.040       17.214       14.474     1026.589      296.313      209.493        0.242        0.077       56.711       16.185        0.081      337.983       10.325      864.471
01/27/2014  19:10:00      -19.835      -17.269        3.252       20.447       11.585       12.387      418.097      134.207      153.445        0.070        0.035       26.299        6.113        0.054      338.006       10.367      864.454
01/27/2014  19:11:00      -59.462      -35.100        2.734       22.462       20.061       11.534      504.525      402.443      133.030        0.291        0.052       69.048       11.673        0.029      338.011       10.372      864.434
01/27/2014  19:12:00      -27.081      -21.794        6.424       33.411       17.734       11.166     1116.272      314.510      124.681        0.140        0.078       34.761       11.501        0.109      338.037       10.418      864.422
01/27/2014  19:13:00      -42.477      -25.021        6.496       33.004       21.045       14.748     1089.278      442.898      217.501        0.211        0.087       49.299       17.168        0.121      337.978       10.317      864.421
01/27/2014  19:14:00      -95.994      -33.865       -0.042       19.504       10.221        9.407      380.402      104.467       88.485        0.547        0.029      101.792        9.717        0.009      337.988       10.333      864.424
01/27/2014  19:15:00      -73.362      -31.716        0.823       22.628       15.971        9.198      512.044      255.061       84.607        0.362        0.043       79.924        8.265        0.011      338.014       10.378      864.428
01/27/2014  19:16:00      -66.180      -14.641       -3.116       15.256       11.382        7.584      232.743      129.549       57.515        0.251        0.021       67.781        5.652        0.007      338.007       10.366      864.437
01/27/2014  19:17:00      -58.335      -21.428        3.443       17.928       16.357       12.545      321.399      267.545      157.370        0.231        0.037       62.147       11.297        0.033      337.995       10.345      864.445
01/27/2014  19:18:00      -68.523       -8.848       -6.137       13.280       12.895       10.760      176.359      166.272      115.770        0.263        0.023       69.092        8.174        0.014      337.966       10.299      864.453
01/27/2014  19:19:00      -96.864      -11.701       -8.501       12.654       10.974        8.009      160.134      120.432       64.151        0.497        0.017       97.568        5.958        0.004      338.002       10.359      864.446
01/27/2014  19:20:00      -88.201      -11.910       -8.126       18.026       15.859       10.805      324.934      251.494      116.748        0.434        0.035       89.001        8.958        0.010      337.939       10.252      864.434
01/27/2014  19:21:00      -82.955      -14.617       -3.228       19.987       16.661       13.984      399.466      277.592      195.556        0.399        0.044       84.233       12.860        0.023      337.887       10.165      864.432
01/27/2014  19:22:00      -68.690      -16.393       -4.703       20.540       11.788        7.972      421.879      138.955       63.550        0.282        0.031       70.619        7.545        0.011      337.849       10.100      864.432
01/27/2014  19:23:00      -75.272      -12.498       -7.854       19.894       11.552       13.073      395.765      133.440      170.907        0.329        0.035       76.303       12.134        0.025      337.885       10.161      864.440
01/27/2014  19:24:00      -80.307      -19.797       -9.278       22.003       15.786       12.201      484.131      249.195      148.863        0.390        0.044       82.711       11.407        0.019      337.882       10.156      864.450
01/27/2014  19:25:00      -93.046      -18.181      -11.186       20.687       19.405       12.220      427.940      376.535      149.324        0.503        0.048       94.805        7.798        0.007      337.863       10.124      864.457
01/27/2014  19:26:00     -106.346      -16.320      -14.584       14.328       18.270       13.906      205.278      333.801      193.382        0.626        0.037      107.591        5.034        0.002      337.770        9.967      864.468
01/27/2014  19:27:00     -119.139       -6.010      -11.034       17.075       15.901       16.129      291.552      252.837      260.151        0.758        0.040      119.290       10.521        0.008      337.708        9.864      864.487
01/27/2014  19:28:00     -113.895       -7.782       -9.593       28.399       19.416       15.721      806.526      377.000      247.158        0.728        0.072      114.161       13.888        0.015      337.660        9.784      864.502
01/27/2014  19:29:00     -109.770      -17.314       -6.564       29.212       22.515       15.442      853.321      506.939      238.459        0.700        0.080      111.127       15.427        0.019      337.584        9.655      864.515
01/27/2014  19:30:00     -118.176      -10.937       -8.335       32.383       27.280       15.158     1048.637      744.176      229.761        0.809        0.101      118.681       11.937        0.010      337.593        9.671      864.527
01/27/2014  19:31:00     -112.364      -11.246        0.554       49.764       27.654       22.377     2476.493      764.759      500.730        0.825        0.187      112.925       26.068        0.053      337.538        9.580      864.532
01/27/2014  19:32:00     -105.094      -15.558        2.249       42.861       27.957       21.609     1837.032      781.598      466.936        0.719        0.154      106.239       25.072        0.056      337.526        9.559      864.538
01/27/2014  19:33:00     -108.557      -19.744        0.022       40.530       30.391       20.561     1642.644      923.605      422.770        0.758        0.149      110.338       21.149        0.037      337.484        9.489      864.555
01/27/2014  19:34:00      -80.852       -9.556        0.493       40.173       33.238       23.811     1613.872     1104.764      566.979        0.496        0.164       81.415       23.551        0.084      337.456        9.442      864.568
01/27/2014  19:35:00     -101.911        2.150      -10.112       42.006       30.231       26.875     1764.496      913.942      722.276        0.695        0.170      101.934       27.493        0.073      337.480        9.483      864.580
01/27/2014  19:36:00      -99.806      -10.605      -13.312       42.744       31.976       22.771     1827.047     1022.482      518.530        0.681        0.168      100.368       18.724        0.035      337.429        9.397      864.592
01/27/2014  19:37:00      -98.203       -9.255       -5.534       47.320       29.330       21.397     2239.222      860.261      457.845        0.666        0.178       98.638       23.193        0.055      337.431        9.400      864.594
01/27/2014  19:38:00      -99.579       -4.869       -5.848       31.369       38.730       24.260      984.043     1500.030      588.539        0.652        0.154       99.698       17.880        0.032      337.439        9.413      864.589
01/27/2014  19:39:00      -79.026       22.004       -1.218       42.054       34.315       31.774     1768.561     1177.516     1009.607        0.534        0.198       82.032       18.728        0.052      337.533        9.570      864.584
01/27/2014  19:40:00     -151.764       52.163       -8.475       48.357       30.505       24.828     2338.365      930.566      616.449        1.485        0.194      160.479       20.420        0.016      337.548        9.597      864.573
01/27/2014  19:41:00     -135.090       50.049      -10.758       48.372       30.607       30.619     2339.845      936.770      937.495        1.254        0.211      144.064       23.036        0.026      337.513        9.536      864.570
01/27/2014  19:42:00     -140.162       53.051       -5.563       48.373       27.015       22.485     2339.953      729.831      505.554        1.303        0.179      149.866       18.955        0.016      337.592        9.669      864.562
01/27/2014  19:43:00      -75.746       16.455       -7.120       29.693       29.481       18.843      881.659      869.103      355.063        0.408        0.105       77.513       11.264        0.021      337.578        9.647      864.545
01/27/2014  19:44:00      -42.735      -11.007        2.519       28.320       26.480       15.406      802.023      701.185      237.346        0.185        0.087       44.130       12.287        0.078      337.445        9.425      864.525
01/27/2014  19:45:00      -57.201       -3.642       -6.145       38.815       28.782       19.551     1506.600      828.419      382.260        0.302        0.136       57.317       16.823        0.086      337.426        9.391      864.514
01/27/2014  19:46:00     -106.108      -33.476       -3.109       27.994       37.087       17.341      783.671     1375.482      300.715        0.742        0.123      111.264       14.793        0.018      337.370        9.298      864.515
01/27/2014  19:47:00      -93.236      -53.610       -4.542       20.443       31.012       13.545      417.900      961.736      183.469        0.658        0.078      107.550       11.019        0.010      337.312        9.201      864.519
01/27/2014  19:48:00      -68.503      -32.066        2.310       46.316       32.087       22.529     2145.145     1029.549      507.538        0.470        0.184       75.636       22.492        0.088      337.275        9.140      864.519
01/27/2014  19:49:00      -71.280       -9.016        0.623       45.075       36.799       18.181     2031.784     1354.184      330.555        0.444        0.186       71.848       19.144        0.071      337.257        9.110      864.529
01/27/2014  19:50:00      -87.339      -15.371       -0.435       49.259       29.373       22.486     2426.459      862.797      505.603        0.583        0.190       88.681       24.244        0.075      337.328        9.228      864.553
01/27/2014  19:51:00     -105.830       -9.886       -3.915       42.918       36.489       23.645     1841.955     1331.457      559.076        0.752        0.187      106.291       24.059        0.051      337.359        9.280      864.560
01/27/2014  19:52:00      -78.262       -7.181       -4.182       44.914       34.860       22.361     2017.234     1215.205      500.033        0.496        0.187       78.590       22.754        0.084      337.332        9.235      864.556
01/27/2014  19:53:00      -98.145      -18.231       -7.923       34.367       29.466       19.997     1181.080      868.251      399.891        0.624        0.122       99.824       17.156        0.030      337.366        9.291      864.550
01/27/2014  19:54:00      -51.457       -3.781        0.100       38.273       23.910       17.441     1464.800      571.674      304.196        0.250        0.117       51.596       19.438        0.142      337.406        9.356      864.556
01/27/2014  19:55:00      -45.279      -25.323       -2.407       20.809       19.551       13.637      433.035      382.229      185.955        0.185        0.050       51.879       11.327        0.048      337.346        9.258      864.562
01/27/2014  19:56:00      -47.436      -23.342       -0.027       25.951       21.405       13.179      673.460      458.174      173.692        0.205        0.065       52.868       10.486        0.039      337.329        9.229      864.569
01/27/2014  19:57:00      -77.565      -37.323      -10.781       17.068       16.920       12.476      291.301      286.292      155.638        0.413        0.037       86.078        9.283        0.012      337.315        9.207      864.570
01/27/2014  19:58:00      -32.970      -26.974       -1.572       19.670       14.425       14.727      386.907      208.071      216.892        0.131        0.041       42.598        9.583        0.051      337.308        9.195      864.568
01/27/2014  19:59:00      -16.453      -13.591       -5.118       10.901        8.849        6.726      118.834       78.307       45.234        0.036        0.012       21.341        4.884        0.052      337.397        9.340      864.538
01/27/2014  20:00:00        3.361        6.054       -2.710        9.842        9.426        7.963       96.868       88.846       63.416        0.015        0.012        6.925        3.968        0.328      337.710        9.870      864.515
01/27/2014  20:01:00       -5.859       -6.315        6.112       17.487       15.869       14.213      305.787      251.839      201.996        0.044        0.038        8.614       13.876        2.595      337.823       10.056      864.509
01/27/2014  20:02:00      -26.628      -15.865        1.175       10.518       12.076        8.482      110.631      145.837       71.939        0.065        0.016       30.995        2.190        0.005      337.623        9.721      864.515
01/27/2014  20:03:00      -18.789      -20.870       -2.747       13.776       15.408       13.918      189.776      237.393      193.719        0.071        0.031       28.082        7.991        0.081      337.291        9.166      864.504
01/27/2014  20:04:00      -34.827      -26.727       -1.383       17.652       14.890       15.400      311.592      221.713      237.161        0.135        0.039       43.900        9.937        0.051      337.130        8.897      864.500
01/27/2014  20:05:00      -56.641      -32.402       -7.908       16.933       16.141       10.420      286.740      260.535      108.581        0.249        0.033       65.254       10.516        0.026      337.158        8.944      864.493
01/27/2014  20:06:00      -75.402      -10.114      -11.416       13.984       10.136       11.774      195.559      102.741      138.624        0.318        0.022       76.077        6.838        0.008      337.214        9.037      864.484
01/27/2014  20:07:00      -69.339      -21.916      -11.017       19.765       18.252       12.987      390.665      333.136      168.674        0.315        0.045       72.720       13.343        0.034      337.161        8.947      864.469
01/27/2014  20:08:00      -64.721      -19.579      -10.632       12.800       10.693        6.994      163.828      114.344       48.922        0.251        0.016       67.618        5.349        0.006      337.189        8.996      864.460
01/27/2014  20:09:00      -65.637      -26.354      -10.232       12.724       12.435        9.907      161.906      154.624       98.143        0.276        0.021       70.730        7.052        0.010      337.172        8.969      864.458
01/27/2014  20:10:00      -77.013      -30.870      -16.689       15.084       17.496        9.044      227.523      306.094       81.788        0.389        0.031       82.970        4.954        0.004      337.140        8.912      864.475
01/27/2014  20:11:00     -102.075      -51.166      -12.340       16.147       17.793       10.502      260.716      316.583      110.285        0.694        0.034      114.181        4.941        0.002      337.075        8.804      864.505
01/27/2014  20:12:00     -157.934      -58.727      -12.911       17.605       14.265       11.535      309.936      203.484      133.061        1.460        0.032      168.499        3.855        0.001      337.113        8.869      864.534
01/27/2014  20:13:00     -110.385      -57.444       -4.504       43.589       21.780       18.796     1899.958      474.376      353.308        0.912        0.136      124.438       15.125        0.015      337.046        8.754      864.551
01/27/2014  20:14:00     -108.624      -51.291       -4.876       33.696       28.141       18.726     1135.397      791.940      350.660        0.837        0.114      120.125       12.583        0.011      337.058        8.775      864.568
01/27/2014  20:15:00     -112.069      -47.034       -3.219       24.742       22.672       16.188      612.166      514.013      262.051        0.808        0.069      121.539       11.784        0.009      337.060        8.778      864.584
01/27/2014  20:16:00     -119.511      -41.010       -2.566       41.149       29.579       18.424     1693.246      874.946      339.442        0.944        0.145      126.352       17.181        0.018      337.073        8.800      864.618
01/27/2014  20:17:00     -107.793      -37.725       -2.642       35.653       26.323       18.217     1271.118      692.907      331.876        0.767        0.115      114.204       17.602        0.024      337.029        8.726      864.655
01/27/2014  20:18:00      -98.894      -31.918        2.028       39.162       32.508       17.896     1533.663     1056.781      320.281        0.686        0.146      103.918       17.691        0.029      337.073        8.800      864.676
01/27/2014  20:19:00     -108.311      -39.622       -3.272       40.535       27.295       18.265     1643.076      745.006      333.594        0.802        0.136      115.330       18.018        0.024      337.071        8.797      864.689
01/27/2014  20:20:00     -101.551      -45.227       -1.648       19.259       19.893       14.921      370.911      395.724      222.622        0.667        0.049      111.167        9.656        0.008      337.138        8.910      864.705
01/27/2014  20:21:00      -78.842      -33.541        0.254       24.844       14.727       11.366      617.204      216.889      129.181        0.415        0.048       85.680       10.676        0.016      337.156        8.941      864.713
01/27/2014  20:22:00      -38.362      -18.483       -1.647       29.594       16.454       12.855      875.813      270.739      165.260        0.156        0.066       42.583       12.142        0.081      337.149        8.931      864.698
01/27/2014  20:23:00      -52.195        5.635       -2.715       16.227       16.650       10.832      263.319      277.219      117.338        0.171        0.033       52.498        8.400        0.026      337.156        8.940      864.653
01/27/2014  20:24:00      -27.699       -0.910       -1.703        7.978        9.194        8.883       63.641       84.533       78.906        0.050        0.011       27.714        6.649        0.058      337.142        8.916      864.600
01/27/2014  20:25:00      -24.057       -2.006       -4.730        7.422        6.859        4.919       55.091       47.039       24.200        0.037        0.006       24.140        2.945        0.015      337.199        9.016      864.569
01/27/2014  20:26:00      -15.256       -9.018       -0.583        4.283        4.338        3.014       18.346       18.821        9.083        0.018        0.002       17.722        1.522        0.007      337.267        9.127      864.571
01/27/2014  20:27:00      -32.123      -10.194       -6.093        9.056        8.905        4.196       82.004       79.303       17.604        0.068        0.009       33.702        3.061        0.008      337.279        9.147      864.579
01/27/2014  20:28:00      -38.095      -24.634       -2.833       27.555        9.574       12.063      759.267       91.655      145.522        0.153        0.050       45.366       14.195        0.098      337.209        9.028      864.592
01/27/2014  20:29:00      -14.114      -20.961        1.449       17.197       13.463       13.646      295.726      181.250      186.217        0.065        0.033       25.270        7.610        0.091      337.219        9.048      864.609
01/27/2014  20:30:00      -56.370      -36.508       -6.508       16.657       10.498       10.701      277.457      110.211      114.508        0.253        0.025       67.160        7.843        0.014      337.097        8.840      864.621
01/27/2014  20:31:00      -47.157      -20.005       -3.870       10.392        8.347        7.884      107.986       69.678       62.154        0.144        0.012       51.225        6.867        0.018      337.101        8.847      864.616
01/27/2014  20:32:00      -22.532      -20.391       -4.558        8.791        6.284        3.928       77.285       39.490       15.428        0.054        0.007       30.389        2.726        0.008      337.279        9.147      864.598
01/27/2014  20:33:00      -25.802       -7.398       -7.523        6.116        5.975        3.703       37.408       35.704       13.715        0.043        0.004       26.842        2.534        0.009      337.414        9.370      864.576
01/27/2014  20:34:00      -26.694       -2.418       -1.769        9.348        9.090       18.978       87.385       82.625      360.157        0.063        0.027       26.803       12.106        0.204      337.708        9.864      864.565
01/27/2014  20:35:00      -15.620       -8.324        4.035       10.744        7.437        7.213      115.427       55.304       52.027        0.028        0.011       17.700        7.278        0.169      337.549        9.597      864.557
01/27/2014  20:36:00      -35.135       -8.454        0.755        5.612        8.615        6.020       31.498       74.225       36.246        0.072        0.007       36.138        3.730        0.011      337.387        9.326      864.575
01/27/2014  20:37:00      -46.345       -5.408       -4.092        5.841        7.238        6.073       34.115       52.383       36.877        0.116        0.006       46.659        3.314        0.005      337.287        9.160      864.603
01/27/2014  20:38:00      -54.599      -15.426       -6.496        7.156       11.906        5.292       51.202      141.759       28.001        0.174        0.011       56.737        2.896        0.003      337.278        9.143      864.637
01/27/2014  20:39:00      -64.837      -25.521       -8.563       35.361       16.319        8.225     1250.381      266.320       67.654        0.326        0.079       69.679        6.311        0.008      337.041        8.747      864.660
01/27/2014  20:40:00     -103.674      -19.580      -12.072       20.998       14.974       15.002      440.902      224.212      225.061        0.608        0.045      105.506       12.175        0.013      336.965        8.620      864.672
01/27/2014  20:41:00      -99.896      -47.139      -10.404       15.627       14.126       11.293      244.213      199.538      127.528        0.644        0.029      110.459        8.833        0.006      336.886        8.488      864.680
01/27/2014  20:42:00     -110.332      -38.876       -5.850       23.917       14.599       12.000      572.038      213.140      144.009        0.732        0.046      116.980       13.678        0.014      336.874        8.468      864.677
01/27/2014  20:43:00      -81.068      -41.406        4.009       41.972       22.801       18.361     1761.652      519.868      337.120        0.546        0.131       91.030       19.924        0.048      336.907        8.523      864.693
01/27/2014  20:44:00     -100.008      -50.199        1.941       24.935       22.336       14.861      621.746      498.903      220.847        0.693        0.067      111.899       12.563        0.013      336.884        8.485      864.721
01/27/2014  20:45:00      -98.076      -33.618        0.028       22.134       25.444       13.438      489.909      647.393      180.579        0.603        0.066      103.678       10.694        0.011      336.851        8.432      864.738
01/27/2014  20:46:00     -127.901        5.803      -11.817       20.064       14.126        9.370      402.572      199.541       87.800        0.861        0.034      128.033        3.659        0.001      336.837        8.407      864.739
01/27/2014  20:47:00     -132.278       19.077      -16.599       13.180       10.209        8.719      173.708      104.218       76.022        0.925        0.018      133.646        3.571        0.001      336.922        8.547      864.737
01/27/2014  20:48:00      -99.606        7.067      -11.713       29.708       20.678       10.922      882.551      427.599      119.288        0.577        0.071       99.856       10.887        0.012      336.846        8.422      864.739
01/27/2014  20:49:00      -72.999       -5.807       -6.660       40.425       25.243       17.242     1634.174      637.232      297.290        0.399        0.128       73.229       11.914        0.026      336.903        8.516      864.764
01/27/2014  20:50:00     -100.823        4.372      -10.720       40.343       37.948       24.284     1627.560     1440.041      589.725        0.698        0.183      100.917       16.207        0.026      337.029        8.728      864.781
01/27/2014  20:51:00      -97.382       -4.300       -6.228       58.248       38.398       30.759     3392.858     1474.373      946.096        0.768        0.291       97.477       27.964        0.082      336.912        8.531      864.786
01/27/2014  20:52:00      -62.921        4.078        4.414       55.141       39.957       30.159     3040.480     1596.549      909.584        0.477        0.277       63.053       30.336        0.231      336.901        8.513      864.767
01/27/2014  20:53:00      -18.849       -2.386       -1.986       25.655       27.667       20.155      658.197      765.489      406.210        0.110        0.091       19.000       13.985        0.542      336.888        8.492      864.749
01/27/2014  20:54:00      -37.955      -13.868       -9.329       21.072       14.444        9.557      444.026      208.640       91.339        0.123        0.037       40.409        6.816        0.028      336.815        8.371      864.744
01/27/2014  20:55:00      -44.630      -17.461      -12.788       14.659       10.824        8.308      214.877      117.167       69.031        0.143        0.020       47.925        5.468        0.013      336.740        8.246      864.741
01/27/2014  20:56:00      -49.405      -11.623      -12.317       12.497        8.815       10.453      156.186       77.699      109.274        0.154        0.017       50.754        5.617        0.012      336.757        8.274      864.752
01/27/2014  20:57:00      -69.425      -21.955      -11.650       19.817       11.126        8.238      392.699      123.784       67.870        0.301        0.029       72.814        8.271        0.013      336.810        8.363      864.762
01/27/2014  20:58:00      -68.334      -30.061      -11.367       18.688       25.862       14.174      349.255      668.847      200.905        0.346        0.061       74.654        9.825        0.017      336.823        8.383      864.756
01/27/2014  20:59:00      -54.536      -51.247      -14.481       13.295       17.455       10.608      176.764      304.669      112.521        0.320        0.030       74.836        9.181        0.015      336.784        8.318      864.751
01/27/2014  21:00:00      -51.563      -30.180       -5.764       13.923       14.996       13.109      193.841      224.868      171.841        0.210        0.030       59.746        9.866        0.027      336.797        8.340      864.738
01/27/2014  21:01:00      -61.395      -12.323      -22.404       10.785       13.160        8.559      116.317      173.199       73.249        0.239        0.018       62.619        5.120        0.007      336.805        8.354      864.720
01/27/2014  21:02:00      -77.869       -0.863       -9.994       14.020       11.307       10.479      196.565      127.851      109.811        0.330        0.022       77.874        8.856        0.013      336.807        8.357      864.696
01/27/2014  21:03:00      -77.693        3.618      -13.640       16.065        5.903        6.554      258.075       34.842       42.951        0.329        0.017       77.777        2.407        0.001      336.961        8.613      864.698
01/27/2014  21:04:00      -52.174        6.466      -10.112        9.247        9.257        5.583       85.503       85.696       31.165        0.153        0.010       52.573        1.466        0.001      336.972        8.632      864.697
01/27/2014  21:05:00      -37.748       15.682       -8.693       10.633       10.604        6.097      113.068      112.452       37.169        0.100        0.013       40.876        4.906        0.014      337.273        9.137      864.694
01/27/2014  21:06:00      -22.471       18.232      -10.589       10.858        9.305        5.454      117.900       86.580       29.748        0.059        0.012       28.937        3.818        0.017      337.447        9.428      864.692
01/27/2014  21:07:00      -16.965       -1.811       -2.563       11.413        7.104        6.360      130.252       50.473       40.451        0.026        0.011       17.061        5.683        0.111      337.226        9.056      864.693
01/27/2014  21:08:00      -31.292      -18.382       -6.208       12.321       11.918        6.549      151.810      142.041       42.893        0.085        0.017       36.292        7.689        0.045      337.126        8.888      864.710
01/27/2014  21:09:00      -50.314      -30.569       -7.163       10.350        7.773        7.106      107.122       60.423       50.499        0.187        0.011       58.872        4.298        0.005      336.927        8.558      864.726
01/27/2014  21:10:00      -52.845      -25.265       -6.854       12.578       12.098       13.238      158.216      146.370      175.238        0.198        0.024       58.574        7.388        0.016      336.864        8.452      864.743
01/27/2014  21:11:00      -43.272      -27.880       -5.627       13.399       12.774        8.340      179.522      163.181       69.549        0.155        0.021       51.476        4.144        0.006      336.854        8.435      864.749
01/27/2014  21:12:00      -41.769      -17.004       -8.487        6.990       12.133        6.264       48.857      147.201       39.236        0.117        0.012       45.097        6.198        0.019      336.916        8.537      864.749
01/27/2014  21:13:00      -10.724        1.590       -3.375       31.157       14.567       12.512      970.775      212.207      156.550        0.073        0.067       10.841       16.132        2.214      337.425        9.390      864.738
01/27/2014  21:14:00       -4.642       -2.238        6.939       12.174       15.231       10.074      148.204      231.998      101.492        0.028        0.024        5.153        9.912        3.700      337.347        9.260      864.716
01/27/2014  21:15:00       -2.009        4.454       -2.179        8.114       13.544        7.122       65.841      183.431       50.716        0.016        0.015        4.886        7.124        2.125      337.379        9.312      864.705
01/27/2014  21:16:00      -33.029      -16.317        0.654       23.309       12.658       12.430      543.326      160.218      154.500        0.111        0.043       36.840       14.748        0.160      337.077        8.808      864.702
01/27/2014  21:17:00      -58.637       -5.900      -14.092       14.100        9.358        6.992      198.813       87.568       48.891        0.200        0.017       58.933        5.363        0.008      336.904        8.518      864.710
01/27/2014  21:18:00      -64.029      -10.545       -6.734        6.055        6.705        6.490       36.669       44.958       42.118        0.219        0.006       64.891        4.425        0.005      336.822        8.382      864.713
01/27/2014  21:19:00      -54.795      -13.997      -15.307        9.469        7.316        6.302       89.668       53.524       39.719        0.181        0.009       56.555        3.630        0.004      336.840        8.412      864.722
01/27/2014  21:20:00      -56.566      -27.573      -14.106       10.724        8.646        8.364      115.000       74.757       69.953        0.221        0.013       62.928        4.342        0.005      336.947        8.590      864.732
01/27/2014  21:21:00      -65.155      -27.137      -14.225       11.795        8.322        6.872      139.130       69.261       47.221        0.272        0.013       70.581        5.293        0.006      336.933        8.566      864.763
01/27/2014  21:22:00      -41.957      -26.155      -10.513       12.613        8.539        6.807      159.094       72.921       46.341        0.142        0.014       49.441        4.899        0.010      336.882        8.481      864.789
01/27/2014  21:23:00      -48.540      -35.598       -7.000        9.959        9.106        6.959       99.181       82.928       48.428        0.195        0.012       60.194        4.439        0.005      336.841        8.414      864.803
01/27/2014  21:24:00      -52.736      -37.208       -7.363        9.982        5.877        6.738       99.641       34.535       45.405        0.220        0.009       64.541        6.267        0.009      336.895        8.504      864.786
01/27/2014  21:25:00      -22.090      -23.877       -6.785       10.861        5.714        6.470      117.964       32.655       41.862        0.065        0.010       32.528        4.965        0.023      336.954        8.602      864.745
01/27/2014  21:26:00      -45.508      -15.463       -4.016       14.075        6.444        5.401      198.112       41.527       29.166        0.130        0.013       48.063        6.003        0.016      337.070        8.793      864.701
01/27/2014  21:27:00      -47.455       -0.083       -1.582        6.420        3.985        5.249       41.223       15.882       27.548        0.117        0.004       47.455        2.968        0.004      337.059        8.778      864.683
01/27/2014  21:28:00      -71.108       -4.681       -9.724       12.770        9.623        8.129      163.077       92.593       66.082        0.275        0.016       71.262        5.716        0.006      336.781        8.314      864.687
01/27/2014  21:29:00      -87.484      -36.472       -7.422        9.607       10.178        5.215       92.285      103.595       27.192        0.463        0.011       94.782        3.867        0.002      336.796        8.337      864.694
01/27/2014  21:30:00     -100.189      -44.007       -7.593        7.151        7.363        5.093       51.139       54.212       25.943        0.608        0.007      109.428        2.109        0.000      336.715        8.204      864.688
01/27/2014  21:31:00     -107.346      -41.390       -9.926       11.327       18.957       12.357      128.303      359.354      152.706        0.699        0.032      115.049       13.082        0.013      336.777        8.307      864.694
01/27/2014  21:32:00     -103.407      -17.446      -15.172       13.037       12.615        5.963      169.954      159.128       35.553        0.580        0.018      104.869        4.666        0.002      336.762        8.282      864.708
01/27/2014  21:33:00     -102.102      -34.528      -11.381       17.964       14.716       14.081      322.698      216.567      198.277        0.624        0.037      107.782        8.698        0.007      336.759        8.277      864.731
01/27/2014  21:34:00      -72.093      -44.765        0.994       20.496       16.885       12.156      420.105      285.101      147.778        0.403        0.043       84.861       11.218        0.017      336.589        7.993      864.747
01/27/2014  21:35:00      -77.961      -25.458       -2.969       16.078       13.505        9.121      258.505      182.395       83.196        0.363        0.026       82.012        7.920        0.009      336.604        8.018      864.758
01/27/2014  21:36:00      -93.797       -9.659       -9.740        7.036        7.004        5.231       49.505       49.062       27.360        0.456        0.006       94.293        2.723        0.001      336.718        8.209      864.751
01/27/2014  21:37:00     -101.994       12.645      -15.213        9.463       10.840        7.401       89.548      117.500       54.778        0.553        0.013      102.775        3.237        0.001      336.747        8.257      864.754
01/27/2014  21:38:00      -51.441       22.361       -6.591       24.044       15.370       10.489      578.101      236.243      110.017        0.206        0.046       56.090        6.087        0.012      336.792        8.332      864.768
01/27/2014  21:39:00      -58.214       39.653      -14.525       15.492       16.251        9.665      240.010      264.084       93.420        0.288        0.030       70.436        7.273        0.011      336.956        8.605      864.786
01/27/2014  21:40:00      -51.028        7.504       -4.857       11.144       16.181       11.121      124.186      261.816      123.686        0.160        0.025       51.577        6.788        0.017      337.071        8.797      864.806
01/27/2014  21:41:00      -52.121      -27.798      -11.872       14.725       13.405        8.126      216.838      179.697       66.034        0.205        0.023       59.071        6.954        0.014      336.740        8.246      864.833
01/27/2014  21:42:00      -72.741      -55.151      -14.949       18.017       19.312       12.590      324.618      372.957      158.514        0.471        0.043       91.285        4.564        0.002      336.608        8.024      864.847
01/27/2014  21:43:00      -86.447      -36.452      -10.462       16.769       17.236       14.475      281.197      297.085      209.536        0.485        0.039       93.818       11.244        0.014      336.504        7.850      864.843
01/27/2014  21:44:00      -87.110      -39.289      -10.228        9.700       13.807        6.810       94.087      190.628       46.374        0.478        0.017       95.560        3.511        0.001      336.498        7.842      864.818
01/27/2014  21:45:00     -106.785      -13.414      -11.954       13.767       16.418        9.779      189.527      269.537       95.637        0.614        0.028      107.624        5.681        0.003      336.529        7.892      864.777
01/27/2014  21:46:00      -92.335       -9.537      -11.014       16.513       10.353        6.594      272.673      107.183       43.480        0.458        0.021       92.826        7.703        0.007      336.641        8.080      864.737
01/27/2014  21:47:00      -77.137       -2.656      -10.600        9.751        6.539        5.698       95.084       42.755       32.467        0.312        0.009       77.183        3.118        0.002      336.678        8.142      864.694
01/27/2014  21:48:00      -40.289       -4.737       -5.085       15.091        5.877        4.661      227.726       34.537       21.727        0.098        0.014       40.567        6.843        0.028      336.898        8.509      864.662
01/27/2014  21:49:00       -7.079        6.074       -3.668        6.022        6.864        4.756       36.266       47.119       22.616        0.010        0.005        9.328        3.961        0.180      337.122        8.884      864.612
01/27/2014  21:50:00       -6.117       -7.787        2.463        5.213        6.855        5.774       27.172       46.988       33.345        0.011        0.005        9.902        3.375        0.116      337.051        8.762      864.574
01/27/2014  21:51:00       -7.190      -20.186        0.734        6.275        8.022        5.475       39.382       64.351       29.971        0.030        0.007       21.429        4.011        0.035      336.971        8.630      864.566
01/27/2014  21:52:00      -39.685      -30.240       -7.118       15.005        8.522        8.050      225.151       72.630       64.801        0.145        0.018       49.894        5.316        0.011      336.707        8.191      864.572
01/27/2014  21:53:00      -78.187      -12.633      -14.409       17.237       15.145        9.072      297.107      229.364       82.302        0.354        0.030       79.201        9.900        0.016      336.613        8.032      864.597
01/27/2014  21:54:00      -85.060      -18.359      -14.851       12.956       15.570        9.702      167.858      242.433       94.126        0.415        0.025       87.018        7.769        0.008      336.476        7.802      864.618
01/27/2014  21:55:00     -101.188      -26.926      -18.472       20.786       16.387       11.098      432.038      268.545      123.167        0.606        0.041      104.709        8.690        0.007      336.393        7.665      864.639
01/27/2014  21:56:00     -110.842      -41.081      -15.014       18.425       19.049       12.970      339.479      362.868      168.232        0.753        0.044      118.210        7.019        0.004      336.311        7.528      864.647
01/27/2014  21:57:00     -133.731      -22.681      -15.690       11.005       16.111       11.810      121.113      259.570      139.478        0.958        0.026      135.641        6.679        0.002      336.268        7.456      864.652
01/27/2014  21:58:00     -129.182      -39.941       -9.900       25.031       17.578       15.370      626.554      308.997      236.235        0.978        0.059      135.216       13.703        0.010      336.334        7.566      864.649
01/27/2014  21:59:00     -108.398      -45.462       -2.366       26.119       22.188       15.828      682.205      492.315      250.527        0.762        0.071      117.546       15.866        0.018      336.357        7.605      864.647
01/27/2014  22:00:00      -78.991      -40.800        1.800       34.808       21.226       18.054     1211.577      450.535      325.933        0.495        0.099       88.905       18.240        0.042      336.416        7.703      864.631
01/27/2014  22:01:00      -75.998      -40.081       -2.312       34.081       23.340       15.771     1161.521      544.740      248.722        0.467        0.098       85.920       14.701        0.029      336.411        7.694      864.624
01/27/2014  22:02:00      -97.332      -56.178       -3.046       26.606       16.540       12.312      707.862      273.559      151.583        0.689        0.057      112.380        6.456        0.003      336.510        7.860      864.627
01/27/2014  22:03:00      -70.561      -39.678       -3.044       22.484       20.621       13.045      505.544      425.223      170.181        0.383        0.055       80.952        8.508        0.011      336.484        7.818      864.646
01/27/2014  22:04:00      -79.308      -28.150       -7.563       14.568       16.661        9.401      212.215      277.589       88.380        0.386        0.029       84.156        6.526        0.006      336.420        7.712      864.660
01/27/2014  22:05:00     -109.549      -41.475       -5.237       18.361       15.838       11.545      337.124      250.851      133.286        0.723        0.036      117.137        7.285        0.004      336.401        7.677      864.669
01/27/2014  22:06:00     -133.245      -29.023      -14.296       14.525       15.201       14.026      210.967      231.083      196.719        0.972        0.032      136.369        8.525        0.004      336.234        7.398      864.670
01/27/2014  22:07:00     -108.053      -66.129       -7.571       33.591       24.505       21.783     1128.352      600.518      474.496        0.915        0.110      126.682       22.163        0.031      336.077        7.137      864.671
01/27/2014  22:08:00      -89.584      -31.521       -1.750       52.971       30.925       27.254     2805.971      956.370      742.767        0.676        0.225       94.968       29.946        0.099      336.050        7.092      864.693
01/27/2014  22:09:00      -95.872       -7.297       -2.113       42.949       26.676       23.085     1844.641      711.620      532.935        0.617        0.154       96.149       24.246        0.064      336.253        7.431      864.717
01/27/2014  22:10:00     -106.034      -10.683       -7.323       42.489       25.556       21.417     1805.337      653.104      458.695        0.716        0.146      106.571       22.288        0.044      336.332        7.563      864.755
01/27/2014  22:11:00     -163.573       27.176      -10.453       25.592       27.893       15.945      654.928      778.024      254.228        1.465        0.084      165.815        8.601        0.003      336.545        7.919      864.779
01/27/2014  22:12:00     -153.472       24.530      -10.397       30.629       30.425       16.731      938.161      925.703      279.911        1.320        0.107      155.420       13.527        0.008      336.571        7.964      864.796
01/27/2014  22:13:00     -151.172        4.417      -11.364       31.932       30.867       18.652     1019.652      952.760      347.897        1.266        0.116      151.237       16.745        0.012      336.515        7.868      864.809
01/27/2014  22:14:00     -184.286        5.528      -15.032       25.725       22.873       17.344      661.790      523.178      300.804        1.785        0.074      184.369       13.346        0.005      336.508        7.857      864.838
01/27/2014  22:15:00     -180.978       -1.048      -22.410       38.359       23.916       18.597     1471.397      571.951      345.846        1.782        0.119      180.981       16.868        0.009      336.486        7.820      864.862
01/27/2014  22:16:00     -173.642       37.644      -11.378       33.893       25.441       16.252     1148.742      647.262      264.130        1.688        0.103      177.676       15.227        0.007      336.550        7.927      864.876
01/27/2014  22:17:00     -133.319       54.867       -3.093       39.109       24.280       21.242     1529.481      589.521      451.237        1.168        0.129      144.168       17.878        0.015      336.674        8.135      864.872
01/27/2014  22:18:00     -108.870       45.836       -3.342       38.611       26.525       19.636     1490.789      703.569      385.565        0.827        0.129      118.125       16.725        0.020      336.766        8.288      864.858
01/27/2014  22:19:00     -107.731       32.446      -10.832       30.816       37.501       20.156      949.621     1406.314      406.260        0.777        0.138      112.511       16.248        0.021      336.810        8.362      864.856
01/27/2014  22:20:00     -117.491       -4.892       -1.147       41.916       31.606       27.445     1756.964      998.912      753.224        0.867        0.175      117.593       28.689        0.060      336.772        8.299      864.858
01/27/2014  22:21:00     -100.798      -27.757        0.138       36.596       34.775       24.479     1339.273     1209.274      599.219        0.704        0.157      104.550       21.049        0.041      336.651        8.096      864.881
01/27/2014  22:22:00     -140.502      -50.791       -9.653       25.307       22.900       19.868      640.455      524.404      394.735        1.199        0.078      149.401       17.207        0.013      336.502        7.847      864.916
01/27/2014  22:23:00     -136.055      -17.589       -6.576       26.005       25.110       16.892      676.274      630.503      285.331        1.023        0.080      137.187       11.891        0.008      336.463        7.782      864.936
01/27/2014  22:24:00     -130.254      -12.460      -12.950       18.267       14.170       12.318      333.700      200.785      151.732        0.899        0.034      130.849        6.430        0.002      336.316        7.537      864.938
01/27/2014  22:25:00      -96.164      -22.598       -7.010       31.865       24.846       17.481     1015.381      617.323      305.580        0.587        0.097       98.784       18.877        0.037      336.491        7.828      864.929
01/27/2014  22:26:00     -114.973        4.692       -7.051       34.490       26.682       18.327     1189.585      711.950      335.866        0.776        0.112      115.069       17.314        0.023      336.560        7.943      864.912
01/27/2014  22:27:00     -163.726       48.423      -12.347       37.657       30.851       23.344     1418.053      951.775      544.934        1.611        0.146      170.737       14.581        0.007      336.793        8.333      864.896
01/27/2014  22:28:00     -135.895       53.351       -8.694       41.492       36.945       25.317     1721.588     1364.905      640.927        1.256        0.186      145.992       22.421        0.024      336.805        8.354      864.881
01/27/2014  22:29:00     -149.605       73.756      -17.684       55.342       37.705       34.344     3062.715     1421.640     1179.495        1.690        0.283      166.798       29.524        0.031      336.828        8.391      864.874
01/27/2014  22:30:00     -164.774        8.750      -16.072       44.353       40.100       17.742     1967.165     1608.018      314.761        1.569        0.194      165.006       14.491        0.008      336.784        8.318      864.871
01/27/2014  22:31:00      -57.895      -13.497        0.904       36.636       28.549       21.988     1342.190      815.024      483.459        0.309        0.132       59.447       22.757        0.147      336.668        8.125      864.891
01/27/2014  22:32:00      -81.475        9.537       -6.654       27.293       25.841       20.374      744.923      667.755      415.085        0.430        0.091       82.031       10.638        0.017      336.690        8.162      864.918
01/27/2014  22:33:00      -54.141       -5.338       -3.650       20.522       26.556       12.679      421.142      705.209      160.763        0.213        0.064       54.403        6.227        0.013      336.727        8.224      864.947
01/27/2014  22:34:00      -39.696       -9.843      -13.605       18.448       16.449       10.767      340.325      270.576      115.927        0.129        0.036       40.898       10.842        0.070      336.881        8.478      864.974
01/27/2014  22:35:00      -27.468      -15.725       -6.858       17.581       14.710        7.610      309.074      216.383       57.912        0.082        0.029       31.650        5.368        0.029      336.811        8.364      864.985
01/27/2014  22:36:00      -49.141       -4.661       -9.822       18.075       12.962        6.557      326.701      168.004       42.991        0.154        0.027       49.361        3.176        0.004      336.833        8.401      864.991
01/27/2014  22:37:00      -72.387      -22.718      -13.732       20.731        9.852        7.392      429.774       97.053       54.643        0.326        0.029       75.868        7.257        0.009      336.662        8.116      864.994
01/27/2014  22:38:00      -77.728      -46.568      -11.133       21.610       18.793       17.930      466.989      353.166      321.482        0.474        0.057       90.610       11.146        0.015      336.557        7.940      865.003
01/27/2014  22:39:00     -122.961      -67.830      -12.849       23.459       19.701       10.958      550.312      388.138      120.071        1.047        0.053      140.429        6.734        0.002      336.512        7.863      865.010
01/27/2014  22:40:00     -110.376      -56.998      -10.559       38.637       24.361       15.986     1492.800      593.451      255.565        0.894        0.117      124.224       12.996        0.011      336.448        7.758      865.001
01/27/2014  22:41:00      -95.300      -39.559        0.376       31.894       20.592       15.021     1017.199      424.022      225.622        0.616        0.083      103.185       16.656        0.026      336.410        7.693      864.978
01/27/2014  22:42:00      -92.834      -31.033       -6.292       17.013       14.604        9.437      289.429      213.288       89.052        0.511        0.030       97.883        7.234        0.005      336.434        7.734      864.940
01/27/2014  22:43:00      -82.781      -17.578       -3.097       24.234       20.308       13.801      587.270      412.432      190.457        0.418        0.060       84.627       12.982        0.024      336.425        7.717      864.908
01/27/2014  22:44:00     -108.112       -6.170       -7.544       19.238       19.031       10.894      370.095      362.161      118.683        0.632        0.043      108.288        8.826        0.007      336.452        7.763      864.892
01/27/2014  22:45:00     -104.277      -41.567       -2.492       23.184       35.754       14.309      537.489     1278.361      204.735        0.731        0.101      112.257        8.359        0.006      336.475        7.803      864.868
01/27/2014  22:46:00      -69.256       -9.607       10.562       53.360       27.875       24.009     2847.303      777.004      576.449        0.460        0.210       69.919       27.902        0.159      336.500        7.843      864.861
01/27/2014  22:47:00     -112.785      -22.727       -6.571       44.261       29.347       18.270     1959.043      861.243      333.809        0.822        0.158      115.052       22.772        0.039      336.487        7.821      864.891
01/27/2014  22:48:00     -135.190      -64.277       -8.838       13.847       21.016       13.743      191.736      441.671      188.863        1.165        0.041      149.693       10.059        0.005      336.317        7.538      864.964
01/27/2014  22:49:00      -89.972      -72.537        6.304       57.892       44.585       34.703     3351.471     1987.779     1204.332        0.997        0.327      115.571       34.692        0.090      336.402        7.679      865.052
01/27/2014  22:50:00     -144.109      -82.800       -6.044       35.027       34.371       24.766     1226.902     1181.352      613.332        1.534        0.151      166.203       18.757        0.013      336.525        7.887      865.125
01/27/2014  22:51:00     -129.465      -24.544      -11.592       28.025       32.188       15.786      785.420     1036.061      249.184        0.978        0.104      131.771       15.764        0.014      336.373        7.632      865.163
01/27/2014  22:52:00     -103.107      -16.499       -7.309       30.022       17.689       16.928      901.348      312.907      286.545        0.623        0.075      104.419       17.089        0.027      336.321        7.546      865.178
01/27/2014  22:53:00      -64.559      -21.731        2.841       30.713       18.591       14.486      943.303      345.641      209.849        0.307        0.075       68.118       11.317        0.028      336.414        7.702      865.171
01/27/2014  22:54:00      -57.678      -17.602       -2.445       25.345       20.571       13.593      642.378      423.157      184.763        0.245        0.063       60.304       11.343        0.035      336.456        7.770      865.159
01/27/2014  22:55:00      -80.855        2.025       -8.275       38.749       27.421       16.821     1501.469      751.920      282.961        0.457        0.127       80.880       10.868        0.018      336.663        8.116      865.134
01/27/2014  22:56:00      -58.665       -0.133       -2.110       34.931       26.244       20.054     1220.144      688.773      402.163        0.288        0.116       58.665       16.622        0.080      336.661        8.114      865.108
01/27/2014  22:57:00      -87.736       -7.452       -1.188       45.011       33.532       24.007     2026.034     1124.383      576.340        0.574        0.186       88.052       18.995        0.047      336.581        7.981      865.103
01/27/2014  22:58:00     -138.403       29.692       -6.959       58.261       41.712       27.985     3394.288     1739.905      783.185        1.300        0.296      141.552       30.775        0.047      336.501        7.845      865.121
01/27/2014  22:59:00     -187.930       20.421      -18.462       48.644       27.951       25.613     2366.192      781.269      656.041        1.994        0.190      189.037       25.231        0.018      336.467        7.785      865.155
01/27/2014  23:00:00     -207.422       22.035      -17.557       35.150       29.042       17.284     1235.538      843.438      298.722        2.310        0.119      208.589       14.003        0.005      336.517        7.870      865.186
01/27/2014  23:01:00     -157.586       30.085      -14.911       34.235       25.545       19.010     1172.023      652.561      361.380        1.407        0.109      160.432       16.582        0.011      336.536        7.903      865.225
01/27/2014  23:02:00     -102.657        9.943      -10.561       32.248       20.410       12.733     1039.924      416.580      162.131        0.618        0.081      103.138        7.915        0.006      336.569        7.958      865.249
01/27/2014  23:03:00      -44.502      -14.402       -7.198       24.053       17.378       12.898      578.559      302.010      166.347        0.164        0.052       46.774        8.053        0.030      336.506        7.854      865.262
01/27/2014  23:04:00       -8.409      -12.810       -6.081        9.270        9.079        6.432       85.933       82.427       41.371        0.024        0.010       15.323        5.998        0.153      336.524        7.883      865.262
01/27/2014  23:05:00       -7.782      -16.578       -6.639       12.403        7.606        7.138      153.835       57.852       50.945        0.032        0.013       18.314        6.626        0.131      336.715        8.206      865.267
01/27/2014  23:06:00      -57.661      -26.466       -9.168       19.020       12.072        7.088      361.763      145.726       50.237        0.233        0.028       63.445        6.725        0.011      336.723        8.217      865.289
01/27/2014  23:07:00      -80.666      -15.138       -9.084       11.143       11.486        7.406      124.164      131.927       54.848        0.356        0.016       82.074        5.093        0.004      336.656        8.105      865.308
01/27/2014  23:08:00      -81.379       -9.764      -10.812        9.592        9.639        5.723       92.011       92.920       32.756        0.353        0.011       81.963        3.071        0.001      336.622        8.048      865.323
01/27/2014  23:09:00      -77.062       -4.834      -10.834       11.296        7.724       10.163      127.599       59.659      103.286        0.318        0.015       77.214        7.341        0.009      336.637        8.073      865.330
01/27/2014  23:10:00      -71.788       -0.845      -13.416       12.076        9.366        6.829      145.820       87.714       46.632        0.281        0.014       71.793        6.126        0.007      336.688        8.157      865.326
01/27/2014  23:11:00      -45.552      -12.183      -10.304        8.766        8.757        4.864       76.839       76.682       23.661        0.125        0.009       47.153        3.332        0.005      336.691        8.165      865.321
01/27/2014  23:12:00      -11.275       -7.060       -1.457        5.809        4.347        4.336       33.748       18.893       18.797        0.013        0.004       13.303        4.077        0.094      336.759        8.276      865.322
01/27/2014  23:13:00       13.208      -13.133        9.821       14.950       10.546       12.771      223.500      111.211      163.102        0.047        0.025       18.626        4.183        0.050      336.870        8.462      865.323
01/27/2014  23:14:00       17.434       -3.832        6.464       11.087        5.883       12.910      122.922       34.612      166.666        0.034        0.016       17.850        5.107        0.082      336.811        8.365      865.323
01/27/2014  23:15:00      -11.824      -25.610        2.061       19.486       10.596        9.124      379.711      112.273       83.253        0.069        0.029       28.207        5.529        0.038      336.706        8.188      865.316
01/27/2014  23:16:00      -58.115      -31.940       -0.533       27.742       11.523        9.856      769.645      132.781       97.146        0.270        0.050       66.314       13.850        0.044      336.509        7.859      865.292
01/27/2014  23:17:00      -43.995      -38.734        6.912       31.654       25.595       14.757     1001.983      655.089      217.758        0.268        0.094       58.617       15.739        0.072      336.475        7.801      865.263
01/27/2014  23:18:00      -63.482      -53.999       -2.686       33.163       29.143       20.402     1099.799      849.323      416.231        0.466        0.118       83.342       21.076        0.064      336.392        7.662      865.269
01/27/2014  23:19:00      -81.208      -41.413        4.545       32.568       20.903       18.810     1060.664      436.929      353.811        0.509        0.093       91.158       20.195        0.049      336.465        7.786      865.293
01/27/2014  23:20:00      -91.662      -32.768       -4.208       18.957       17.659       15.090      359.351      311.824      227.708        0.520        0.045       97.343       11.255        0.013      336.469        7.791      865.336
01/27/2014  23:21:00      -86.441      -31.797       -1.316       26.094       14.263       13.202      680.908      203.438      174.290        0.477        0.053       92.104       12.156        0.017      336.521        7.879      865.365
01/27/2014  23:22:00      -94.338      -31.497       -5.917       13.956       18.072       11.515      194.769      326.613      132.588        0.529        0.033       99.457        9.397        0.009      336.525        7.886      865.396
01/27/2014  23:23:00      -54.927      -20.822        5.271       37.459       30.482       16.028     1403.144      929.143      256.902        0.303        0.129       58.741       16.259        0.077      336.555        7.936      865.428
01/27/2014  23:24:00      -72.082       -3.444        7.750       34.907       32.932       24.651     1218.496     1084.492      607.677        0.409        0.146       72.164       22.128        0.094      336.580        7.979      865.465
01/27/2014  23:25:00     -118.974       20.530       -5.515       32.929       30.013       20.440     1084.314      900.767      417.805        0.850        0.120      120.733       13.293        0.012      336.607        8.022      865.507
01/27/2014  23:26:00     -108.686       18.692        1.254       30.163       26.964       21.501      909.818      727.077      462.305        0.713        0.105      110.282       16.527        0.022      336.588        7.992      865.531
01/27/2014  23:27:00      -73.199       -1.749       -2.840       29.741       21.833       14.786      884.519      476.674      218.625        0.347        0.079       73.220       13.650        0.035      336.594        8.001      865.540
01/27/2014  23:28:00      -49.691       -4.986        1.503       31.696       20.226       15.686     1004.610      409.109      246.062        0.208        0.083       49.940       18.540        0.138      336.610        8.028      865.534
01/27/2014  23:29:00      -49.436      -16.509        0.127       14.014        8.948        8.434      196.405       80.061       71.131        0.153        0.017       52.120        4.235        0.007      336.573        7.968      865.520
01/27/2014  23:30:00      -63.084      -19.169       -2.967       12.542        8.672        8.192      157.306       75.197       67.112        0.233        0.015       65.932        5.415        0.007      336.577        7.972      865.501
01/27/2014  23:31:00      -94.289      -19.949       -8.837       13.676       11.800        9.058      187.024      139.251       82.052        0.489        0.020       96.376        5.211        0.003      336.501        7.845      865.497
01/27/2014  23:32:00      -92.901      -13.194       -9.170        9.181        8.253        5.819       84.290       68.106       33.859        0.454        0.009       93.833        2.698        0.001      336.585        7.987      865.494
01/27/2014  23:33:00      -80.950        7.823      -11.047       11.158       10.986        7.284      124.508      120.683       53.063        0.352        0.015       81.327        3.569        0.002      336.605        8.020      865.486
01/27/2014  23:34:00      -46.479       28.404       -1.341       23.748       31.943       21.519      563.990     1020.370      463.062        0.251        0.102       54.470        7.161        0.017      336.821        8.380      865.477
01/27/2014  23:35:00       -9.224       38.498       11.736       41.853       19.731       19.917     1751.652      389.309      396.704        0.212        0.127       39.587       24.056        0.369      336.939        8.577      865.470
01/27/2014  23:36:00       29.497       24.524        3.800       16.469       17.996       13.587      271.239      323.852      184.595        0.113        0.039       38.360       12.535        0.107      336.817        8.374      865.477
01/27/2014  23:37:00       32.635        4.903        8.812       13.095        7.838       13.524      171.477       61.429      182.888        0.079        0.021       33.001        8.893        0.073      336.701        8.180      865.497
01/27/2014  23:38:00       15.995        6.278        0.237        9.529        8.750        6.331       90.807       76.565       40.086        0.025        0.010       17.183        3.536        0.042      336.741        8.250      865.528
01/27/2014  23:39:00        0.337       -1.555       -1.447        5.655        4.077        3.049       31.981       16.625        9.296        0.003        0.003        1.591        2.657        2.787      336.826        8.390      865.533
01/27/2014  23:40:00        7.035        1.934        0.826        8.765        8.349        4.605       76.832       69.699       21.209        0.011        0.008        7.296        3.179        0.190      337.138        8.910      865.518
01/27/2014  23:41:00      -24.042      -36.158       -3.297       15.396       10.936        7.587      237.049      119.591       57.561        0.116        0.021       43.421        5.881        0.018      336.816        8.373      865.489
01/27/2014  23:42:00      -41.927      -85.683        0.225       53.138       74.110       29.827     2823.652     5492.231      889.646        0.915        0.460       95.391       29.520        0.096      336.664        8.118      865.457
01/27/2014  23:43:00      -79.518     -102.783        3.505       42.368       58.750       27.408     1795.068     3451.589      751.205        1.145        0.300      129.952       21.499        0.027      336.457        7.771      865.418
01/27/2014  23:44:00      -93.340      -69.930       -0.758       34.215       36.193       21.675     1170.674     1309.956      469.818        0.828        0.148      116.630       21.525        0.034      336.603        8.016      865.389
01/27/2014  23:45:00      -92.064      -45.063       -4.705       19.210       21.460       13.652      369.038      460.516      186.378        0.577        0.051      102.501        9.882        0.009      336.723        8.218      865.367
01/27/2014  23:46:00      -81.908       -0.612       -3.352       28.831       21.016       15.826      831.241      441.653      250.470        0.412        0.076       81.910       17.179        0.044      336.583        7.983      865.357
01/27/2014  23:47:00      -89.566      -16.719      -10.392       16.039       18.434       12.090      257.258      339.815      146.179        0.458        0.037       91.113        8.823        0.009      336.646        8.088      865.354
01/27/2014  23:48:00      -34.492      -49.005        3.319       28.216       24.808       13.945      796.142      615.449      194.467        0.260        0.080       59.927       12.042        0.040      336.731        8.229      865.349
01/27/2014  23:49:00      -43.824      -64.523       -1.895       35.699       26.611       20.166     1274.427      708.125      406.664        0.424        0.119       77.999       14.940        0.037      336.775        8.304      865.349
01/27/2014  23:50:00      -67.034      -53.627        2.237       52.173       31.302       26.877     2722.007      979.844      722.370        0.590        0.221       85.845       20.893        0.059      336.783        8.315      865.368
01/27/2014  23:51:00     -109.177      -75.652        9.416       49.186       48.904       31.719     2419.253     2391.581     1006.087        1.177        0.291      132.827       32.932        0.061      336.707        8.192      865.398
01/27/2014  23:52:00     -158.580     -101.530      -10.318       85.457       64.870       36.167     7302.933     4208.101     1308.086        2.419        0.641      188.298       44.976        0.057      336.604        8.016      865.455
01/27/2014  23:53:00     -168.165      -22.509      -16.125       48.334       65.853       33.308     2336.211     4336.554     1109.448        1.841        0.389      169.665       30.752        0.033      336.579        7.976      865.501
01/27/2014  23:54:00      -69.122       -7.923       -6.201       30.519       21.997       13.206      931.401      483.863      174.401        0.323        0.079       69.575       12.144        0.030      336.615        8.036      865.503
01/27/2014  23:55:00       -6.799       13.930        1.137       13.253       11.886        8.591      175.645      141.276       73.810        0.032        0.020       15.501        7.774        0.252      336.644        8.087      865.451
01/27/2014  23:56:00        4.162        1.145       17.306        7.152        5.626        4.933       51.146       31.652       24.339        0.021        0.005        4.317        2.976        0.475      336.749        8.261      865.382
01/27/2014  23:57:00        9.439       18.912        7.136        8.990        9.301        8.416       80.814       86.510       70.821        0.037        0.012       21.137        6.767        0.102      336.632        8.066      865.319
01/27/2014  23:58:00       -4.330       31.530      -11.590       11.296       12.397        5.580      127.610      153.694       31.141        0.073        0.016       31.826        3.286        0.011      336.566        7.953      865.287
01/27/2014  23:59:00      -43.468       -9.223       -7.316       37.064       15.777        6.998     1373.743      248.912       48.967        0.185        0.084       44.436        9.347        0.044      336.574        7.968      865.274
